<?xml version="1.0" encoding="UTF-8" standalone="no" ?>
<gpx xmlns="http://www.topografix.com/GPX/1/1" xmlns:xsi="http://www.w3.org/2001/XMLSchema-instance" xsi:schemaLocation="http://www.topografix.com/GPX/1/1 http://www.topografix.com/GPX/1/1/gpx.xsd" version="1.1" creator="VisuGPX - https://www.visugpx.com">
  <metadata>
    <name>Le Tour du Carton par les crêtes</name>
    <desc><![CDATA[Les copains randonneurs du 04

Au départ de Prads Haute Bléone suivre la direction de Tercier par un sentier balisé PR]]></desc>
  </metadata>
  <trk>
    <name><![CDATA[Le Tour du Carton par les crêtes_1]]></name>
    <trkseg>
      <trkpt lat="44.21704" lon="6.44347">
        <ele>1035</ele>
        <time>2020-10-08T08:16:19+02:00</time>
      </trkpt>
      <trkpt lat="44.21709" lon="6.44357">
        <ele>1036</ele>
        <time>2020-10-08T08:16:47+02:00</time>
      </trkpt>
      <trkpt lat="44.21706" lon="6.44359">
        <ele>1036</ele>
        <time>2020-10-08T08:17:10+02:00</time>
      </trkpt>
      <trkpt lat="44.2171" lon="6.44358">
        <ele>1036</ele>
        <time>2020-10-08T08:17:29+02:00</time>
      </trkpt>
      <trkpt lat="44.21712" lon="6.44355">
        <ele>1035</ele>
        <time>2020-10-08T08:17:35+02:00</time>
      </trkpt>
      <trkpt lat="44.21712" lon="6.44355">
        <ele>1035</ele>
        <time>2020-10-08T08:17:36+02:00</time>
      </trkpt>
      <trkpt lat="44.21713" lon="6.44354">
        <ele>1035</ele>
        <time>2020-10-08T08:17:39+02:00</time>
      </trkpt>
      <trkpt lat="44.21713" lon="6.44354">
        <ele>1035</ele>
        <time>2020-10-08T08:17:41+02:00</time>
      </trkpt>
      <trkpt lat="44.21713" lon="6.44355">
        <ele>1035</ele>
        <time>2020-10-08T08:17:43+02:00</time>
      </trkpt>
      <trkpt lat="44.21713" lon="6.44355">
        <ele>1035</ele>
        <time>2020-10-08T08:17:45+02:00</time>
      </trkpt>
      <trkpt lat="44.21712" lon="6.44356">
        <ele>1035</ele>
        <time>2020-10-08T08:17:47+02:00</time>
      </trkpt>
      <trkpt lat="44.21712" lon="6.44356">
        <ele>1035</ele>
        <time>2020-10-08T08:17:48+02:00</time>
      </trkpt>
      <trkpt lat="44.21712" lon="6.44356">
        <ele>1035</ele>
        <time>2020-10-08T08:17:49+02:00</time>
      </trkpt>
      <trkpt lat="44.21713" lon="6.44356">
        <ele>1035</ele>
        <time>2020-10-08T08:17:50+02:00</time>
      </trkpt>
      <trkpt lat="44.21713" lon="6.44356">
        <ele>1035</ele>
        <time>2020-10-08T08:17:51+02:00</time>
      </trkpt>
      <trkpt lat="44.21713" lon="6.44356">
        <ele>1035</ele>
        <time>2020-10-08T08:17:53+02:00</time>
      </trkpt>
      <trkpt lat="44.21714" lon="6.44355">
        <ele>1035</ele>
        <time>2020-10-08T08:17:55+02:00</time>
      </trkpt>
      <trkpt lat="44.21715" lon="6.44355">
        <ele>1035</ele>
        <time>2020-10-08T08:17:58+02:00</time>
      </trkpt>
      <trkpt lat="44.21715" lon="6.44355">
        <ele>1035</ele>
        <time>2020-10-08T08:18:00+02:00</time>
      </trkpt>
      <trkpt lat="44.21715" lon="6.44355">
        <ele>1035</ele>
        <time>2020-10-08T08:18:03+02:00</time>
      </trkpt>
      <trkpt lat="44.21714" lon="6.44356">
        <ele>1035</ele>
        <time>2020-10-08T08:18:06+02:00</time>
      </trkpt>
      <trkpt lat="44.21714" lon="6.44355">
        <ele>1035</ele>
        <time>2020-10-08T08:18:09+02:00</time>
      </trkpt>
      <trkpt lat="44.21714" lon="6.44354">
        <ele>1035</ele>
        <time>2020-10-08T08:18:13+02:00</time>
      </trkpt>
      <trkpt lat="44.21713" lon="6.44355">
        <ele>1035</ele>
        <time>2020-10-08T08:18:17+02:00</time>
      </trkpt>
      <trkpt lat="44.21712" lon="6.44356">
        <ele>1035</ele>
        <time>2020-10-08T08:18:22+02:00</time>
      </trkpt>
      <trkpt lat="44.21711" lon="6.44357">
        <ele>1036</ele>
        <time>2020-10-08T08:18:28+02:00</time>
      </trkpt>
      <trkpt lat="44.2171" lon="6.44357">
        <ele>1036</ele>
        <time>2020-10-08T08:18:35+02:00</time>
      </trkpt>
      <trkpt lat="44.2171" lon="6.44356">
        <ele>1036</ele>
        <time>2020-10-08T08:18:43+02:00</time>
      </trkpt>
      <trkpt lat="44.21711" lon="6.44354">
        <ele>1035</ele>
        <time>2020-10-08T08:18:53+02:00</time>
      </trkpt>
      <trkpt lat="44.21711" lon="6.44354">
        <ele>1035</ele>
        <time>2020-10-08T08:19:06+02:00</time>
      </trkpt>
      <trkpt lat="44.21714" lon="6.44357">
        <ele>1035</ele>
        <time>2020-10-08T08:19:27+02:00</time>
      </trkpt>
      <trkpt lat="44.21711" lon="6.44358">
        <ele>1036</ele>
        <time>2020-10-08T08:19:59+02:00</time>
      </trkpt>
      <trkpt lat="44.21705" lon="6.44358">
        <ele>1036</ele>
        <time>2020-10-08T08:20:26+02:00</time>
      </trkpt>
      <trkpt lat="44.21712" lon="6.44356">
        <ele>1035</ele>
        <time>2020-10-08T08:20:59+02:00</time>
      </trkpt>
      <trkpt lat="44.21711" lon="6.44356">
        <ele>1036</ele>
        <time>2020-10-08T08:21:28+02:00</time>
      </trkpt>
      <trkpt lat="44.21716" lon="6.44358">
        <ele>1035</ele>
        <time>2020-10-08T08:22:00+02:00</time>
      </trkpt>
      <trkpt lat="44.21714" lon="6.44361">
        <ele>1036</ele>
        <time>2020-10-08T08:22:36+02:00</time>
      </trkpt>
      <trkpt lat="44.21711" lon="6.44366">
        <ele>1036</ele>
        <time>2020-10-08T08:23:12+02:00</time>
      </trkpt>
      <trkpt lat="44.21709" lon="6.44365">
        <ele>1036</ele>
        <time>2020-10-08T08:23:42+02:00</time>
      </trkpt>
      <trkpt lat="44.21711" lon="6.44358">
        <ele>1036</ele>
        <time>2020-10-08T08:24:24+02:00</time>
      </trkpt>
      <trkpt lat="44.2171" lon="6.44364">
        <ele>1036</ele>
        <time>2020-10-08T08:24:59+02:00</time>
      </trkpt>
      <trkpt lat="44.21713" lon="6.44358">
        <ele>1036</ele>
        <time>2020-10-08T08:25:31+02:00</time>
      </trkpt>
      <trkpt lat="44.21716" lon="6.44356">
        <ele>1035</ele>
        <time>2020-10-08T08:25:56+02:00</time>
      </trkpt>
      <trkpt lat="44.21715" lon="6.44356">
        <ele>1035</ele>
        <time>2020-10-08T08:26:14+02:00</time>
      </trkpt>
      <trkpt lat="44.21715" lon="6.44359">
        <ele>1035</ele>
        <time>2020-10-08T08:26:33+02:00</time>
      </trkpt>
      <trkpt lat="44.21714" lon="6.44354">
        <ele>1035</ele>
        <time>2020-10-08T08:26:47+02:00</time>
      </trkpt>
      <trkpt lat="44.21714" lon="6.44356">
        <ele>1035</ele>
        <time>2020-10-08T08:27:01+02:00</time>
      </trkpt>
      <trkpt lat="44.21715" lon="6.44355">
        <ele>1035</ele>
        <time>2020-10-08T08:27:17+02:00</time>
      </trkpt>
      <trkpt lat="44.2172" lon="6.44353">
        <ele>1035</ele>
        <time>2020-10-08T08:27:40+02:00</time>
      </trkpt>
      <trkpt lat="44.21714" lon="6.44351">
        <ele>1035</ele>
        <time>2020-10-08T08:28:00+02:00</time>
      </trkpt>
      <trkpt lat="44.21715" lon="6.44356">
        <ele>1035</ele>
        <time>2020-10-08T08:28:26+02:00</time>
      </trkpt>
      <trkpt lat="44.21714" lon="6.44353">
        <ele>1035</ele>
        <time>2020-10-08T08:28:53+02:00</time>
      </trkpt>
      <trkpt lat="44.21707" lon="6.44356">
        <ele>1036</ele>
        <time>2020-10-08T08:29:09+02:00</time>
      </trkpt>
      <trkpt lat="44.21696" lon="6.44358">
        <ele>1037</ele>
        <time>2020-10-08T08:29:25+02:00</time>
      </trkpt>
      <trkpt lat="44.21682" lon="6.44368">
        <ele>1038</ele>
        <time>2020-10-08T08:29:43+02:00</time>
      </trkpt>
      <trkpt lat="44.21665" lon="6.44377">
        <ele>1038</ele>
        <time>2020-10-08T08:30:01+02:00</time>
      </trkpt>
      <trkpt lat="44.21654" lon="6.44379">
        <ele>1038</ele>
        <time>2020-10-08T08:30:13+02:00</time>
      </trkpt>
      <trkpt lat="44.2165" lon="6.44375">
        <ele>1038</ele>
        <time>2020-10-08T08:30:21+02:00</time>
      </trkpt>
      <trkpt lat="44.21648" lon="6.44364">
        <ele>1037</ele>
        <time>2020-10-08T08:30:37+02:00</time>
      </trkpt>
      <trkpt lat="44.21639" lon="6.44351">
        <ele>1037</ele>
        <time>2020-10-08T08:30:51+02:00</time>
      </trkpt>
      <trkpt lat="44.21624" lon="6.4436">
        <ele>1037</ele>
        <time>2020-10-08T08:31:10+02:00</time>
      </trkpt>
      <trkpt lat="44.21606" lon="6.44381">
        <ele>1038</ele>
        <time>2020-10-08T08:31:31+02:00</time>
      </trkpt>
      <trkpt lat="44.21591" lon="6.44394">
        <ele>1039</ele>
        <time>2020-10-08T08:31:51+02:00</time>
      </trkpt>
      <trkpt lat="44.21578" lon="6.44398">
        <ele>1040</ele>
        <time>2020-10-08T08:32:08+02:00</time>
      </trkpt>
      <trkpt lat="44.21563" lon="6.44404">
        <ele>1042</ele>
        <time>2020-10-08T08:32:26+02:00</time>
      </trkpt>
      <trkpt lat="44.21546" lon="6.44422">
        <ele>1044</ele>
        <time>2020-10-08T08:32:46+02:00</time>
      </trkpt>
      <trkpt lat="44.21544" lon="6.44436">
        <ele>1044</ele>
        <time>2020-10-08T08:33:00+02:00</time>
      </trkpt>
      <trkpt lat="44.21545" lon="6.44434">
        <ele>1043</ele>
        <time>2020-10-08T08:33:17+02:00</time>
      </trkpt>
      <trkpt lat="44.21547" lon="6.44435">
        <ele>1043</ele>
        <time>2020-10-08T08:33:35+02:00</time>
      </trkpt>
      <trkpt lat="44.21545" lon="6.4444">
        <ele>1043</ele>
        <time>2020-10-08T08:33:50+02:00</time>
      </trkpt>
      <trkpt lat="44.21543" lon="6.44446">
        <ele>1044</ele>
        <time>2020-10-08T08:33:56+02:00</time>
      </trkpt>
      <trkpt lat="44.21541" lon="6.44448">
        <ele>1044</ele>
        <time>2020-10-08T08:33:59+02:00</time>
      </trkpt>
      <trkpt lat="44.21539" lon="6.4445">
        <ele>1045</ele>
        <time>2020-10-08T08:34:03+02:00</time>
      </trkpt>
      <trkpt lat="44.2153" lon="6.44459">
        <ele>1046</ele>
        <time>2020-10-08T08:34:18+02:00</time>
      </trkpt>
      <trkpt lat="44.21525" lon="6.44462">
        <ele>1047</ele>
        <time>2020-10-08T08:34:32+02:00</time>
      </trkpt>
      <trkpt lat="44.21523" lon="6.44465">
        <ele>1047</ele>
        <time>2020-10-08T08:34:37+02:00</time>
      </trkpt>
      <trkpt lat="44.21519" lon="6.44471">
        <ele>1048</ele>
        <time>2020-10-08T08:34:50+02:00</time>
      </trkpt>
      <trkpt lat="44.21511" lon="6.44484">
        <ele>1049</ele>
        <time>2020-10-08T08:35:07+02:00</time>
      </trkpt>
      <trkpt lat="44.21503" lon="6.44498">
        <ele>1049</ele>
        <time>2020-10-08T08:35:19+02:00</time>
      </trkpt>
      <trkpt lat="44.21489" lon="6.44513">
        <ele>1052</ele>
        <time>2020-10-08T08:35:34+02:00</time>
      </trkpt>
      <trkpt lat="44.21478" lon="6.44531">
        <ele>1051</ele>
        <time>2020-10-08T08:35:54+02:00</time>
      </trkpt>
      <trkpt lat="44.21471" lon="6.4455">
        <ele>1050</ele>
        <time>2020-10-08T08:36:11+02:00</time>
      </trkpt>
      <trkpt lat="44.21467" lon="6.44563">
        <ele>1051</ele>
        <time>2020-10-08T08:36:27+02:00</time>
      </trkpt>
      <trkpt lat="44.2146" lon="6.4458">
        <ele>1053</ele>
        <time>2020-10-08T08:36:43+02:00</time>
      </trkpt>
      <trkpt lat="44.21457" lon="6.44591">
        <ele>1054</ele>
        <time>2020-10-08T08:37:01+02:00</time>
      </trkpt>
      <trkpt lat="44.21451" lon="6.44597">
        <ele>1055</ele>
        <time>2020-10-08T08:37:25+02:00</time>
      </trkpt>
      <trkpt lat="44.21446" lon="6.44616">
        <ele>1057</ele>
        <time>2020-10-08T08:37:42+02:00</time>
      </trkpt>
      <trkpt lat="44.21446" lon="6.44619">
        <ele>1057</ele>
        <time>2020-10-08T08:37:44+02:00</time>
      </trkpt>
      <trkpt lat="44.21444" lon="6.44636">
        <ele>1057</ele>
        <time>2020-10-08T08:37:58+02:00</time>
      </trkpt>
      <trkpt lat="44.21442" lon="6.44641">
        <ele>1058</ele>
        <time>2020-10-08T08:38:01+02:00</time>
      </trkpt>
      <trkpt lat="44.21434" lon="6.44655">
        <ele>1060</ele>
        <time>2020-10-08T08:38:15+02:00</time>
      </trkpt>
      <trkpt lat="44.21435" lon="6.44666">
        <ele>1059</ele>
        <time>2020-10-08T08:38:28+02:00</time>
      </trkpt>
      <trkpt lat="44.21442" lon="6.44672">
        <ele>1058</ele>
        <time>2020-10-08T08:38:35+02:00</time>
      </trkpt>
      <trkpt lat="44.21451" lon="6.447">
        <ele>1059</ele>
        <time>2020-10-08T08:38:55+02:00</time>
      </trkpt>
      <trkpt lat="44.21447" lon="6.44723">
        <ele>1060</ele>
        <time>2020-10-08T08:39:09+02:00</time>
      </trkpt>
      <trkpt lat="44.21434" lon="6.44735">
        <ele>1062</ele>
        <time>2020-10-08T08:39:19+02:00</time>
      </trkpt>
      <trkpt lat="44.21426" lon="6.44752">
        <ele>1065</ele>
        <time>2020-10-08T08:39:32+02:00</time>
      </trkpt>
      <trkpt lat="44.2142" lon="6.44767">
        <ele>1067</ele>
        <time>2020-10-08T08:39:46+02:00</time>
      </trkpt>
      <trkpt lat="44.21409" lon="6.44782">
        <ele>1069</ele>
        <time>2020-10-08T08:39:59+02:00</time>
      </trkpt>
      <trkpt lat="44.21401" lon="6.44796">
        <ele>1071</ele>
        <time>2020-10-08T08:40:13+02:00</time>
      </trkpt>
      <trkpt lat="44.21391" lon="6.44813">
        <ele>1071</ele>
        <time>2020-10-08T08:40:30+02:00</time>
      </trkpt>
      <trkpt lat="44.21379" lon="6.44819">
        <ele>1073</ele>
        <time>2020-10-08T08:40:46+02:00</time>
      </trkpt>
      <trkpt lat="44.21388" lon="6.44821">
        <ele>1070</ele>
        <time>2020-10-08T08:41:12+02:00</time>
      </trkpt>
      <trkpt lat="44.21383" lon="6.4482">
        <ele>1071</ele>
        <time>2020-10-08T08:41:39+02:00</time>
      </trkpt>
      <trkpt lat="44.2138" lon="6.44819">
        <ele>1072</ele>
        <time>2020-10-08T08:42:04+02:00</time>
      </trkpt>
      <trkpt lat="44.21376" lon="6.44829">
        <ele>1072</ele>
        <time>2020-10-08T08:42:23+02:00</time>
      </trkpt>
      <trkpt lat="44.21365" lon="6.44843">
        <ele>1072</ele>
        <time>2020-10-08T08:42:39+02:00</time>
      </trkpt>
      <trkpt lat="44.21356" lon="6.44859">
        <ele>1075</ele>
        <time>2020-10-08T08:42:53+02:00</time>
      </trkpt>
      <trkpt lat="44.21353" lon="6.44875">
        <ele>1077</ele>
        <time>2020-10-08T08:43:06+02:00</time>
      </trkpt>
      <trkpt lat="44.21358" lon="6.44888">
        <ele>1073</ele>
        <time>2020-10-08T08:43:21+02:00</time>
      </trkpt>
      <trkpt lat="44.21351" lon="6.44892">
        <ele>1078</ele>
        <time>2020-10-08T08:43:39+02:00</time>
      </trkpt>
      <trkpt lat="44.21354" lon="6.44884">
        <ele>1076</ele>
        <time>2020-10-08T08:43:57+02:00</time>
      </trkpt>
      <trkpt lat="44.21347" lon="6.44879">
        <ele>1081</ele>
        <time>2020-10-08T08:44:13+02:00</time>
      </trkpt>
      <trkpt lat="44.21343" lon="6.44884">
        <ele>1083</ele>
        <time>2020-10-08T08:44:26+02:00</time>
      </trkpt>
      <trkpt lat="44.21336" lon="6.44891">
        <ele>1087</ele>
        <time>2020-10-08T08:44:40+02:00</time>
      </trkpt>
      <trkpt lat="44.21337" lon="6.44906">
        <ele>1087</ele>
        <time>2020-10-08T08:44:54+02:00</time>
      </trkpt>
      <trkpt lat="44.21336" lon="6.44919">
        <ele>1088</ele>
        <time>2020-10-08T08:45:07+02:00</time>
      </trkpt>
      <trkpt lat="44.21333" lon="6.44933">
        <ele>1089</ele>
        <time>2020-10-08T08:45:21+02:00</time>
      </trkpt>
      <trkpt lat="44.21332" lon="6.44937">
        <ele>1089</ele>
        <time>2020-10-08T08:45:25+02:00</time>
      </trkpt>
      <trkpt lat="44.21329" lon="6.44953">
        <ele>1090</ele>
        <time>2020-10-08T08:45:42+02:00</time>
      </trkpt>
      <trkpt lat="44.21323" lon="6.4496">
        <ele>1092</ele>
        <time>2020-10-08T08:45:56+02:00</time>
      </trkpt>
      <trkpt lat="44.21322" lon="6.44959">
        <ele>1093</ele>
        <time>2020-10-08T08:46:03+02:00</time>
      </trkpt>
      <trkpt lat="44.21327" lon="6.4495">
        <ele>1092</ele>
        <time>2020-10-08T08:46:19+02:00</time>
      </trkpt>
      <trkpt lat="44.21329" lon="6.44938">
        <ele>1093</ele>
        <time>2020-10-08T08:46:33+02:00</time>
      </trkpt>
      <trkpt lat="44.21326" lon="6.44932">
        <ele>1095</ele>
        <time>2020-10-08T08:46:50+02:00</time>
      </trkpt>
      <trkpt lat="44.21321" lon="6.44936">
        <ele>1100</ele>
        <time>2020-10-08T08:47:03+02:00</time>
      </trkpt>
      <trkpt lat="44.21318" lon="6.44942">
        <ele>1102</ele>
        <time>2020-10-08T08:47:17+02:00</time>
      </trkpt>
      <trkpt lat="44.21312" lon="6.44943">
        <ele>1106</ele>
        <time>2020-10-08T08:47:30+02:00</time>
      </trkpt>
      <trkpt lat="44.21308" lon="6.44948">
        <ele>1109</ele>
        <time>2020-10-08T08:47:45+02:00</time>
      </trkpt>
      <trkpt lat="44.21303" lon="6.4495">
        <ele>1111</ele>
        <time>2020-10-08T08:47:53+02:00</time>
      </trkpt>
      <trkpt lat="44.21295" lon="6.4496">
        <ele>1112</ele>
        <time>2020-10-08T08:48:07+02:00</time>
      </trkpt>
      <trkpt lat="44.21293" lon="6.44965">
        <ele>1112</ele>
        <time>2020-10-08T08:48:23+02:00</time>
      </trkpt>
      <trkpt lat="44.21287" lon="6.44974">
        <ele>1112</ele>
        <time>2020-10-08T08:48:40+02:00</time>
      </trkpt>
      <trkpt lat="44.21275" lon="6.4498">
        <ele>1116</ele>
        <time>2020-10-08T08:48:55+02:00</time>
      </trkpt>
      <trkpt lat="44.21274" lon="6.44981">
        <ele>1116</ele>
        <time>2020-10-08T08:48:56+02:00</time>
      </trkpt>
      <trkpt lat="44.21265" lon="6.44983">
        <ele>1120</ele>
        <time>2020-10-08T08:49:10+02:00</time>
      </trkpt>
      <trkpt lat="44.21268" lon="6.44974">
        <ele>1122</ele>
        <time>2020-10-08T08:49:26+02:00</time>
      </trkpt>
      <trkpt lat="44.21272" lon="6.44965">
        <ele>1123</ele>
        <time>2020-10-08T08:49:41+02:00</time>
      </trkpt>
      <trkpt lat="44.21275" lon="6.44952">
        <ele>1125</ele>
        <time>2020-10-08T08:49:55+02:00</time>
      </trkpt>
      <trkpt lat="44.21279" lon="6.44941">
        <ele>1126</ele>
        <time>2020-10-08T08:50:09+02:00</time>
      </trkpt>
      <trkpt lat="44.21283" lon="6.44933">
        <ele>1126</ele>
        <time>2020-10-08T08:50:24+02:00</time>
      </trkpt>
      <trkpt lat="44.21275" lon="6.44933">
        <ele>1131</ele>
        <time>2020-10-08T08:50:40+02:00</time>
      </trkpt>
      <trkpt lat="44.21264" lon="6.44938">
        <ele>1134</ele>
        <time>2020-10-08T08:51:01+02:00</time>
      </trkpt>
      <trkpt lat="44.21254" lon="6.44943">
        <ele>1138</ele>
        <time>2020-10-08T08:51:18+02:00</time>
      </trkpt>
      <trkpt lat="44.21241" lon="6.44949">
        <ele>1142</ele>
        <time>2020-10-08T08:51:33+02:00</time>
      </trkpt>
      <trkpt lat="44.21234" lon="6.44963">
        <ele>1141</ele>
        <time>2020-10-08T08:51:50+02:00</time>
      </trkpt>
      <trkpt lat="44.21228" lon="6.44969">
        <ele>1143</ele>
        <time>2020-10-08T08:52:04+02:00</time>
      </trkpt>
      <trkpt lat="44.21226" lon="6.44972">
        <ele>1143</ele>
        <time>2020-10-08T08:52:23+02:00</time>
      </trkpt>
      <trkpt lat="44.21224" lon="6.44979">
        <ele>1142</ele>
        <time>2020-10-08T08:52:45+02:00</time>
      </trkpt>
      <trkpt lat="44.21226" lon="6.44975">
        <ele>1142</ele>
        <time>2020-10-08T08:53:06+02:00</time>
      </trkpt>
      <trkpt lat="44.21228" lon="6.44975">
        <ele>1141</ele>
        <time>2020-10-08T08:53:26+02:00</time>
      </trkpt>
      <trkpt lat="44.21221" lon="6.44982">
        <ele>1143</ele>
        <time>2020-10-08T08:53:41+02:00</time>
      </trkpt>
      <trkpt lat="44.21211" lon="6.44992">
        <ele>1146</ele>
        <time>2020-10-08T08:53:57+02:00</time>
      </trkpt>
      <trkpt lat="44.21195" lon="6.45005">
        <ele>1151</ele>
        <time>2020-10-08T08:54:15+02:00</time>
      </trkpt>
      <trkpt lat="44.21191" lon="6.45014">
        <ele>1150</ele>
        <time>2020-10-08T08:54:30+02:00</time>
      </trkpt>
      <trkpt lat="44.21185" lon="6.45023">
        <ele>1152</ele>
        <time>2020-10-08T08:54:45+02:00</time>
      </trkpt>
      <trkpt lat="44.21178" lon="6.45031">
        <ele>1154</ele>
        <time>2020-10-08T08:55:01+02:00</time>
      </trkpt>
      <trkpt lat="44.21169" lon="6.45042">
        <ele>1159</ele>
        <time>2020-10-08T08:55:17+02:00</time>
      </trkpt>
      <trkpt lat="44.21166" lon="6.45053">
        <ele>1160</ele>
        <time>2020-10-08T08:55:28+02:00</time>
      </trkpt>
      <trkpt lat="44.21171" lon="6.45062">
        <ele>1154</ele>
        <time>2020-10-08T08:55:45+02:00</time>
      </trkpt>
      <trkpt lat="44.2118" lon="6.45063">
        <ele>1146</ele>
        <time>2020-10-08T08:56:10+02:00</time>
      </trkpt>
      <trkpt lat="44.21169" lon="6.45067">
        <ele>1155</ele>
        <time>2020-10-08T08:56:33+02:00</time>
      </trkpt>
      <trkpt lat="44.21158" lon="6.45083">
        <ele>1161</ele>
        <time>2020-10-08T08:56:46+02:00</time>
      </trkpt>
      <trkpt lat="44.21151" lon="6.451">
        <ele>1161</ele>
        <time>2020-10-08T08:57:00+02:00</time>
      </trkpt>
      <trkpt lat="44.21149" lon="6.45109">
        <ele>1160</ele>
        <time>2020-10-08T08:57:13+02:00</time>
      </trkpt>
      <trkpt lat="44.21146" lon="6.45117">
        <ele>1158</ele>
        <time>2020-10-08T08:57:29+02:00</time>
      </trkpt>
      <trkpt lat="44.21137" lon="6.45122">
        <ele>1161</ele>
        <time>2020-10-08T08:57:47+02:00</time>
      </trkpt>
      <trkpt lat="44.21138" lon="6.45122">
        <ele>1161</ele>
        <time>2020-10-08T08:58:13+02:00</time>
      </trkpt>
      <trkpt lat="44.21139" lon="6.4512">
        <ele>1162</ele>
        <time>2020-10-08T08:58:15+02:00</time>
      </trkpt>
      <trkpt lat="44.21145" lon="6.45115">
        <ele>1160</ele>
        <time>2020-10-08T08:58:32+02:00</time>
      </trkpt>
      <trkpt lat="44.21145" lon="6.45114">
        <ele>1160</ele>
        <time>2020-10-08T08:58:41+02:00</time>
      </trkpt>
      <trkpt lat="44.21149" lon="6.45112">
        <ele>1158</ele>
        <time>2020-10-08T08:59:07+02:00</time>
      </trkpt>
      <trkpt lat="44.21149" lon="6.45108">
        <ele>1160</ele>
        <time>2020-10-08T08:59:36+02:00</time>
      </trkpt>
      <trkpt lat="44.2115" lon="6.45115">
        <ele>1157</ele>
        <time>2020-10-08T08:59:59+02:00</time>
      </trkpt>
      <trkpt lat="44.21149" lon="6.45118">
        <ele>1156</ele>
        <time>2020-10-08T09:00:08+02:00</time>
      </trkpt>
      <trkpt lat="44.21143" lon="6.45123">
        <ele>1157</ele>
        <time>2020-10-08T09:00:20+02:00</time>
      </trkpt>
      <trkpt lat="44.21135" lon="6.45126">
        <ele>1160</ele>
        <time>2020-10-08T09:00:31+02:00</time>
      </trkpt>
      <trkpt lat="44.21127" lon="6.45132">
        <ele>1160</ele>
        <time>2020-10-08T09:00:44+02:00</time>
      </trkpt>
      <trkpt lat="44.21124" lon="6.45133">
        <ele>1160</ele>
        <time>2020-10-08T09:00:49+02:00</time>
      </trkpt>
      <trkpt lat="44.21121" lon="6.45134">
        <ele>1160</ele>
        <time>2020-10-08T09:00:52+02:00</time>
      </trkpt>
      <trkpt lat="44.21114" lon="6.45137">
        <ele>1161</ele>
        <time>2020-10-08T09:01:04+02:00</time>
      </trkpt>
      <trkpt lat="44.21099" lon="6.45143">
        <ele>1162</ele>
        <time>2020-10-08T09:01:21+02:00</time>
      </trkpt>
      <trkpt lat="44.21089" lon="6.45142">
        <ele>1165</ele>
        <time>2020-10-08T09:01:32+02:00</time>
      </trkpt>
      <trkpt lat="44.21077" lon="6.45143">
        <ele>1168</ele>
        <time>2020-10-08T09:01:47+02:00</time>
      </trkpt>
      <trkpt lat="44.21068" lon="6.45143">
        <ele>1172</ele>
        <time>2020-10-08T09:01:59+02:00</time>
      </trkpt>
      <trkpt lat="44.21063" lon="6.45142">
        <ele>1174</ele>
        <time>2020-10-08T09:02:07+02:00</time>
      </trkpt>
      <trkpt lat="44.2105" lon="6.45138">
        <ele>1181</ele>
        <time>2020-10-08T09:02:22+02:00</time>
      </trkpt>
      <trkpt lat="44.2104" lon="6.45136">
        <ele>1186</ele>
        <time>2020-10-08T09:02:37+02:00</time>
      </trkpt>
      <trkpt lat="44.2103" lon="6.45141">
        <ele>1188</ele>
        <time>2020-10-08T09:02:51+02:00</time>
      </trkpt>
      <trkpt lat="44.21036" lon="6.45149">
        <ele>1181</ele>
        <time>2020-10-08T09:03:06+02:00</time>
      </trkpt>
      <trkpt lat="44.21027" lon="6.45151">
        <ele>1183</ele>
        <time>2020-10-08T09:03:24+02:00</time>
      </trkpt>
      <trkpt lat="44.21013" lon="6.45152">
        <ele>1185</ele>
        <time>2020-10-08T09:03:37+02:00</time>
      </trkpt>
      <trkpt lat="44.21013" lon="6.45137">
        <ele>1194</ele>
        <time>2020-10-08T09:03:51+02:00</time>
      </trkpt>
      <trkpt lat="44.21025" lon="6.45117">
        <ele>1199</ele>
        <time>2020-10-08T09:04:07+02:00</time>
      </trkpt>
      <trkpt lat="44.21023" lon="6.45098">
        <ele>1206</ele>
        <time>2020-10-08T09:04:26+02:00</time>
      </trkpt>
      <trkpt lat="44.21026" lon="6.45086">
        <ele>1209</ele>
        <time>2020-10-08T09:04:43+02:00</time>
      </trkpt>
      <trkpt lat="44.2102" lon="6.45087">
        <ele>1211</ele>
        <time>2020-10-08T09:04:57+02:00</time>
      </trkpt>
      <trkpt lat="44.21009" lon="6.45094">
        <ele>1212</ele>
        <time>2020-10-08T09:05:14+02:00</time>
      </trkpt>
      <trkpt lat="44.21" lon="6.45099">
        <ele>1213</ele>
        <time>2020-10-08T09:05:30+02:00</time>
      </trkpt>
      <trkpt lat="44.20987" lon="6.45102">
        <ele>1215</ele>
        <time>2020-10-08T09:05:45+02:00</time>
      </trkpt>
      <trkpt lat="44.20974" lon="6.45105">
        <ele>1216</ele>
        <time>2020-10-08T09:06:01+02:00</time>
      </trkpt>
      <trkpt lat="44.20967" lon="6.4511">
        <ele>1214</ele>
        <time>2020-10-08T09:06:12+02:00</time>
      </trkpt>
      <trkpt lat="44.20958" lon="6.45113">
        <ele>1214</ele>
        <time>2020-10-08T09:06:28+02:00</time>
      </trkpt>
      <trkpt lat="44.20947" lon="6.45112">
        <ele>1218</ele>
        <time>2020-10-08T09:06:44+02:00</time>
      </trkpt>
      <trkpt lat="44.20931" lon="6.45112">
        <ele>1221</ele>
        <time>2020-10-08T09:07:02+02:00</time>
      </trkpt>
      <trkpt lat="44.20914" lon="6.45116">
        <ele>1222</ele>
        <time>2020-10-08T09:07:19+02:00</time>
      </trkpt>
      <trkpt lat="44.20904" lon="6.45117">
        <ele>1224</ele>
        <time>2020-10-08T09:07:30+02:00</time>
      </trkpt>
      <trkpt lat="44.20898" lon="6.45119">
        <ele>1224</ele>
        <time>2020-10-08T09:07:36+02:00</time>
      </trkpt>
      <trkpt lat="44.20881" lon="6.45119">
        <ele>1228</ele>
        <time>2020-10-08T09:07:54+02:00</time>
      </trkpt>
      <trkpt lat="44.20867" lon="6.4512">
        <ele>1232</ele>
        <time>2020-10-08T09:08:07+02:00</time>
      </trkpt>
      <trkpt lat="44.20851" lon="6.45121">
        <ele>1236</ele>
        <time>2020-10-08T09:08:22+02:00</time>
      </trkpt>
      <trkpt lat="44.20835" lon="6.45127">
        <ele>1238</ele>
        <time>2020-10-08T09:08:40+02:00</time>
      </trkpt>
      <trkpt lat="44.20823" lon="6.45136">
        <ele>1239</ele>
        <time>2020-10-08T09:08:57+02:00</time>
      </trkpt>
      <trkpt lat="44.20813" lon="6.45148">
        <ele>1238</ele>
        <time>2020-10-08T09:09:12+02:00</time>
      </trkpt>
      <trkpt lat="44.20799" lon="6.45152">
        <ele>1240</ele>
        <time>2020-10-08T09:09:27+02:00</time>
      </trkpt>
      <trkpt lat="44.20783" lon="6.45152">
        <ele>1242</ele>
        <time>2020-10-08T09:09:43+02:00</time>
      </trkpt>
      <trkpt lat="44.20766" lon="6.45154">
        <ele>1241</ele>
        <time>2020-10-08T09:10:00+02:00</time>
      </trkpt>
      <trkpt lat="44.20755" lon="6.45148">
        <ele>1243</ele>
        <time>2020-10-08T09:10:15+02:00</time>
      </trkpt>
      <trkpt lat="44.20741" lon="6.45138">
        <ele>1247</ele>
        <time>2020-10-08T09:10:34+02:00</time>
      </trkpt>
      <trkpt lat="44.20729" lon="6.45127">
        <ele>1250</ele>
        <time>2020-10-08T09:10:51+02:00</time>
      </trkpt>
      <trkpt lat="44.20716" lon="6.45116">
        <ele>1254</ele>
        <time>2020-10-08T09:11:09+02:00</time>
      </trkpt>
      <trkpt lat="44.20701" lon="6.45106">
        <ele>1257</ele>
        <time>2020-10-08T09:11:28+02:00</time>
      </trkpt>
      <trkpt lat="44.20685" lon="6.45096">
        <ele>1261</ele>
        <time>2020-10-08T09:11:46+02:00</time>
      </trkpt>
      <trkpt lat="44.20675" lon="6.45094">
        <ele>1264</ele>
        <time>2020-10-08T09:12:01+02:00</time>
      </trkpt>
      <trkpt lat="44.20658" lon="6.45089">
        <ele>1269</ele>
        <time>2020-10-08T09:12:18+02:00</time>
      </trkpt>
      <trkpt lat="44.20651" lon="6.45092">
        <ele>1270</ele>
        <time>2020-10-08T09:12:34+02:00</time>
      </trkpt>
      <trkpt lat="44.20645" lon="6.45097">
        <ele>1271</ele>
        <time>2020-10-08T09:12:54+02:00</time>
      </trkpt>
      <trkpt lat="44.20648" lon="6.45095">
        <ele>1271</ele>
        <time>2020-10-08T09:13:09+02:00</time>
      </trkpt>
      <trkpt lat="44.20648" lon="6.45089">
        <ele>1271</ele>
        <time>2020-10-08T09:13:27+02:00</time>
      </trkpt>
      <trkpt lat="44.20649" lon="6.45097">
        <ele>1270</ele>
        <time>2020-10-08T09:13:39+02:00</time>
      </trkpt>
      <trkpt lat="44.2065" lon="6.45094">
        <ele>1270</ele>
        <time>2020-10-08T09:13:57+02:00</time>
      </trkpt>
      <trkpt lat="44.20651" lon="6.45092">
        <ele>1270</ele>
        <time>2020-10-08T09:14:19+02:00</time>
      </trkpt>
      <trkpt lat="44.20651" lon="6.45092">
        <ele>1270</ele>
        <time>2020-10-08T09:14:21+02:00</time>
      </trkpt>
      <trkpt lat="44.20651" lon="6.45091">
        <ele>1270</ele>
        <time>2020-10-08T09:14:22+02:00</time>
      </trkpt>
      <trkpt lat="44.20651" lon="6.45091">
        <ele>1270</ele>
        <time>2020-10-08T09:14:23+02:00</time>
      </trkpt>
      <trkpt lat="44.20651" lon="6.45091">
        <ele>1270</ele>
        <time>2020-10-08T09:14:25+02:00</time>
      </trkpt>
      <trkpt lat="44.2065" lon="6.45096">
        <ele>1270</ele>
        <time>2020-10-08T09:14:51+02:00</time>
      </trkpt>
      <trkpt lat="44.20652" lon="6.45089">
        <ele>1270</ele>
        <time>2020-10-08T09:15:14+02:00</time>
      </trkpt>
      <trkpt lat="44.20653" lon="6.45089">
        <ele>1270</ele>
        <time>2020-10-08T09:15:33+02:00</time>
      </trkpt>
      <trkpt lat="44.20653" lon="6.45095">
        <ele>1269</ele>
        <time>2020-10-08T09:16:03+02:00</time>
      </trkpt>
      <trkpt lat="44.20646" lon="6.45095">
        <ele>1271</ele>
        <time>2020-10-08T09:16:34+02:00</time>
      </trkpt>
      <trkpt lat="44.20652" lon="6.45093">
        <ele>1270</ele>
        <time>2020-10-08T09:17:03+02:00</time>
      </trkpt>
      <trkpt lat="44.20644" lon="6.45092">
        <ele>1272</ele>
        <time>2020-10-08T09:17:30+02:00</time>
      </trkpt>
      <trkpt lat="44.20645" lon="6.45091">
        <ele>1272</ele>
        <time>2020-10-08T09:17:58+02:00</time>
      </trkpt>
      <trkpt lat="44.20653" lon="6.45101">
        <ele>1268</ele>
        <time>2020-10-08T09:18:27+02:00</time>
      </trkpt>
      <trkpt lat="44.20643" lon="6.45096">
        <ele>1272</ele>
        <time>2020-10-08T09:18:51+02:00</time>
      </trkpt>
      <trkpt lat="44.20633" lon="6.45104">
        <ele>1274</ele>
        <time>2020-10-08T09:19:07+02:00</time>
      </trkpt>
      <trkpt lat="44.20627" lon="6.45118">
        <ele>1273</ele>
        <time>2020-10-08T09:19:21+02:00</time>
      </trkpt>
      <trkpt lat="44.20618" lon="6.45129">
        <ele>1274</ele>
        <time>2020-10-08T09:19:35+02:00</time>
      </trkpt>
      <trkpt lat="44.2061" lon="6.45138">
        <ele>1276</ele>
        <time>2020-10-08T09:19:49+02:00</time>
      </trkpt>
      <trkpt lat="44.20602" lon="6.45143">
        <ele>1278</ele>
        <time>2020-10-08T09:20:04+02:00</time>
      </trkpt>
      <trkpt lat="44.20601" lon="6.45143">
        <ele>1278</ele>
        <time>2020-10-08T09:20:23+02:00</time>
      </trkpt>
      <trkpt lat="44.20599" lon="6.45145">
        <ele>1279</ele>
        <time>2020-10-08T09:20:49+02:00</time>
      </trkpt>
      <trkpt lat="44.20588" lon="6.45151">
        <ele>1282</ele>
        <time>2020-10-08T09:21:03+02:00</time>
      </trkpt>
      <trkpt lat="44.20575" lon="6.4516">
        <ele>1285</ele>
        <time>2020-10-08T09:21:20+02:00</time>
      </trkpt>
      <trkpt lat="44.20563" lon="6.45169">
        <ele>1287</ele>
        <time>2020-10-08T09:21:34+02:00</time>
      </trkpt>
      <trkpt lat="44.20547" lon="6.45179">
        <ele>1291</ele>
        <time>2020-10-08T09:21:53+02:00</time>
      </trkpt>
      <trkpt lat="44.20538" lon="6.4519">
        <ele>1292</ele>
        <time>2020-10-08T09:22:08+02:00</time>
      </trkpt>
      <trkpt lat="44.20532" lon="6.45188">
        <ele>1294</ele>
        <time>2020-10-08T09:22:20+02:00</time>
      </trkpt>
      <trkpt lat="44.2052" lon="6.45193">
        <ele>1297</ele>
        <time>2020-10-08T09:22:36+02:00</time>
      </trkpt>
      <trkpt lat="44.20511" lon="6.45189">
        <ele>1302</ele>
        <time>2020-10-08T09:22:49+02:00</time>
      </trkpt>
      <trkpt lat="44.20499" lon="6.45193">
        <ele>1306</ele>
        <time>2020-10-08T09:23:06+02:00</time>
      </trkpt>
      <trkpt lat="44.20484" lon="6.45202">
        <ele>1309</ele>
        <time>2020-10-08T09:23:24+02:00</time>
      </trkpt>
      <trkpt lat="44.20482" lon="6.45206">
        <ele>1308</ele>
        <time>2020-10-08T09:23:45+02:00</time>
      </trkpt>
      <trkpt lat="44.2047" lon="6.45213">
        <ele>1311</ele>
        <time>2020-10-08T09:24:00+02:00</time>
      </trkpt>
      <trkpt lat="44.20458" lon="6.45217">
        <ele>1314</ele>
        <time>2020-10-08T09:24:15+02:00</time>
      </trkpt>
      <trkpt lat="44.2045" lon="6.45219">
        <ele>1316</ele>
        <time>2020-10-08T09:24:24+02:00</time>
      </trkpt>
      <trkpt lat="44.2044" lon="6.45225">
        <ele>1317</ele>
        <time>2020-10-08T09:24:39+02:00</time>
      </trkpt>
      <trkpt lat="44.20427" lon="6.4523">
        <ele>1318</ele>
        <time>2020-10-08T09:24:54+02:00</time>
      </trkpt>
      <trkpt lat="44.20422" lon="6.45236">
        <ele>1318</ele>
        <time>2020-10-08T09:25:02+02:00</time>
      </trkpt>
      <trkpt lat="44.20408" lon="6.45244">
        <ele>1317</ele>
        <time>2020-10-08T09:25:20+02:00</time>
      </trkpt>
      <trkpt lat="44.20395" lon="6.45246">
        <ele>1316</ele>
        <time>2020-10-08T09:25:36+02:00</time>
      </trkpt>
      <trkpt lat="44.20384" lon="6.45242">
        <ele>1320</ele>
        <time>2020-10-08T09:25:50+02:00</time>
      </trkpt>
      <trkpt lat="44.20372" lon="6.45239">
        <ele>1324</ele>
        <time>2020-10-08T09:26:05+02:00</time>
      </trkpt>
      <trkpt lat="44.20368" lon="6.45239">
        <ele>1325</ele>
        <time>2020-10-08T09:26:19+02:00</time>
      </trkpt>
      <trkpt lat="44.20366" lon="6.45241">
        <ele>1325</ele>
        <time>2020-10-08T09:26:39+02:00</time>
      </trkpt>
      <trkpt lat="44.20358" lon="6.45247">
        <ele>1326</ele>
        <time>2020-10-08T09:26:51+02:00</time>
      </trkpt>
      <trkpt lat="44.20349" lon="6.45244">
        <ele>1329</ele>
        <time>2020-10-08T09:27:06+02:00</time>
      </trkpt>
      <trkpt lat="44.20351" lon="6.45246">
        <ele>1328</ele>
        <time>2020-10-08T09:27:21+02:00</time>
      </trkpt>
      <trkpt lat="44.20352" lon="6.45245">
        <ele>1328</ele>
        <time>2020-10-08T09:27:33+02:00</time>
      </trkpt>
      <trkpt lat="44.20351" lon="6.45246">
        <ele>1328</ele>
        <time>2020-10-08T09:27:47+02:00</time>
      </trkpt>
      <trkpt lat="44.2035" lon="6.45247">
        <ele>1328</ele>
        <time>2020-10-08T09:28:05+02:00</time>
      </trkpt>
      <trkpt lat="44.2035" lon="6.45247">
        <ele>1328</ele>
        <time>2020-10-08T09:28:23+02:00</time>
      </trkpt>
      <trkpt lat="44.20348" lon="6.45245">
        <ele>1329</ele>
        <time>2020-10-08T09:28:33+02:00</time>
      </trkpt>
      <trkpt lat="44.20343" lon="6.45245">
        <ele>1331</ele>
        <time>2020-10-08T09:28:37+02:00</time>
      </trkpt>
      <trkpt lat="44.20326" lon="6.45261">
        <ele>1331</ele>
        <time>2020-10-08T09:28:56+02:00</time>
      </trkpt>
      <trkpt lat="44.20313" lon="6.45277">
        <ele>1332</ele>
        <time>2020-10-08T09:29:13+02:00</time>
      </trkpt>
      <trkpt lat="44.20298" lon="6.45285">
        <ele>1333</ele>
        <time>2020-10-08T09:29:29+02:00</time>
      </trkpt>
      <trkpt lat="44.20281" lon="6.45289">
        <ele>1335</ele>
        <time>2020-10-08T09:29:46+02:00</time>
      </trkpt>
      <trkpt lat="44.2026" lon="6.45292">
        <ele>1336</ele>
        <time>2020-10-08T09:30:04+02:00</time>
      </trkpt>
      <trkpt lat="44.2025" lon="6.45288">
        <ele>1337</ele>
        <time>2020-10-08T09:30:12+02:00</time>
      </trkpt>
      <trkpt lat="44.20231" lon="6.45272">
        <ele>1338</ele>
        <time>2020-10-08T09:30:32+02:00</time>
      </trkpt>
      <trkpt lat="44.20221" lon="6.45247">
        <ele>1339</ele>
        <time>2020-10-08T09:30:51+02:00</time>
      </trkpt>
      <trkpt lat="44.20215" lon="6.45218">
        <ele>1341</ele>
        <time>2020-10-08T09:31:10+02:00</time>
      </trkpt>
      <trkpt lat="44.2022" lon="6.45203">
        <ele>1342</ele>
        <time>2020-10-08T09:31:25+02:00</time>
      </trkpt>
      <trkpt lat="44.20238" lon="6.45187">
        <ele>1345</ele>
        <time>2020-10-08T09:31:43+02:00</time>
      </trkpt>
      <trkpt lat="44.20253" lon="6.45175">
        <ele>1347</ele>
        <time>2020-10-08T09:32:02+02:00</time>
      </trkpt>
      <trkpt lat="44.20272" lon="6.45178">
        <ele>1347</ele>
        <time>2020-10-08T09:32:19+02:00</time>
      </trkpt>
      <trkpt lat="44.20286" lon="6.45174">
        <ele>1347</ele>
        <time>2020-10-08T09:32:33+02:00</time>
      </trkpt>
      <trkpt lat="44.20288" lon="6.45169">
        <ele>1347</ele>
        <time>2020-10-08T09:32:36+02:00</time>
      </trkpt>
      <trkpt lat="44.2028" lon="6.45157">
        <ele>1348</ele>
        <time>2020-10-08T09:32:52+02:00</time>
      </trkpt>
      <trkpt lat="44.20263" lon="6.45145">
        <ele>1349</ele>
        <time>2020-10-08T09:33:10+02:00</time>
      </trkpt>
      <trkpt lat="44.20259" lon="6.45139">
        <ele>1349</ele>
        <time>2020-10-08T09:33:15+02:00</time>
      </trkpt>
      <trkpt lat="44.20239" lon="6.45113">
        <ele>1352</ele>
        <time>2020-10-08T09:33:36+02:00</time>
      </trkpt>
      <trkpt lat="44.20228" lon="6.45091">
        <ele>1356</ele>
        <time>2020-10-08T09:33:55+02:00</time>
      </trkpt>
      <trkpt lat="44.20227" lon="6.45076">
        <ele>1359</ele>
        <time>2020-10-08T09:34:09+02:00</time>
      </trkpt>
      <trkpt lat="44.2022" lon="6.4506">
        <ele>1363</ele>
        <time>2020-10-08T09:34:25+02:00</time>
      </trkpt>
      <trkpt lat="44.20216" lon="6.45047">
        <ele>1366</ele>
        <time>2020-10-08T09:34:41+02:00</time>
      </trkpt>
      <trkpt lat="44.20222" lon="6.45033">
        <ele>1367</ele>
        <time>2020-10-08T09:34:57+02:00</time>
      </trkpt>
      <trkpt lat="44.20223" lon="6.45031">
        <ele>1367</ele>
        <time>2020-10-08T09:35:02+02:00</time>
      </trkpt>
      <trkpt lat="44.20233" lon="6.45013">
        <ele>1369</ele>
        <time>2020-10-08T09:35:18+02:00</time>
      </trkpt>
      <trkpt lat="44.20242" lon="6.44996">
        <ele>1370</ele>
        <time>2020-10-08T09:35:35+02:00</time>
      </trkpt>
      <trkpt lat="44.20248" lon="6.44992">
        <ele>1370</ele>
        <time>2020-10-08T09:35:44+02:00</time>
      </trkpt>
      <trkpt lat="44.20268" lon="6.44982">
        <ele>1371</ele>
        <time>2020-10-08T09:36:03+02:00</time>
      </trkpt>
      <trkpt lat="44.20281" lon="6.44965">
        <ele>1373</ele>
        <time>2020-10-08T09:36:20+02:00</time>
      </trkpt>
      <trkpt lat="44.20283" lon="6.44955">
        <ele>1375</ele>
        <time>2020-10-08T09:36:27+02:00</time>
      </trkpt>
      <trkpt lat="44.20285" lon="6.44953">
        <ele>1375</ele>
        <time>2020-10-08T09:36:29+02:00</time>
      </trkpt>
      <trkpt lat="44.20296" lon="6.44933">
        <ele>1378</ele>
        <time>2020-10-08T09:36:47+02:00</time>
      </trkpt>
      <trkpt lat="44.20304" lon="6.44917">
        <ele>1380</ele>
        <time>2020-10-08T09:37:02+02:00</time>
      </trkpt>
      <trkpt lat="44.20311" lon="6.44894">
        <ele>1384</ele>
        <time>2020-10-08T09:37:22+02:00</time>
      </trkpt>
      <trkpt lat="44.20316" lon="6.44875">
        <ele>1388</ele>
        <time>2020-10-08T09:37:39+02:00</time>
      </trkpt>
      <trkpt lat="44.20318" lon="6.44871">
        <ele>1389</ele>
        <time>2020-10-08T09:37:54+02:00</time>
      </trkpt>
      <trkpt lat="44.20318" lon="6.44873">
        <ele>1389</ele>
        <time>2020-10-08T09:38:09+02:00</time>
      </trkpt>
      <trkpt lat="44.20316" lon="6.44874">
        <ele>1388</ele>
        <time>2020-10-08T09:38:40+02:00</time>
      </trkpt>
      <trkpt lat="44.20317" lon="6.44873">
        <ele>1388</ele>
        <time>2020-10-08T09:39:04+02:00</time>
      </trkpt>
      <trkpt lat="44.20318" lon="6.44873">
        <ele>1388</ele>
        <time>2020-10-08T09:39:28+02:00</time>
      </trkpt>
      <trkpt lat="44.20324" lon="6.44866">
        <ele>1389</ele>
        <time>2020-10-08T09:39:58+02:00</time>
      </trkpt>
      <trkpt lat="44.20337" lon="6.44852">
        <ele>1391</ele>
        <time>2020-10-08T09:40:17+02:00</time>
      </trkpt>
      <trkpt lat="44.20349" lon="6.44839">
        <ele>1391</ele>
        <time>2020-10-08T09:40:34+02:00</time>
      </trkpt>
      <trkpt lat="44.20363" lon="6.44827">
        <ele>1392</ele>
        <time>2020-10-08T09:40:52+02:00</time>
      </trkpt>
      <trkpt lat="44.20376" lon="6.44817">
        <ele>1393</ele>
        <time>2020-10-08T09:41:09+02:00</time>
      </trkpt>
      <trkpt lat="44.20392" lon="6.44805">
        <ele>1395</ele>
        <time>2020-10-08T09:41:28+02:00</time>
      </trkpt>
      <trkpt lat="44.20407" lon="6.44796">
        <ele>1397</ele>
        <time>2020-10-08T09:41:47+02:00</time>
      </trkpt>
      <trkpt lat="44.20416" lon="6.44791">
        <ele>1397</ele>
        <time>2020-10-08T09:41:59+02:00</time>
      </trkpt>
      <trkpt lat="44.20433" lon="6.44786">
        <ele>1398</ele>
        <time>2020-10-08T09:42:18+02:00</time>
      </trkpt>
      <trkpt lat="44.20448" lon="6.44779">
        <ele>1399</ele>
        <time>2020-10-08T09:42:36+02:00</time>
      </trkpt>
      <trkpt lat="44.20461" lon="6.44769">
        <ele>1402</ele>
        <time>2020-10-08T09:42:53+02:00</time>
      </trkpt>
      <trkpt lat="44.20474" lon="6.44761">
        <ele>1404</ele>
        <time>2020-10-08T09:43:09+02:00</time>
      </trkpt>
      <trkpt lat="44.20488" lon="6.4475">
        <ele>1406</ele>
        <time>2020-10-08T09:43:28+02:00</time>
      </trkpt>
      <trkpt lat="44.20501" lon="6.44735">
        <ele>1409</ele>
        <time>2020-10-08T09:43:46+02:00</time>
      </trkpt>
      <trkpt lat="44.20511" lon="6.44717">
        <ele>1414</ele>
        <time>2020-10-08T09:44:05+02:00</time>
      </trkpt>
      <trkpt lat="44.20522" lon="6.44698">
        <ele>1418</ele>
        <time>2020-10-08T09:44:24+02:00</time>
      </trkpt>
      <trkpt lat="44.20523" lon="6.44696">
        <ele>1418</ele>
        <time>2020-10-08T09:44:26+02:00</time>
      </trkpt>
      <trkpt lat="44.20534" lon="6.44683">
        <ele>1420</ele>
        <time>2020-10-08T09:44:42+02:00</time>
      </trkpt>
      <trkpt lat="44.20544" lon="6.44666">
        <ele>1424</ele>
        <time>2020-10-08T09:44:59+02:00</time>
      </trkpt>
      <trkpt lat="44.20556" lon="6.44647">
        <ele>1428</ele>
        <time>2020-10-08T09:45:18+02:00</time>
      </trkpt>
      <trkpt lat="44.20567" lon="6.44634">
        <ele>1430</ele>
        <time>2020-10-08T09:45:35+02:00</time>
      </trkpt>
      <trkpt lat="44.20584" lon="6.44624">
        <ele>1430</ele>
        <time>2020-10-08T09:45:54+02:00</time>
      </trkpt>
      <trkpt lat="44.20592" lon="6.44616">
        <ele>1432</ele>
        <time>2020-10-08T09:46:11+02:00</time>
      </trkpt>
      <trkpt lat="44.20588" lon="6.44614">
        <ele>1433</ele>
        <time>2020-10-08T09:46:27+02:00</time>
      </trkpt>
      <trkpt lat="44.20588" lon="6.44619">
        <ele>1432</ele>
        <time>2020-10-08T09:46:48+02:00</time>
      </trkpt>
      <trkpt lat="44.20597" lon="6.44614">
        <ele>1433</ele>
        <time>2020-10-08T09:47:02+02:00</time>
      </trkpt>
      <trkpt lat="44.20602" lon="6.44613">
        <ele>1432</ele>
        <time>2020-10-08T09:47:08+02:00</time>
      </trkpt>
      <trkpt lat="44.20615" lon="6.44596">
        <ele>1436</ele>
        <time>2020-10-08T09:47:25+02:00</time>
      </trkpt>
      <trkpt lat="44.20628" lon="6.44578">
        <ele>1440</ele>
        <time>2020-10-08T09:47:45+02:00</time>
      </trkpt>
      <trkpt lat="44.20637" lon="6.44567">
        <ele>1443</ele>
        <time>2020-10-08T09:47:57+02:00</time>
      </trkpt>
      <trkpt lat="44.20649" lon="6.44554">
        <ele>1447</ele>
        <time>2020-10-08T09:48:16+02:00</time>
      </trkpt>
      <trkpt lat="44.20664" lon="6.44543">
        <ele>1449</ele>
        <time>2020-10-08T09:48:33+02:00</time>
      </trkpt>
      <trkpt lat="44.20676" lon="6.44535">
        <ele>1452</ele>
        <time>2020-10-08T09:48:49+02:00</time>
      </trkpt>
      <trkpt lat="44.20687" lon="6.44526">
        <ele>1455</ele>
        <time>2020-10-08T09:49:05+02:00</time>
      </trkpt>
      <trkpt lat="44.207" lon="6.4452">
        <ele>1457</ele>
        <time>2020-10-08T09:49:21+02:00</time>
      </trkpt>
      <trkpt lat="44.20713" lon="6.44517">
        <ele>1459</ele>
        <time>2020-10-08T09:49:37+02:00</time>
      </trkpt>
      <trkpt lat="44.20725" lon="6.44515">
        <ele>1461</ele>
        <time>2020-10-08T09:49:51+02:00</time>
      </trkpt>
      <trkpt lat="44.20737" lon="6.44512">
        <ele>1463</ele>
        <time>2020-10-08T09:50:08+02:00</time>
      </trkpt>
      <trkpt lat="44.20746" lon="6.4451">
        <ele>1464</ele>
        <time>2020-10-08T09:50:23+02:00</time>
      </trkpt>
      <trkpt lat="44.20755" lon="6.44506">
        <ele>1466</ele>
        <time>2020-10-08T09:50:38+02:00</time>
      </trkpt>
      <trkpt lat="44.20753" lon="6.44507">
        <ele>1466</ele>
        <time>2020-10-08T09:50:55+02:00</time>
      </trkpt>
      <trkpt lat="44.20754" lon="6.44507">
        <ele>1466</ele>
        <time>2020-10-08T09:51:16+02:00</time>
      </trkpt>
      <trkpt lat="44.20752" lon="6.44504">
        <ele>1467</ele>
        <time>2020-10-08T09:51:34+02:00</time>
      </trkpt>
      <trkpt lat="44.20751" lon="6.44505">
        <ele>1466</ele>
        <time>2020-10-08T09:51:49+02:00</time>
      </trkpt>
      <trkpt lat="44.20751" lon="6.44507">
        <ele>1466</ele>
        <time>2020-10-08T09:51:58+02:00</time>
      </trkpt>
      <trkpt lat="44.20751" lon="6.44505">
        <ele>1466</ele>
        <time>2020-10-08T10:00:14+02:00</time>
      </trkpt>
      <trkpt lat="44.20754" lon="6.44507">
        <ele>1466</ele>
        <time>2020-10-08T10:00:16+02:00</time>
      </trkpt>
      <trkpt lat="44.20754" lon="6.44507">
        <ele>1466</ele>
        <time>2020-10-08T10:00:47+02:00</time>
      </trkpt>
      <trkpt lat="44.20755" lon="6.44508">
        <ele>1465</ele>
        <time>2020-10-08T10:01:02+02:00</time>
      </trkpt>
      <trkpt lat="44.20755" lon="6.44507">
        <ele>1466</ele>
        <time>2020-10-08T10:01:25+02:00</time>
      </trkpt>
      <trkpt lat="44.20753" lon="6.44509">
        <ele>1465</ele>
        <time>2020-10-08T10:01:50+02:00</time>
      </trkpt>
      <trkpt lat="44.20751" lon="6.44507">
        <ele>1466</ele>
        <time>2020-10-08T10:02:15+02:00</time>
      </trkpt>
      <trkpt lat="44.20754" lon="6.44504">
        <ele>1467</ele>
        <time>2020-10-08T10:02:37+02:00</time>
      </trkpt>
      <trkpt lat="44.20752" lon="6.44504">
        <ele>1467</ele>
        <time>2020-10-08T10:02:58+02:00</time>
      </trkpt>
      <trkpt lat="44.20754" lon="6.44505">
        <ele>1466</ele>
        <time>2020-10-08T10:03:23+02:00</time>
      </trkpt>
      <trkpt lat="44.2075" lon="6.44503">
        <ele>1467</ele>
        <time>2020-10-08T10:03:45+02:00</time>
      </trkpt>
      <trkpt lat="44.2075" lon="6.44501">
        <ele>1468</ele>
        <time>2020-10-08T10:03:47+02:00</time>
      </trkpt>
      <trkpt lat="44.20745" lon="6.44486">
        <ele>1473</ele>
        <time>2020-10-08T10:04:04+02:00</time>
      </trkpt>
      <trkpt lat="44.20736" lon="6.4447">
        <ele>1478</ele>
        <time>2020-10-08T10:04:22+02:00</time>
      </trkpt>
      <trkpt lat="44.20728" lon="6.44458">
        <ele>1483</ele>
        <time>2020-10-08T10:04:38+02:00</time>
      </trkpt>
      <trkpt lat="44.20716" lon="6.44449">
        <ele>1487</ele>
        <time>2020-10-08T10:04:56+02:00</time>
      </trkpt>
      <trkpt lat="44.20711" lon="6.4444">
        <ele>1492</ele>
        <time>2020-10-08T10:05:11+02:00</time>
      </trkpt>
      <trkpt lat="44.20713" lon="6.4444">
        <ele>1492</ele>
        <time>2020-10-08T10:05:31+02:00</time>
      </trkpt>
      <trkpt lat="44.20709" lon="6.44442">
        <ele>1491</ele>
        <time>2020-10-08T10:05:51+02:00</time>
      </trkpt>
      <trkpt lat="44.20717" lon="6.4444">
        <ele>1492</ele>
        <time>2020-10-08T10:06:05+02:00</time>
      </trkpt>
      <trkpt lat="44.20728" lon="6.44437">
        <ele>1493</ele>
        <time>2020-10-08T10:06:18+02:00</time>
      </trkpt>
      <trkpt lat="44.20741" lon="6.44432">
        <ele>1495</ele>
        <time>2020-10-08T10:06:36+02:00</time>
      </trkpt>
      <trkpt lat="44.20747" lon="6.44431">
        <ele>1496</ele>
        <time>2020-10-08T10:06:51+02:00</time>
      </trkpt>
      <trkpt lat="44.20747" lon="6.44428">
        <ele>1497</ele>
        <time>2020-10-08T10:07:20+02:00</time>
      </trkpt>
      <trkpt lat="44.20757" lon="6.44416">
        <ele>1501</ele>
        <time>2020-10-08T10:07:35+02:00</time>
      </trkpt>
      <trkpt lat="44.20765" lon="6.4441">
        <ele>1501</ele>
        <time>2020-10-08T10:07:49+02:00</time>
      </trkpt>
      <trkpt lat="44.2077" lon="6.44403">
        <ele>1502</ele>
        <time>2020-10-08T10:08:05+02:00</time>
      </trkpt>
      <trkpt lat="44.20773" lon="6.44397">
        <ele>1503</ele>
        <time>2020-10-08T10:08:21+02:00</time>
      </trkpt>
      <trkpt lat="44.20779" lon="6.44394">
        <ele>1503</ele>
        <time>2020-10-08T10:08:37+02:00</time>
      </trkpt>
      <trkpt lat="44.20781" lon="6.44389">
        <ele>1503</ele>
        <time>2020-10-08T10:08:54+02:00</time>
      </trkpt>
      <trkpt lat="44.2078" lon="6.44391">
        <ele>1503</ele>
        <time>2020-10-08T10:09:13+02:00</time>
      </trkpt>
      <trkpt lat="44.20783" lon="6.44392">
        <ele>1502</ele>
        <time>2020-10-08T10:09:35+02:00</time>
      </trkpt>
      <trkpt lat="44.20786" lon="6.44387">
        <ele>1499</ele>
        <time>2020-10-08T10:09:51+02:00</time>
      </trkpt>
      <trkpt lat="44.20786" lon="6.44381">
        <ele>1490</ele>
        <time>2020-10-08T10:10:05+02:00</time>
      </trkpt>
      <trkpt lat="44.20787" lon="6.44381">
        <ele>1489</ele>
        <time>2020-10-08T10:10:27+02:00</time>
      </trkpt>
      <trkpt lat="44.20788" lon="6.44381">
        <ele>1489</ele>
        <time>2020-10-08T10:10:45+02:00</time>
      </trkpt>
      <trkpt lat="44.20786" lon="6.44384">
        <ele>1494</ele>
        <time>2020-10-08T10:11:18+02:00</time>
      </trkpt>
      <trkpt lat="44.20786" lon="6.44379">
        <ele>1486</ele>
        <time>2020-10-08T10:11:51+02:00</time>
      </trkpt>
      <trkpt lat="44.20786" lon="6.44378">
        <ele>1485</ele>
        <time>2020-10-08T10:12:13+02:00</time>
      </trkpt>
      <trkpt lat="44.20786" lon="6.44379">
        <ele>1487</ele>
        <time>2020-10-08T10:12:42+02:00</time>
      </trkpt>
      <trkpt lat="44.20786" lon="6.44381">
        <ele>1490</ele>
        <time>2020-10-08T10:13:19+02:00</time>
      </trkpt>
      <trkpt lat="44.20785" lon="6.44381">
        <ele>1490</ele>
        <time>2020-10-08T10:13:53+02:00</time>
      </trkpt>
      <trkpt lat="44.20786" lon="6.44386">
        <ele>1497</ele>
        <time>2020-10-08T10:14:14+02:00</time>
      </trkpt>
      <trkpt lat="44.20787" lon="6.44389">
        <ele>1500</ele>
        <time>2020-10-08T10:14:35+02:00</time>
      </trkpt>
      <trkpt lat="44.20783" lon="6.44389">
        <ele>1502</ele>
        <time>2020-10-08T10:14:50+02:00</time>
      </trkpt>
      <trkpt lat="44.20775" lon="6.44395">
        <ele>1503</ele>
        <time>2020-10-08T10:15:07+02:00</time>
      </trkpt>
      <trkpt lat="44.20768" lon="6.44396">
        <ele>1503</ele>
        <time>2020-10-08T10:15:23+02:00</time>
      </trkpt>
      <trkpt lat="44.20763" lon="6.44396">
        <ele>1503</ele>
        <time>2020-10-08T10:15:37+02:00</time>
      </trkpt>
      <trkpt lat="44.2076" lon="6.44394">
        <ele>1504</ele>
        <time>2020-10-08T10:15:46+02:00</time>
      </trkpt>
      <trkpt lat="44.2075" lon="6.44387">
        <ele>1502</ele>
        <time>2020-10-08T10:16:04+02:00</time>
      </trkpt>
      <trkpt lat="44.20742" lon="6.44381">
        <ele>1495</ele>
        <time>2020-10-08T10:16:22+02:00</time>
      </trkpt>
      <trkpt lat="44.20736" lon="6.44375">
        <ele>1488</ele>
        <time>2020-10-08T10:16:38+02:00</time>
      </trkpt>
      <trkpt lat="44.20726" lon="6.44375">
        <ele>1489</ele>
        <time>2020-10-08T10:16:54+02:00</time>
      </trkpt>
      <trkpt lat="44.20726" lon="6.44376">
        <ele>1490</ele>
        <time>2020-10-08T10:16:57+02:00</time>
      </trkpt>
      <trkpt lat="44.20721" lon="6.44382">
        <ele>1497</ele>
        <time>2020-10-08T10:17:12+02:00</time>
      </trkpt>
      <trkpt lat="44.20719" lon="6.44385">
        <ele>1501</ele>
        <time>2020-10-08T10:17:28+02:00</time>
      </trkpt>
      <trkpt lat="44.20717" lon="6.44389">
        <ele>1505</ele>
        <time>2020-10-08T10:17:44+02:00</time>
      </trkpt>
      <trkpt lat="44.20714" lon="6.44395">
        <ele>1505</ele>
        <time>2020-10-08T10:17:59+02:00</time>
      </trkpt>
      <trkpt lat="44.20712" lon="6.44396">
        <ele>1505</ele>
        <time>2020-10-08T10:18:13+02:00</time>
      </trkpt>
      <trkpt lat="44.20713" lon="6.44396">
        <ele>1505</ele>
        <time>2020-10-08T10:18:33+02:00</time>
      </trkpt>
      <trkpt lat="44.20712" lon="6.44393">
        <ele>1505</ele>
        <time>2020-10-08T10:18:42+02:00</time>
      </trkpt>
      <trkpt lat="44.20704" lon="6.44393">
        <ele>1504</ele>
        <time>2020-10-08T10:18:58+02:00</time>
      </trkpt>
      <trkpt lat="44.20699" lon="6.44392">
        <ele>1504</ele>
        <time>2020-10-08T10:19:14+02:00</time>
      </trkpt>
      <trkpt lat="44.20695" lon="6.44391">
        <ele>1503</ele>
        <time>2020-10-08T10:19:29+02:00</time>
      </trkpt>
      <trkpt lat="44.20691" lon="6.4439">
        <ele>1505</ele>
        <time>2020-10-08T10:19:45+02:00</time>
      </trkpt>
      <trkpt lat="44.2069" lon="6.44388">
        <ele>1504</ele>
        <time>2020-10-08T10:19:59+02:00</time>
      </trkpt>
      <trkpt lat="44.20684" lon="6.44384">
        <ele>1502</ele>
        <time>2020-10-08T10:20:16+02:00</time>
      </trkpt>
      <trkpt lat="44.20678" lon="6.44383">
        <ele>1503</ele>
        <time>2020-10-08T10:20:31+02:00</time>
      </trkpt>
      <trkpt lat="44.2067" lon="6.44381">
        <ele>1504</ele>
        <time>2020-10-08T10:20:42+02:00</time>
      </trkpt>
      <trkpt lat="44.20669" lon="6.44383">
        <ele>1507</ele>
        <time>2020-10-08T10:20:58+02:00</time>
      </trkpt>
      <trkpt lat="44.20661" lon="6.44383">
        <ele>1510</ele>
        <time>2020-10-08T10:21:17+02:00</time>
      </trkpt>
      <trkpt lat="44.20653" lon="6.44383">
        <ele>1512</ele>
        <time>2020-10-08T10:21:31+02:00</time>
      </trkpt>
      <trkpt lat="44.20649" lon="6.44382">
        <ele>1512</ele>
        <time>2020-10-08T10:21:52+02:00</time>
      </trkpt>
      <trkpt lat="44.20642" lon="6.44381">
        <ele>1513</ele>
        <time>2020-10-08T10:22:09+02:00</time>
      </trkpt>
      <trkpt lat="44.20634" lon="6.44381">
        <ele>1517</ele>
        <time>2020-10-08T10:22:27+02:00</time>
      </trkpt>
      <trkpt lat="44.20628" lon="6.44379">
        <ele>1518</ele>
        <time>2020-10-08T10:22:41+02:00</time>
      </trkpt>
      <trkpt lat="44.20617" lon="6.44377">
        <ele>1521</ele>
        <time>2020-10-08T10:22:59+02:00</time>
      </trkpt>
      <trkpt lat="44.20605" lon="6.44379">
        <ele>1526</ele>
        <time>2020-10-08T10:23:15+02:00</time>
      </trkpt>
      <trkpt lat="44.20593" lon="6.44379">
        <ele>1529</ele>
        <time>2020-10-08T10:23:33+02:00</time>
      </trkpt>
      <trkpt lat="44.20584" lon="6.44381">
        <ele>1532</ele>
        <time>2020-10-08T10:23:53+02:00</time>
      </trkpt>
      <trkpt lat="44.20577" lon="6.44382">
        <ele>1533</ele>
        <time>2020-10-08T10:24:07+02:00</time>
      </trkpt>
      <trkpt lat="44.20572" lon="6.44385">
        <ele>1534</ele>
        <time>2020-10-08T10:24:16+02:00</time>
      </trkpt>
      <trkpt lat="44.20561" lon="6.4439">
        <ele>1535</ele>
        <time>2020-10-08T10:24:32+02:00</time>
      </trkpt>
      <trkpt lat="44.20548" lon="6.44392">
        <ele>1537</ele>
        <time>2020-10-08T10:24:50+02:00</time>
      </trkpt>
      <trkpt lat="44.20545" lon="6.44393">
        <ele>1538</ele>
        <time>2020-10-08T10:24:57+02:00</time>
      </trkpt>
      <trkpt lat="44.20542" lon="6.44394">
        <ele>1538</ele>
        <time>2020-10-08T10:25:15+02:00</time>
      </trkpt>
      <trkpt lat="44.20538" lon="6.44395">
        <ele>1539</ele>
        <time>2020-10-08T10:25:30+02:00</time>
      </trkpt>
      <trkpt lat="44.20534" lon="6.44395">
        <ele>1540</ele>
        <time>2020-10-08T10:25:51+02:00</time>
      </trkpt>
      <trkpt lat="44.20532" lon="6.44396">
        <ele>1540</ele>
        <time>2020-10-08T10:26:07+02:00</time>
      </trkpt>
      <trkpt lat="44.2052" lon="6.44397">
        <ele>1543</ele>
        <time>2020-10-08T10:26:23+02:00</time>
      </trkpt>
      <trkpt lat="44.20512" lon="6.44389">
        <ele>1548</ele>
        <time>2020-10-08T10:26:37+02:00</time>
      </trkpt>
      <trkpt lat="44.20508" lon="6.44383">
        <ele>1551</ele>
        <time>2020-10-08T10:26:52+02:00</time>
      </trkpt>
      <trkpt lat="44.20506" lon="6.44374">
        <ele>1554</ele>
        <time>2020-10-08T10:27:11+02:00</time>
      </trkpt>
      <trkpt lat="44.20502" lon="6.44366">
        <ele>1557</ele>
        <time>2020-10-08T10:27:27+02:00</time>
      </trkpt>
      <trkpt lat="44.20492" lon="6.4436">
        <ele>1560</ele>
        <time>2020-10-08T10:27:49+02:00</time>
      </trkpt>
      <trkpt lat="44.20491" lon="6.4436">
        <ele>1560</ele>
        <time>2020-10-08T10:27:50+02:00</time>
      </trkpt>
      <trkpt lat="44.2048" lon="6.44357">
        <ele>1561</ele>
        <time>2020-10-08T10:28:10+02:00</time>
      </trkpt>
      <trkpt lat="44.2048" lon="6.44354">
        <ele>1561</ele>
        <time>2020-10-08T10:28:27+02:00</time>
      </trkpt>
      <trkpt lat="44.20478" lon="6.44357">
        <ele>1562</ele>
        <time>2020-10-08T10:28:47+02:00</time>
      </trkpt>
      <trkpt lat="44.20476" lon="6.44356">
        <ele>1562</ele>
        <time>2020-10-08T10:28:53+02:00</time>
      </trkpt>
      <trkpt lat="44.20471" lon="6.44352">
        <ele>1563</ele>
        <time>2020-10-08T10:29:12+02:00</time>
      </trkpt>
      <trkpt lat="44.2047" lon="6.44351">
        <ele>1563</ele>
        <time>2020-10-08T10:29:15+02:00</time>
      </trkpt>
      <trkpt lat="44.20471" lon="6.44353">
        <ele>1563</ele>
        <time>2020-10-08T10:29:37+02:00</time>
      </trkpt>
      <trkpt lat="44.20472" lon="6.44352">
        <ele>1563</ele>
        <time>2020-10-08T10:30:02+02:00</time>
      </trkpt>
      <trkpt lat="44.2047" lon="6.44351">
        <ele>1564</ele>
        <time>2020-10-08T10:30:21+02:00</time>
      </trkpt>
      <trkpt lat="44.20466" lon="6.44347">
        <ele>1565</ele>
        <time>2020-10-08T10:30:38+02:00</time>
      </trkpt>
      <trkpt lat="44.20459" lon="6.44342">
        <ele>1568</ele>
        <time>2020-10-08T10:30:56+02:00</time>
      </trkpt>
      <trkpt lat="44.20454" lon="6.4434">
        <ele>1570</ele>
        <time>2020-10-08T10:31:12+02:00</time>
      </trkpt>
      <trkpt lat="44.20448" lon="6.44337">
        <ele>1573</ele>
        <time>2020-10-08T10:31:30+02:00</time>
      </trkpt>
      <trkpt lat="44.20446" lon="6.44335">
        <ele>1575</ele>
        <time>2020-10-08T10:31:44+02:00</time>
      </trkpt>
      <trkpt lat="44.20444" lon="6.44332">
        <ele>1576</ele>
        <time>2020-10-08T10:32:02+02:00</time>
      </trkpt>
      <trkpt lat="44.20444" lon="6.44332">
        <ele>1575</ele>
        <time>2020-10-08T10:32:33+02:00</time>
      </trkpt>
      <trkpt lat="44.20439" lon="6.44331">
        <ele>1576</ele>
        <time>2020-10-08T10:32:46+02:00</time>
      </trkpt>
      <trkpt lat="44.20438" lon="6.44331">
        <ele>1576</ele>
        <time>2020-10-08T10:33:04+02:00</time>
      </trkpt>
      <trkpt lat="44.20432" lon="6.4433">
        <ele>1578</ele>
        <time>2020-10-08T10:33:21+02:00</time>
      </trkpt>
      <trkpt lat="44.20431" lon="6.44331">
        <ele>1579</ele>
        <time>2020-10-08T10:33:34+02:00</time>
      </trkpt>
      <trkpt lat="44.20426" lon="6.44331">
        <ele>1581</ele>
        <time>2020-10-08T10:33:42+02:00</time>
      </trkpt>
      <trkpt lat="44.2042" lon="6.4433">
        <ele>1583</ele>
        <time>2020-10-08T10:33:58+02:00</time>
      </trkpt>
      <trkpt lat="44.20416" lon="6.44328">
        <ele>1584</ele>
        <time>2020-10-08T10:34:15+02:00</time>
      </trkpt>
      <trkpt lat="44.20412" lon="6.44326">
        <ele>1585</ele>
        <time>2020-10-08T10:34:34+02:00</time>
      </trkpt>
      <trkpt lat="44.20407" lon="6.44324">
        <ele>1587</ele>
        <time>2020-10-08T10:34:54+02:00</time>
      </trkpt>
      <trkpt lat="44.20408" lon="6.44325">
        <ele>1587</ele>
        <time>2020-10-08T10:35:16+02:00</time>
      </trkpt>
      <trkpt lat="44.20405" lon="6.44322">
        <ele>1588</ele>
        <time>2020-10-08T10:35:37+02:00</time>
      </trkpt>
      <trkpt lat="44.20399" lon="6.44321">
        <ele>1590</ele>
        <time>2020-10-08T10:35:49+02:00</time>
      </trkpt>
      <trkpt lat="44.20387" lon="6.44319">
        <ele>1595</ele>
        <time>2020-10-08T10:36:09+02:00</time>
      </trkpt>
      <trkpt lat="44.20384" lon="6.44318">
        <ele>1596</ele>
        <time>2020-10-08T10:36:35+02:00</time>
      </trkpt>
      <trkpt lat="44.20378" lon="6.44317">
        <ele>1597</ele>
        <time>2020-10-08T10:36:53+02:00</time>
      </trkpt>
      <trkpt lat="44.20373" lon="6.44312">
        <ele>1600</ele>
        <time>2020-10-08T10:37:11+02:00</time>
      </trkpt>
      <trkpt lat="44.20368" lon="6.44309">
        <ele>1602</ele>
        <time>2020-10-08T10:37:26+02:00</time>
      </trkpt>
      <trkpt lat="44.20366" lon="6.44309">
        <ele>1603</ele>
        <time>2020-10-08T10:37:43+02:00</time>
      </trkpt>
      <trkpt lat="44.20367" lon="6.44307">
        <ele>1603</ele>
        <time>2020-10-08T10:38:01+02:00</time>
      </trkpt>
      <trkpt lat="44.20368" lon="6.44309">
        <ele>1602</ele>
        <time>2020-10-08T10:38:24+02:00</time>
      </trkpt>
      <trkpt lat="44.20366" lon="6.44309">
        <ele>1603</ele>
        <time>2020-10-08T10:38:43+02:00</time>
      </trkpt>
      <trkpt lat="44.20365" lon="6.4431">
        <ele>1602</ele>
        <time>2020-10-08T10:39:02+02:00</time>
      </trkpt>
      <trkpt lat="44.20363" lon="6.44311">
        <ele>1602</ele>
        <time>2020-10-08T10:39:22+02:00</time>
      </trkpt>
      <trkpt lat="44.20363" lon="6.44308">
        <ele>1603</ele>
        <time>2020-10-08T10:39:51+02:00</time>
      </trkpt>
      <trkpt lat="44.20363" lon="6.44312">
        <ele>1602</ele>
        <time>2020-10-08T10:40:17+02:00</time>
      </trkpt>
      <trkpt lat="44.20359" lon="6.44314">
        <ele>1601</ele>
        <time>2020-10-08T10:40:33+02:00</time>
      </trkpt>
      <trkpt lat="44.20356" lon="6.44321">
        <ele>1597</ele>
        <time>2020-10-08T10:40:46+02:00</time>
      </trkpt>
      <trkpt lat="44.20348" lon="6.44325">
        <ele>1595</ele>
        <time>2020-10-08T10:41:00+02:00</time>
      </trkpt>
      <trkpt lat="44.20345" lon="6.44327">
        <ele>1595</ele>
        <time>2020-10-08T10:41:13+02:00</time>
      </trkpt>
      <trkpt lat="44.20335" lon="6.44325">
        <ele>1595</ele>
        <time>2020-10-08T10:41:28+02:00</time>
      </trkpt>
      <trkpt lat="44.20328" lon="6.44325">
        <ele>1595</ele>
        <time>2020-10-08T10:41:42+02:00</time>
      </trkpt>
      <trkpt lat="44.20318" lon="6.44322">
        <ele>1596</ele>
        <time>2020-10-08T10:41:57+02:00</time>
      </trkpt>
      <trkpt lat="44.20314" lon="6.44321">
        <ele>1597</ele>
        <time>2020-10-08T10:42:12+02:00</time>
      </trkpt>
      <trkpt lat="44.20308" lon="6.44321">
        <ele>1597</ele>
        <time>2020-10-08T10:42:27+02:00</time>
      </trkpt>
      <trkpt lat="44.20302" lon="6.44326">
        <ele>1598</ele>
        <time>2020-10-08T10:42:40+02:00</time>
      </trkpt>
      <trkpt lat="44.20296" lon="6.4433">
        <ele>1598</ele>
        <time>2020-10-08T10:42:55+02:00</time>
      </trkpt>
      <trkpt lat="44.20297" lon="6.44329">
        <ele>1598</ele>
        <time>2020-10-08T10:43:12+02:00</time>
      </trkpt>
      <trkpt lat="44.20293" lon="6.44327">
        <ele>1599</ele>
        <time>2020-10-08T10:43:28+02:00</time>
      </trkpt>
      <trkpt lat="44.20287" lon="6.44325">
        <ele>1601</ele>
        <time>2020-10-08T10:43:41+02:00</time>
      </trkpt>
      <trkpt lat="44.20279" lon="6.44325">
        <ele>1603</ele>
        <time>2020-10-08T10:43:57+02:00</time>
      </trkpt>
      <trkpt lat="44.20272" lon="6.44327">
        <ele>1605</ele>
        <time>2020-10-08T10:44:09+02:00</time>
      </trkpt>
      <trkpt lat="44.20265" lon="6.4432">
        <ele>1610</ele>
        <time>2020-10-08T10:44:26+02:00</time>
      </trkpt>
      <trkpt lat="44.20261" lon="6.44314">
        <ele>1615</ele>
        <time>2020-10-08T10:44:43+02:00</time>
      </trkpt>
      <trkpt lat="44.20254" lon="6.44311">
        <ele>1619</ele>
        <time>2020-10-08T10:44:57+02:00</time>
      </trkpt>
      <trkpt lat="44.2025" lon="6.44314">
        <ele>1620</ele>
        <time>2020-10-08T10:45:13+02:00</time>
      </trkpt>
      <trkpt lat="44.20247" lon="6.44313">
        <ele>1622</ele>
        <time>2020-10-08T10:45:30+02:00</time>
      </trkpt>
      <trkpt lat="44.20242" lon="6.44317">
        <ele>1622</ele>
        <time>2020-10-08T10:45:50+02:00</time>
      </trkpt>
      <trkpt lat="44.20239" lon="6.44312">
        <ele>1626</ele>
        <time>2020-10-08T10:46:09+02:00</time>
      </trkpt>
      <trkpt lat="44.20236" lon="6.44313">
        <ele>1627</ele>
        <time>2020-10-08T10:46:28+02:00</time>
      </trkpt>
      <trkpt lat="44.20231" lon="6.44315">
        <ele>1627</ele>
        <time>2020-10-08T10:46:43+02:00</time>
      </trkpt>
      <trkpt lat="44.20228" lon="6.44317">
        <ele>1628</ele>
        <time>2020-10-08T10:47:03+02:00</time>
      </trkpt>
      <trkpt lat="44.20225" lon="6.44316">
        <ele>1630</ele>
        <time>2020-10-08T10:47:28+02:00</time>
      </trkpt>
      <trkpt lat="44.20223" lon="6.44311">
        <ele>1633</ele>
        <time>2020-10-08T10:47:48+02:00</time>
      </trkpt>
      <trkpt lat="44.20222" lon="6.44308">
        <ele>1636</ele>
        <time>2020-10-08T10:48:05+02:00</time>
      </trkpt>
      <trkpt lat="44.20214" lon="6.44305">
        <ele>1640</ele>
        <time>2020-10-08T10:48:25+02:00</time>
      </trkpt>
      <trkpt lat="44.20215" lon="6.44307">
        <ele>1639</ele>
        <time>2020-10-08T10:48:35+02:00</time>
      </trkpt>
      <trkpt lat="44.20219" lon="6.44306">
        <ele>1638</ele>
        <time>2020-10-08T10:48:56+02:00</time>
      </trkpt>
      <trkpt lat="44.20217" lon="6.44306">
        <ele>1638</ele>
        <time>2020-10-08T10:49:06+02:00</time>
      </trkpt>
      <trkpt lat="44.20209" lon="6.44301">
        <ele>1643</ele>
        <time>2020-10-08T10:49:22+02:00</time>
      </trkpt>
      <trkpt lat="44.20202" lon="6.44301">
        <ele>1645</ele>
        <time>2020-10-08T10:49:35+02:00</time>
      </trkpt>
      <trkpt lat="44.20194" lon="6.44298">
        <ele>1649</ele>
        <time>2020-10-08T10:49:54+02:00</time>
      </trkpt>
      <trkpt lat="44.2019" lon="6.44293">
        <ele>1652</ele>
        <time>2020-10-08T10:50:14+02:00</time>
      </trkpt>
      <trkpt lat="44.20186" lon="6.44285">
        <ele>1657</ele>
        <time>2020-10-08T10:50:36+02:00</time>
      </trkpt>
      <trkpt lat="44.20181" lon="6.44287">
        <ele>1659</ele>
        <time>2020-10-08T10:50:49+02:00</time>
      </trkpt>
      <trkpt lat="44.20178" lon="6.44288">
        <ele>1660</ele>
        <time>2020-10-08T10:51:13+02:00</time>
      </trkpt>
      <trkpt lat="44.20172" lon="6.44286">
        <ele>1664</ele>
        <time>2020-10-08T10:51:30+02:00</time>
      </trkpt>
      <trkpt lat="44.2017" lon="6.4428">
        <ele>1668</ele>
        <time>2020-10-08T10:51:50+02:00</time>
      </trkpt>
      <trkpt lat="44.20169" lon="6.44271">
        <ele>1673</ele>
        <time>2020-10-08T10:52:08+02:00</time>
      </trkpt>
      <trkpt lat="44.20167" lon="6.4426">
        <ele>1678</ele>
        <time>2020-10-08T10:52:28+02:00</time>
      </trkpt>
      <trkpt lat="44.20161" lon="6.44252">
        <ele>1687</ele>
        <time>2020-10-08T10:52:48+02:00</time>
      </trkpt>
      <trkpt lat="44.20157" lon="6.44245">
        <ele>1688</ele>
        <time>2020-10-08T10:53:07+02:00</time>
      </trkpt>
      <trkpt lat="44.20155" lon="6.4424">
        <ele>1687</ele>
        <time>2020-10-08T10:53:27+02:00</time>
      </trkpt>
      <trkpt lat="44.20153" lon="6.44239">
        <ele>1688</ele>
        <time>2020-10-08T10:53:44+02:00</time>
      </trkpt>
      <trkpt lat="44.20149" lon="6.44243">
        <ele>1693</ele>
        <time>2020-10-08T10:54:02+02:00</time>
      </trkpt>
      <trkpt lat="44.20145" lon="6.44243">
        <ele>1697</ele>
        <time>2020-10-08T10:54:18+02:00</time>
      </trkpt>
      <trkpt lat="44.2014" lon="6.44239">
        <ele>1699</ele>
        <time>2020-10-08T10:54:37+02:00</time>
      </trkpt>
      <trkpt lat="44.20138" lon="6.44241">
        <ele>1701</ele>
        <time>2020-10-08T10:54:52+02:00</time>
      </trkpt>
      <trkpt lat="44.20137" lon="6.44241">
        <ele>1701</ele>
        <time>2020-10-08T10:55:08+02:00</time>
      </trkpt>
      <trkpt lat="44.20134" lon="6.44244">
        <ele>1704</ele>
        <time>2020-10-08T10:55:29+02:00</time>
      </trkpt>
      <trkpt lat="44.20132" lon="6.44249">
        <ele>1706</ele>
        <time>2020-10-08T10:55:47+02:00</time>
      </trkpt>
      <trkpt lat="44.2013" lon="6.44254">
        <ele>1706</ele>
        <time>2020-10-08T10:56:03+02:00</time>
      </trkpt>
      <trkpt lat="44.20127" lon="6.44255">
        <ele>1706</ele>
        <time>2020-10-08T10:56:20+02:00</time>
      </trkpt>
      <trkpt lat="44.20124" lon="6.44256">
        <ele>1707</ele>
        <time>2020-10-08T10:56:34+02:00</time>
      </trkpt>
      <trkpt lat="44.20122" lon="6.4426">
        <ele>1706</ele>
        <time>2020-10-08T10:56:50+02:00</time>
      </trkpt>
      <trkpt lat="44.20121" lon="6.44261">
        <ele>1706</ele>
        <time>2020-10-08T10:57:14+02:00</time>
      </trkpt>
      <trkpt lat="44.20119" lon="6.44263">
        <ele>1706</ele>
        <time>2020-10-08T10:57:31+02:00</time>
      </trkpt>
      <trkpt lat="44.20117" lon="6.44262">
        <ele>1708</ele>
        <time>2020-10-08T10:57:53+02:00</time>
      </trkpt>
      <trkpt lat="44.20115" lon="6.44265">
        <ele>1707</ele>
        <time>2020-10-08T10:58:13+02:00</time>
      </trkpt>
      <trkpt lat="44.20113" lon="6.44264">
        <ele>1708</ele>
        <time>2020-10-08T10:58:32+02:00</time>
      </trkpt>
      <trkpt lat="44.20115" lon="6.44264">
        <ele>1707</ele>
        <time>2020-10-08T10:58:57+02:00</time>
      </trkpt>
      <trkpt lat="44.20114" lon="6.44264">
        <ele>1708</ele>
        <time>2020-10-08T10:59:28+02:00</time>
      </trkpt>
      <trkpt lat="44.20115" lon="6.44267">
        <ele>1706</ele>
        <time>2020-10-08T10:59:51+02:00</time>
      </trkpt>
      <trkpt lat="44.20115" lon="6.44265">
        <ele>1707</ele>
        <time>2020-10-08T11:00:13+02:00</time>
      </trkpt>
      <trkpt lat="44.20114" lon="6.44266">
        <ele>1707</ele>
        <time>2020-10-08T11:00:34+02:00</time>
      </trkpt>
      <trkpt lat="44.20114" lon="6.44264">
        <ele>1708</ele>
        <time>2020-10-08T11:00:52+02:00</time>
      </trkpt>
      <trkpt lat="44.20112" lon="6.44264">
        <ele>1709</ele>
        <time>2020-10-08T11:01:17+02:00</time>
      </trkpt>
      <trkpt lat="44.20108" lon="6.44265">
        <ele>1710</ele>
        <time>2020-10-08T11:01:34+02:00</time>
      </trkpt>
      <trkpt lat="44.20105" lon="6.44266">
        <ele>1711</ele>
        <time>2020-10-08T11:01:49+02:00</time>
      </trkpt>
      <trkpt lat="44.20099" lon="6.44266">
        <ele>1714</ele>
        <time>2020-10-08T11:02:05+02:00</time>
      </trkpt>
      <trkpt lat="44.20089" lon="6.44264">
        <ele>1718</ele>
        <time>2020-10-08T11:02:26+02:00</time>
      </trkpt>
      <trkpt lat="44.20085" lon="6.44264">
        <ele>1720</ele>
        <time>2020-10-08T11:02:45+02:00</time>
      </trkpt>
      <trkpt lat="44.20084" lon="6.44265">
        <ele>1720</ele>
        <time>2020-10-08T11:03:05+02:00</time>
      </trkpt>
      <trkpt lat="44.20083" lon="6.44265">
        <ele>1721</ele>
        <time>2020-10-08T11:03:30+02:00</time>
      </trkpt>
      <trkpt lat="44.20079" lon="6.44266">
        <ele>1722</ele>
        <time>2020-10-08T11:03:51+02:00</time>
      </trkpt>
      <trkpt lat="44.20075" lon="6.44265">
        <ele>1724</ele>
        <time>2020-10-08T11:04:10+02:00</time>
      </trkpt>
      <trkpt lat="44.20072" lon="6.44262">
        <ele>1726</ele>
        <time>2020-10-08T11:04:26+02:00</time>
      </trkpt>
      <trkpt lat="44.20069" lon="6.44268">
        <ele>1724</ele>
        <time>2020-10-08T11:04:38+02:00</time>
      </trkpt>
      <trkpt lat="44.20061" lon="6.44275">
        <ele>1725</ele>
        <time>2020-10-08T11:04:57+02:00</time>
      </trkpt>
      <trkpt lat="44.20055" lon="6.44273">
        <ele>1728</ele>
        <time>2020-10-08T11:05:15+02:00</time>
      </trkpt>
      <trkpt lat="44.20053" lon="6.44272">
        <ele>1729</ele>
        <time>2020-10-08T11:05:29+02:00</time>
      </trkpt>
      <trkpt lat="44.20052" lon="6.44272">
        <ele>1729</ele>
        <time>2020-10-08T11:05:30+02:00</time>
      </trkpt>
      <trkpt lat="44.20048" lon="6.44275">
        <ele>1730</ele>
        <time>2020-10-08T11:05:55+02:00</time>
      </trkpt>
      <trkpt lat="44.20046" lon="6.44275">
        <ele>1731</ele>
        <time>2020-10-08T11:06:16+02:00</time>
      </trkpt>
      <trkpt lat="44.20042" lon="6.44276">
        <ele>1732</ele>
        <time>2020-10-08T11:06:35+02:00</time>
      </trkpt>
      <trkpt lat="44.20039" lon="6.44276">
        <ele>1734</ele>
        <time>2020-10-08T11:06:55+02:00</time>
      </trkpt>
      <trkpt lat="44.20034" lon="6.44277">
        <ele>1736</ele>
        <time>2020-10-08T11:07:13+02:00</time>
      </trkpt>
      <trkpt lat="44.2003" lon="6.44279">
        <ele>1737</ele>
        <time>2020-10-08T11:07:33+02:00</time>
      </trkpt>
      <trkpt lat="44.20022" lon="6.44283">
        <ele>1736</ele>
        <time>2020-10-08T11:07:53+02:00</time>
      </trkpt>
      <trkpt lat="44.2002" lon="6.44283">
        <ele>1737</ele>
        <time>2020-10-08T11:08:11+02:00</time>
      </trkpt>
      <trkpt lat="44.20016" lon="6.44285">
        <ele>1737</ele>
        <time>2020-10-08T11:08:28+02:00</time>
      </trkpt>
      <trkpt lat="44.20011" lon="6.44288">
        <ele>1737</ele>
        <time>2020-10-08T11:08:44+02:00</time>
      </trkpt>
      <trkpt lat="44.20012" lon="6.44288">
        <ele>1737</ele>
        <time>2020-10-08T11:08:50+02:00</time>
      </trkpt>
      <trkpt lat="44.20013" lon="6.4429">
        <ele>1735</ele>
        <time>2020-10-08T11:09:13+02:00</time>
      </trkpt>
      <trkpt lat="44.20012" lon="6.44288">
        <ele>1736</ele>
        <time>2020-10-08T11:09:39+02:00</time>
      </trkpt>
      <trkpt lat="44.20006" lon="6.44284">
        <ele>1740</ele>
        <time>2020-10-08T11:09:54+02:00</time>
      </trkpt>
      <trkpt lat="44.20002" lon="6.44286">
        <ele>1741</ele>
        <time>2020-10-08T11:10:08+02:00</time>
      </trkpt>
      <trkpt lat="44.20004" lon="6.44286">
        <ele>1740</ele>
        <time>2020-10-08T11:10:29+02:00</time>
      </trkpt>
      <trkpt lat="44.20005" lon="6.44287">
        <ele>1739</ele>
        <time>2020-10-08T11:10:51+02:00</time>
      </trkpt>
      <trkpt lat="44.20005" lon="6.44287">
        <ele>1739</ele>
        <time>2020-10-08T11:11:10+02:00</time>
      </trkpt>
      <trkpt lat="44.20004" lon="6.44286">
        <ele>1740</ele>
        <time>2020-10-08T11:11:30+02:00</time>
      </trkpt>
      <trkpt lat="44.20004" lon="6.44286">
        <ele>1741</ele>
        <time>2020-10-08T11:11:33+02:00</time>
      </trkpt>
      <trkpt lat="44.19999" lon="6.44289">
        <ele>1740</ele>
        <time>2020-10-08T11:11:50+02:00</time>
      </trkpt>
      <trkpt lat="44.19993" lon="6.44288">
        <ele>1742</ele>
        <time>2020-10-08T11:12:11+02:00</time>
      </trkpt>
      <trkpt lat="44.19987" lon="6.44289">
        <ele>1743</ele>
        <time>2020-10-08T11:12:27+02:00</time>
      </trkpt>
      <trkpt lat="44.19985" lon="6.4429">
        <ele>1743</ele>
        <time>2020-10-08T11:12:29+02:00</time>
      </trkpt>
      <trkpt lat="44.19973" lon="6.44287">
        <ele>1746</ele>
        <time>2020-10-08T11:12:43+02:00</time>
      </trkpt>
      <trkpt lat="44.19967" lon="6.44287">
        <ele>1749</ele>
        <time>2020-10-08T11:13:01+02:00</time>
      </trkpt>
      <trkpt lat="44.19961" lon="6.44289">
        <ele>1753</ele>
        <time>2020-10-08T11:13:20+02:00</time>
      </trkpt>
      <trkpt lat="44.19959" lon="6.44288">
        <ele>1754</ele>
        <time>2020-10-08T11:13:37+02:00</time>
      </trkpt>
      <trkpt lat="44.19956" lon="6.44289">
        <ele>1755</ele>
        <time>2020-10-08T11:13:55+02:00</time>
      </trkpt>
      <trkpt lat="44.19954" lon="6.44285">
        <ele>1758</ele>
        <time>2020-10-08T11:14:17+02:00</time>
      </trkpt>
      <trkpt lat="44.19955" lon="6.44289">
        <ele>1756</ele>
        <time>2020-10-08T11:14:40+02:00</time>
      </trkpt>
      <trkpt lat="44.19952" lon="6.4429">
        <ele>1758</ele>
        <time>2020-10-08T11:14:57+02:00</time>
      </trkpt>
      <trkpt lat="44.19957" lon="6.44297">
        <ele>1753</ele>
        <time>2020-10-08T11:15:17+02:00</time>
      </trkpt>
      <trkpt lat="44.19953" lon="6.443">
        <ele>1755</ele>
        <time>2020-10-08T11:15:39+02:00</time>
      </trkpt>
      <trkpt lat="44.19951" lon="6.44298">
        <ele>1756</ele>
        <time>2020-10-08T11:15:58+02:00</time>
      </trkpt>
      <trkpt lat="44.19949" lon="6.44301">
        <ele>1757</ele>
        <time>2020-10-08T11:16:18+02:00</time>
      </trkpt>
      <trkpt lat="44.19946" lon="6.44299">
        <ele>1760</ele>
        <time>2020-10-08T11:16:36+02:00</time>
      </trkpt>
      <trkpt lat="44.19944" lon="6.44303">
        <ele>1760</ele>
        <time>2020-10-08T11:16:56+02:00</time>
      </trkpt>
      <trkpt lat="44.1994" lon="6.44301">
        <ele>1763</ele>
        <time>2020-10-08T11:17:17+02:00</time>
      </trkpt>
      <trkpt lat="44.19942" lon="6.44302">
        <ele>1761</ele>
        <time>2020-10-08T11:17:36+02:00</time>
      </trkpt>
      <trkpt lat="44.19948" lon="6.44299">
        <ele>1758</ele>
        <time>2020-10-08T11:17:59+02:00</time>
      </trkpt>
      <trkpt lat="44.19937" lon="6.44293">
        <ele>1765</ele>
        <time>2020-10-08T11:18:21+02:00</time>
      </trkpt>
      <trkpt lat="44.1993" lon="6.44293">
        <ele>1769</ele>
        <time>2020-10-08T11:18:37+02:00</time>
      </trkpt>
      <trkpt lat="44.19924" lon="6.44296">
        <ele>1772</ele>
        <time>2020-10-08T11:18:53+02:00</time>
      </trkpt>
      <trkpt lat="44.19925" lon="6.44303">
        <ele>1773</ele>
        <time>2020-10-08T11:19:10+02:00</time>
      </trkpt>
      <trkpt lat="44.19928" lon="6.4431">
        <ele>1770</ele>
        <time>2020-10-08T11:19:30+02:00</time>
      </trkpt>
      <trkpt lat="44.19928" lon="6.44309">
        <ele>1771</ele>
        <time>2020-10-08T11:19:54+02:00</time>
      </trkpt>
      <trkpt lat="44.19927" lon="6.44309">
        <ele>1771</ele>
        <time>2020-10-08T11:20:18+02:00</time>
      </trkpt>
      <trkpt lat="44.19926" lon="6.4431">
        <ele>1772</ele>
        <time>2020-10-08T11:20:49+02:00</time>
      </trkpt>
      <trkpt lat="44.19925" lon="6.44313">
        <ele>1771</ele>
        <time>2020-10-08T11:21:08+02:00</time>
      </trkpt>
      <trkpt lat="44.19924" lon="6.44313">
        <ele>1772</ele>
        <time>2020-10-08T11:21:41+02:00</time>
      </trkpt>
      <trkpt lat="44.19923" lon="6.44312">
        <ele>1773</ele>
        <time>2020-10-08T11:22:13+02:00</time>
      </trkpt>
      <trkpt lat="44.19922" lon="6.44311">
        <ele>1774</ele>
        <time>2020-10-08T11:22:37+02:00</time>
      </trkpt>
      <trkpt lat="44.19915" lon="6.44312">
        <ele>1779</ele>
        <time>2020-10-08T11:22:53+02:00</time>
      </trkpt>
      <trkpt lat="44.19907" lon="6.44317">
        <ele>1782</ele>
        <time>2020-10-08T11:23:11+02:00</time>
      </trkpt>
      <trkpt lat="44.19902" lon="6.44323">
        <ele>1784</ele>
        <time>2020-10-08T11:23:28+02:00</time>
      </trkpt>
      <trkpt lat="44.19896" lon="6.4433">
        <ele>1790</ele>
        <time>2020-10-08T11:23:44+02:00</time>
      </trkpt>
      <trkpt lat="44.19886" lon="6.44339">
        <ele>1795</ele>
        <time>2020-10-08T11:24:06+02:00</time>
      </trkpt>
      <trkpt lat="44.19883" lon="6.44346">
        <ele>1794</ele>
        <time>2020-10-08T11:24:23+02:00</time>
      </trkpt>
      <trkpt lat="44.19879" lon="6.44354">
        <ele>1793</ele>
        <time>2020-10-08T11:24:39+02:00</time>
      </trkpt>
      <trkpt lat="44.19868" lon="6.44355">
        <ele>1798</ele>
        <time>2020-10-08T11:24:57+02:00</time>
      </trkpt>
      <trkpt lat="44.19856" lon="6.44352">
        <ele>1803</ele>
        <time>2020-10-08T11:25:14+02:00</time>
      </trkpt>
      <trkpt lat="44.19844" lon="6.44354">
        <ele>1805</ele>
        <time>2020-10-08T11:25:32+02:00</time>
      </trkpt>
      <trkpt lat="44.19833" lon="6.44355">
        <ele>1808</ele>
        <time>2020-10-08T11:25:50+02:00</time>
      </trkpt>
      <trkpt lat="44.19824" lon="6.44357">
        <ele>1811</ele>
        <time>2020-10-08T11:26:07+02:00</time>
      </trkpt>
      <trkpt lat="44.19818" lon="6.44358">
        <ele>1813</ele>
        <time>2020-10-08T11:26:19+02:00</time>
      </trkpt>
      <trkpt lat="44.19816" lon="6.44355">
        <ele>1814</ele>
        <time>2020-10-08T11:26:36+02:00</time>
      </trkpt>
      <trkpt lat="44.1981" lon="6.44359">
        <ele>1816</ele>
        <time>2020-10-08T11:26:51+02:00</time>
      </trkpt>
      <trkpt lat="44.198" lon="6.44358">
        <ele>1819</ele>
        <time>2020-10-08T11:27:09+02:00</time>
      </trkpt>
      <trkpt lat="44.19795" lon="6.44362">
        <ele>1820</ele>
        <time>2020-10-08T11:27:26+02:00</time>
      </trkpt>
      <trkpt lat="44.19788" lon="6.4436">
        <ele>1822</ele>
        <time>2020-10-08T11:27:42+02:00</time>
      </trkpt>
      <trkpt lat="44.19781" lon="6.4436">
        <ele>1823</ele>
        <time>2020-10-08T11:27:59+02:00</time>
      </trkpt>
      <trkpt lat="44.19776" lon="6.44363">
        <ele>1824</ele>
        <time>2020-10-08T11:28:15+02:00</time>
      </trkpt>
      <trkpt lat="44.1977" lon="6.44364">
        <ele>1825</ele>
        <time>2020-10-08T11:28:34+02:00</time>
      </trkpt>
      <trkpt lat="44.19768" lon="6.44363">
        <ele>1825</ele>
        <time>2020-10-08T11:28:50+02:00</time>
      </trkpt>
      <trkpt lat="44.19758" lon="6.44363">
        <ele>1826</ele>
        <time>2020-10-08T11:29:04+02:00</time>
      </trkpt>
      <trkpt lat="44.19749" lon="6.44361">
        <ele>1828</ele>
        <time>2020-10-08T11:29:22+02:00</time>
      </trkpt>
      <trkpt lat="44.19739" lon="6.44364">
        <ele>1828</ele>
        <time>2020-10-08T11:29:41+02:00</time>
      </trkpt>
      <trkpt lat="44.19732" lon="6.44365">
        <ele>1828</ele>
        <time>2020-10-08T11:29:58+02:00</time>
      </trkpt>
      <trkpt lat="44.19726" lon="6.4436">
        <ele>1827</ele>
        <time>2020-10-08T11:30:14+02:00</time>
      </trkpt>
      <trkpt lat="44.19724" lon="6.44361">
        <ele>1828</ele>
        <time>2020-10-08T11:30:31+02:00</time>
      </trkpt>
      <trkpt lat="44.19722" lon="6.44372">
        <ele>1828</ele>
        <time>2020-10-08T11:30:47+02:00</time>
      </trkpt>
      <trkpt lat="44.19709" lon="6.44376">
        <ele>1826</ele>
        <time>2020-10-08T11:31:04+02:00</time>
      </trkpt>
      <trkpt lat="44.19697" lon="6.44377">
        <ele>1824</ele>
        <time>2020-10-08T11:31:20+02:00</time>
      </trkpt>
      <trkpt lat="44.19687" lon="6.44389">
        <ele>1828</ele>
        <time>2020-10-08T11:31:40+02:00</time>
      </trkpt>
      <trkpt lat="44.19683" lon="6.444">
        <ele>1831</ele>
        <time>2020-10-08T11:31:56+02:00</time>
      </trkpt>
      <trkpt lat="44.19674" lon="6.44409">
        <ele>1835</ele>
        <time>2020-10-08T11:32:12+02:00</time>
      </trkpt>
      <trkpt lat="44.19667" lon="6.44425">
        <ele>1841</ele>
        <time>2020-10-08T11:32:30+02:00</time>
      </trkpt>
      <trkpt lat="44.1966" lon="6.44434">
        <ele>1844</ele>
        <time>2020-10-08T11:32:47+02:00</time>
      </trkpt>
      <trkpt lat="44.19653" lon="6.44442">
        <ele>1848</ele>
        <time>2020-10-08T11:33:01+02:00</time>
      </trkpt>
      <trkpt lat="44.19645" lon="6.4445">
        <ele>1850</ele>
        <time>2020-10-08T11:33:16+02:00</time>
      </trkpt>
      <trkpt lat="44.19638" lon="6.44451">
        <ele>1853</ele>
        <time>2020-10-08T11:33:33+02:00</time>
      </trkpt>
      <trkpt lat="44.19633" lon="6.44453">
        <ele>1854</ele>
        <time>2020-10-08T11:33:49+02:00</time>
      </trkpt>
      <trkpt lat="44.1963" lon="6.44453">
        <ele>1855</ele>
        <time>2020-10-08T11:34:09+02:00</time>
      </trkpt>
      <trkpt lat="44.19624" lon="6.44457">
        <ele>1857</ele>
        <time>2020-10-08T11:34:29+02:00</time>
      </trkpt>
      <trkpt lat="44.19616" lon="6.44454">
        <ele>1861</ele>
        <time>2020-10-08T11:34:46+02:00</time>
      </trkpt>
      <trkpt lat="44.19604" lon="6.44454">
        <ele>1864</ele>
        <time>2020-10-08T11:35:04+02:00</time>
      </trkpt>
      <trkpt lat="44.19594" lon="6.44453">
        <ele>1866</ele>
        <time>2020-10-08T11:35:20+02:00</time>
      </trkpt>
      <trkpt lat="44.19586" lon="6.44453">
        <ele>1867</ele>
        <time>2020-10-08T11:35:36+02:00</time>
      </trkpt>
      <trkpt lat="44.19582" lon="6.44458">
        <ele>1869</ele>
        <time>2020-10-08T11:35:51+02:00</time>
      </trkpt>
      <trkpt lat="44.19577" lon="6.44463">
        <ele>1871</ele>
        <time>2020-10-08T11:36:08+02:00</time>
      </trkpt>
      <trkpt lat="44.19572" lon="6.44471">
        <ele>1874</ele>
        <time>2020-10-08T11:36:26+02:00</time>
      </trkpt>
      <trkpt lat="44.19566" lon="6.44476">
        <ele>1876</ele>
        <time>2020-10-08T11:36:45+02:00</time>
      </trkpt>
      <trkpt lat="44.19559" lon="6.44482">
        <ele>1877</ele>
        <time>2020-10-08T11:37:02+02:00</time>
      </trkpt>
      <trkpt lat="44.19555" lon="6.44482">
        <ele>1878</ele>
        <time>2020-10-08T11:37:16+02:00</time>
      </trkpt>
      <trkpt lat="44.19555" lon="6.44483">
        <ele>1878</ele>
        <time>2020-10-08T11:37:36+02:00</time>
      </trkpt>
      <trkpt lat="44.19557" lon="6.44483">
        <ele>1878</ele>
        <time>2020-10-08T11:37:56+02:00</time>
      </trkpt>
      <trkpt lat="44.19557" lon="6.4448">
        <ele>1878</ele>
        <time>2020-10-08T11:38:26+02:00</time>
      </trkpt>
      <trkpt lat="44.19558" lon="6.44479">
        <ele>1878</ele>
        <time>2020-10-08T11:38:58+02:00</time>
      </trkpt>
      <trkpt lat="44.19556" lon="6.44478">
        <ele>1878</ele>
        <time>2020-10-08T11:39:23+02:00</time>
      </trkpt>
      <trkpt lat="44.19549" lon="6.44484">
        <ele>1879</ele>
        <time>2020-10-08T11:39:46+02:00</time>
      </trkpt>
      <trkpt lat="44.1954" lon="6.44488">
        <ele>1881</ele>
        <time>2020-10-08T11:40:01+02:00</time>
      </trkpt>
      <trkpt lat="44.19531" lon="6.44483">
        <ele>1883</ele>
        <time>2020-10-08T11:40:19+02:00</time>
      </trkpt>
      <trkpt lat="44.19522" lon="6.44481">
        <ele>1885</ele>
        <time>2020-10-08T11:40:36+02:00</time>
      </trkpt>
      <trkpt lat="44.19512" lon="6.44483">
        <ele>1887</ele>
        <time>2020-10-08T11:40:51+02:00</time>
      </trkpt>
      <trkpt lat="44.19501" lon="6.44479">
        <ele>1889</ele>
        <time>2020-10-08T11:41:11+02:00</time>
      </trkpt>
      <trkpt lat="44.19489" lon="6.44476">
        <ele>1890</ele>
        <time>2020-10-08T11:41:29+02:00</time>
      </trkpt>
      <trkpt lat="44.19475" lon="6.44477">
        <ele>1891</ele>
        <time>2020-10-08T11:41:47+02:00</time>
      </trkpt>
      <trkpt lat="44.1946" lon="6.44476">
        <ele>1892</ele>
        <time>2020-10-08T11:42:04+02:00</time>
      </trkpt>
      <trkpt lat="44.19444" lon="6.44476">
        <ele>1893</ele>
        <time>2020-10-08T11:42:20+02:00</time>
      </trkpt>
      <trkpt lat="44.1944" lon="6.44477">
        <ele>1894</ele>
        <time>2020-10-08T11:42:24+02:00</time>
      </trkpt>
      <trkpt lat="44.19427" lon="6.44485">
        <ele>1898</ele>
        <time>2020-10-08T11:42:41+02:00</time>
      </trkpt>
      <trkpt lat="44.19427" lon="6.44486">
        <ele>1898</ele>
        <time>2020-10-08T11:42:42+02:00</time>
      </trkpt>
      <trkpt lat="44.19417" lon="6.4449">
        <ele>1901</ele>
        <time>2020-10-08T11:42:58+02:00</time>
      </trkpt>
      <trkpt lat="44.19408" lon="6.44493">
        <ele>1902</ele>
        <time>2020-10-08T11:43:16+02:00</time>
      </trkpt>
      <trkpt lat="44.19401" lon="6.44499">
        <ele>1904</ele>
        <time>2020-10-08T11:43:32+02:00</time>
      </trkpt>
      <trkpt lat="44.19398" lon="6.44514">
        <ele>1907</ele>
        <time>2020-10-08T11:43:50+02:00</time>
      </trkpt>
      <trkpt lat="44.1939" lon="6.44529">
        <ele>1911</ele>
        <time>2020-10-08T11:44:10+02:00</time>
      </trkpt>
      <trkpt lat="44.19384" lon="6.44543">
        <ele>1912</ele>
        <time>2020-10-08T11:44:29+02:00</time>
      </trkpt>
      <trkpt lat="44.19379" lon="6.44556">
        <ele>1914</ele>
        <time>2020-10-08T11:44:46+02:00</time>
      </trkpt>
      <trkpt lat="44.19371" lon="6.44566">
        <ele>1916</ele>
        <time>2020-10-08T11:45:03+02:00</time>
      </trkpt>
      <trkpt lat="44.19362" lon="6.44575">
        <ele>1919</ele>
        <time>2020-10-08T11:45:21+02:00</time>
      </trkpt>
      <trkpt lat="44.19353" lon="6.44583">
        <ele>1922</ele>
        <time>2020-10-08T11:45:38+02:00</time>
      </trkpt>
      <trkpt lat="44.19343" lon="6.44586">
        <ele>1925</ele>
        <time>2020-10-08T11:45:54+02:00</time>
      </trkpt>
      <trkpt lat="44.19333" lon="6.44597">
        <ele>1927</ele>
        <time>2020-10-08T11:46:13+02:00</time>
      </trkpt>
      <trkpt lat="44.19319" lon="6.44605">
        <ele>1929</ele>
        <time>2020-10-08T11:46:33+02:00</time>
      </trkpt>
      <trkpt lat="44.19307" lon="6.44613">
        <ele>1932</ele>
        <time>2020-10-08T11:46:51+02:00</time>
      </trkpt>
      <trkpt lat="44.19293" lon="6.44616">
        <ele>1935</ele>
        <time>2020-10-08T11:47:10+02:00</time>
      </trkpt>
      <trkpt lat="44.19281" lon="6.44626">
        <ele>1936</ele>
        <time>2020-10-08T11:47:30+02:00</time>
      </trkpt>
      <trkpt lat="44.19269" lon="6.44629">
        <ele>1937</ele>
        <time>2020-10-08T11:47:46+02:00</time>
      </trkpt>
      <trkpt lat="44.19254" lon="6.44634">
        <ele>1938</ele>
        <time>2020-10-08T11:48:03+02:00</time>
      </trkpt>
      <trkpt lat="44.19237" lon="6.44641">
        <ele>1938</ele>
        <time>2020-10-08T11:48:22+02:00</time>
      </trkpt>
      <trkpt lat="44.19224" lon="6.44646">
        <ele>1938</ele>
        <time>2020-10-08T11:48:38+02:00</time>
      </trkpt>
      <trkpt lat="44.19221" lon="6.44646">
        <ele>1938</ele>
        <time>2020-10-08T11:48:41+02:00</time>
      </trkpt>
      <trkpt lat="44.19215" lon="6.44649">
        <ele>1937</ele>
        <time>2020-10-08T11:48:48+02:00</time>
      </trkpt>
      <trkpt lat="44.19207" lon="6.44653">
        <ele>1936</ele>
        <time>2020-10-08T11:48:58+02:00</time>
      </trkpt>
      <trkpt lat="44.19198" lon="6.44662">
        <ele>1938</ele>
        <time>2020-10-08T11:49:16+02:00</time>
      </trkpt>
      <trkpt lat="44.19196" lon="6.44664">
        <ele>1939</ele>
        <time>2020-10-08T11:49:20+02:00</time>
      </trkpt>
      <trkpt lat="44.19189" lon="6.44672">
        <ele>1939</ele>
        <time>2020-10-08T11:49:36+02:00</time>
      </trkpt>
      <trkpt lat="44.19189" lon="6.44671">
        <ele>1939</ele>
        <time>2020-10-08T11:49:59+02:00</time>
      </trkpt>
      <trkpt lat="44.19189" lon="6.44672">
        <ele>1939</ele>
        <time>2020-10-08T11:50:34+02:00</time>
      </trkpt>
      <trkpt lat="44.19187" lon="6.44671">
        <ele>1939</ele>
        <time>2020-10-08T11:50:56+02:00</time>
      </trkpt>
      <trkpt lat="44.19182" lon="6.44677">
        <ele>1938</ele>
        <time>2020-10-08T11:51:16+02:00</time>
      </trkpt>
      <trkpt lat="44.19179" lon="6.44681">
        <ele>1938</ele>
        <time>2020-10-08T11:51:21+02:00</time>
      </trkpt>
      <trkpt lat="44.19171" lon="6.44684">
        <ele>1938</ele>
        <time>2020-10-08T11:51:29+02:00</time>
      </trkpt>
      <trkpt lat="44.19157" lon="6.44696">
        <ele>1939</ele>
        <time>2020-10-08T11:51:45+02:00</time>
      </trkpt>
      <trkpt lat="44.19153" lon="6.44698">
        <ele>1939</ele>
        <time>2020-10-08T11:51:51+02:00</time>
      </trkpt>
      <trkpt lat="44.19149" lon="6.44703">
        <ele>1939</ele>
        <time>2020-10-08T11:51:55+02:00</time>
      </trkpt>
      <trkpt lat="44.19144" lon="6.44707">
        <ele>1939</ele>
        <time>2020-10-08T11:52:00+02:00</time>
      </trkpt>
      <trkpt lat="44.19132" lon="6.44717">
        <ele>1939</ele>
        <time>2020-10-08T11:52:14+02:00</time>
      </trkpt>
      <trkpt lat="44.19129" lon="6.44719">
        <ele>1939</ele>
        <time>2020-10-08T11:52:17+02:00</time>
      </trkpt>
      <trkpt lat="44.19112" lon="6.44726">
        <ele>1938</ele>
        <time>2020-10-08T11:52:33+02:00</time>
      </trkpt>
      <trkpt lat="44.19096" lon="6.44734">
        <ele>1935</ele>
        <time>2020-10-08T11:52:50+02:00</time>
      </trkpt>
      <trkpt lat="44.19091" lon="6.44744">
        <ele>1935</ele>
        <time>2020-10-08T11:52:58+02:00</time>
      </trkpt>
      <trkpt lat="44.19082" lon="6.44755">
        <ele>1935</ele>
        <time>2020-10-08T11:53:10+02:00</time>
      </trkpt>
      <trkpt lat="44.19081" lon="6.44758">
        <ele>1935</ele>
        <time>2020-10-08T11:53:12+02:00</time>
      </trkpt>
      <trkpt lat="44.19078" lon="6.44769">
        <ele>1935</ele>
        <time>2020-10-08T11:53:25+02:00</time>
      </trkpt>
      <trkpt lat="44.19073" lon="6.44791">
        <ele>1936</ele>
        <time>2020-10-08T11:53:41+02:00</time>
      </trkpt>
      <trkpt lat="44.19072" lon="6.44795">
        <ele>1937</ele>
        <time>2020-10-08T11:53:45+02:00</time>
      </trkpt>
      <trkpt lat="44.19065" lon="6.44816">
        <ele>1938</ele>
        <time>2020-10-08T11:54:02+02:00</time>
      </trkpt>
      <trkpt lat="44.19055" lon="6.44839">
        <ele>1939</ele>
        <time>2020-10-08T11:54:20+02:00</time>
      </trkpt>
      <trkpt lat="44.19042" lon="6.44856">
        <ele>1939</ele>
        <time>2020-10-08T11:54:36+02:00</time>
      </trkpt>
      <trkpt lat="44.1903" lon="6.44872">
        <ele>1943</ele>
        <time>2020-10-08T11:54:52+02:00</time>
      </trkpt>
      <trkpt lat="44.19027" lon="6.4488">
        <ele>1945</ele>
        <time>2020-10-08T11:55:02+02:00</time>
      </trkpt>
      <trkpt lat="44.1902" lon="6.44896">
        <ele>1947</ele>
        <time>2020-10-08T11:55:16+02:00</time>
      </trkpt>
      <trkpt lat="44.19015" lon="6.44903">
        <ele>1948</ele>
        <time>2020-10-08T11:55:24+02:00</time>
      </trkpt>
      <trkpt lat="44.19013" lon="6.44906">
        <ele>1948</ele>
        <time>2020-10-08T11:55:27+02:00</time>
      </trkpt>
      <trkpt lat="44.19003" lon="6.44918">
        <ele>1951</ele>
        <time>2020-10-08T11:55:42+02:00</time>
      </trkpt>
      <trkpt lat="44.18996" lon="6.44924">
        <ele>1951</ele>
        <time>2020-10-08T11:55:52+02:00</time>
      </trkpt>
      <trkpt lat="44.18992" lon="6.44927">
        <ele>1952</ele>
        <time>2020-10-08T11:55:57+02:00</time>
      </trkpt>
      <trkpt lat="44.18981" lon="6.44943">
        <ele>1955</ele>
        <time>2020-10-08T11:56:15+02:00</time>
      </trkpt>
      <trkpt lat="44.18974" lon="6.44958">
        <ele>1957</ele>
        <time>2020-10-08T11:56:28+02:00</time>
      </trkpt>
      <trkpt lat="44.18971" lon="6.44963">
        <ele>1958</ele>
        <time>2020-10-08T11:56:32+02:00</time>
      </trkpt>
      <trkpt lat="44.18959" lon="6.44976">
        <ele>1957</ele>
        <time>2020-10-08T11:56:47+02:00</time>
      </trkpt>
      <trkpt lat="44.18947" lon="6.44991">
        <ele>1958</ele>
        <time>2020-10-08T11:57:03+02:00</time>
      </trkpt>
      <trkpt lat="44.18934" lon="6.45008">
        <ele>1956</ele>
        <time>2020-10-08T11:57:20+02:00</time>
      </trkpt>
      <trkpt lat="44.18923" lon="6.45024">
        <ele>1957</ele>
        <time>2020-10-08T11:57:35+02:00</time>
      </trkpt>
      <trkpt lat="44.18917" lon="6.45034">
        <ele>1958</ele>
        <time>2020-10-08T11:57:44+02:00</time>
      </trkpt>
      <trkpt lat="44.18906" lon="6.45049">
        <ele>1957</ele>
        <time>2020-10-08T11:58:00+02:00</time>
      </trkpt>
      <trkpt lat="44.18896" lon="6.45061">
        <ele>1958</ele>
        <time>2020-10-08T11:58:13+02:00</time>
      </trkpt>
      <trkpt lat="44.18893" lon="6.45065">
        <ele>1959</ele>
        <time>2020-10-08T11:58:17+02:00</time>
      </trkpt>
      <trkpt lat="44.1889" lon="6.4507">
        <ele>1960</ele>
        <time>2020-10-08T11:58:23+02:00</time>
      </trkpt>
      <trkpt lat="44.18882" lon="6.45081">
        <ele>1963</ele>
        <time>2020-10-08T11:58:38+02:00</time>
      </trkpt>
      <trkpt lat="44.18876" lon="6.45089">
        <ele>1964</ele>
        <time>2020-10-08T11:58:53+02:00</time>
      </trkpt>
      <trkpt lat="44.18869" lon="6.45097">
        <ele>1967</ele>
        <time>2020-10-08T11:59:09+02:00</time>
      </trkpt>
      <trkpt lat="44.18866" lon="6.45101">
        <ele>1969</ele>
        <time>2020-10-08T11:59:25+02:00</time>
      </trkpt>
      <trkpt lat="44.18865" lon="6.45103">
        <ele>1970</ele>
        <time>2020-10-08T11:59:45+02:00</time>
      </trkpt>
      <trkpt lat="44.18865" lon="6.45102">
        <ele>1970</ele>
        <time>2020-10-08T12:00:01+02:00</time>
      </trkpt>
      <trkpt lat="44.18863" lon="6.4511">
        <ele>1974</ele>
        <time>2020-10-08T12:00:20+02:00</time>
      </trkpt>
      <trkpt lat="44.18857" lon="6.45114">
        <ele>1975</ele>
        <time>2020-10-08T12:00:35+02:00</time>
      </trkpt>
      <trkpt lat="44.1885" lon="6.45121">
        <ele>1976</ele>
        <time>2020-10-08T12:00:51+02:00</time>
      </trkpt>
      <trkpt lat="44.18842" lon="6.45128">
        <ele>1979</ele>
        <time>2020-10-08T12:01:08+02:00</time>
      </trkpt>
      <trkpt lat="44.18836" lon="6.45136">
        <ele>1982</ele>
        <time>2020-10-08T12:01:24+02:00</time>
      </trkpt>
      <trkpt lat="44.18832" lon="6.45143">
        <ele>1984</ele>
        <time>2020-10-08T12:01:39+02:00</time>
      </trkpt>
      <trkpt lat="44.18832" lon="6.45145">
        <ele>1984</ele>
        <time>2020-10-08T12:01:56+02:00</time>
      </trkpt>
      <trkpt lat="44.18831" lon="6.45145">
        <ele>1984</ele>
        <time>2020-10-08T12:02:20+02:00</time>
      </trkpt>
      <trkpt lat="44.18829" lon="6.45149">
        <ele>1984</ele>
        <time>2020-10-08T12:02:45+02:00</time>
      </trkpt>
      <trkpt lat="44.18826" lon="6.45163">
        <ele>1986</ele>
        <time>2020-10-08T12:03:00+02:00</time>
      </trkpt>
      <trkpt lat="44.18823" lon="6.45174">
        <ele>1988</ele>
        <time>2020-10-08T12:03:14+02:00</time>
      </trkpt>
      <trkpt lat="44.18819" lon="6.45187">
        <ele>1990</ele>
        <time>2020-10-08T12:03:31+02:00</time>
      </trkpt>
      <trkpt lat="44.18814" lon="6.45204">
        <ele>1994</ele>
        <time>2020-10-08T12:03:50+02:00</time>
      </trkpt>
      <trkpt lat="44.1881" lon="6.45214">
        <ele>1997</ele>
        <time>2020-10-08T12:04:05+02:00</time>
      </trkpt>
      <trkpt lat="44.18806" lon="6.45226">
        <ele>2001</ele>
        <time>2020-10-08T12:04:20+02:00</time>
      </trkpt>
      <trkpt lat="44.18798" lon="6.45237">
        <ele>2002</ele>
        <time>2020-10-08T12:04:37+02:00</time>
      </trkpt>
      <trkpt lat="44.1879" lon="6.45246">
        <ele>2004</ele>
        <time>2020-10-08T12:04:53+02:00</time>
      </trkpt>
      <trkpt lat="44.18779" lon="6.45258">
        <ele>2007</ele>
        <time>2020-10-08T12:05:13+02:00</time>
      </trkpt>
      <trkpt lat="44.18768" lon="6.45269">
        <ele>2008</ele>
        <time>2020-10-08T12:05:33+02:00</time>
      </trkpt>
      <trkpt lat="44.18758" lon="6.45278">
        <ele>2009</ele>
        <time>2020-10-08T12:05:50+02:00</time>
      </trkpt>
      <trkpt lat="44.18744" lon="6.45294">
        <ele>2010</ele>
        <time>2020-10-08T12:06:10+02:00</time>
      </trkpt>
      <trkpt lat="44.18734" lon="6.45304">
        <ele>2012</ele>
        <time>2020-10-08T12:06:26+02:00</time>
      </trkpt>
      <trkpt lat="44.18725" lon="6.45316">
        <ele>2014</ele>
        <time>2020-10-08T12:06:41+02:00</time>
      </trkpt>
      <trkpt lat="44.18715" lon="6.45324">
        <ele>2015</ele>
        <time>2020-10-08T12:06:57+02:00</time>
      </trkpt>
      <trkpt lat="44.18705" lon="6.45333">
        <ele>2016</ele>
        <time>2020-10-08T12:07:12+02:00</time>
      </trkpt>
      <trkpt lat="44.18694" lon="6.45345">
        <ele>2017</ele>
        <time>2020-10-08T12:07:29+02:00</time>
      </trkpt>
      <trkpt lat="44.18684" lon="6.4536">
        <ele>2018</ele>
        <time>2020-10-08T12:07:47+02:00</time>
      </trkpt>
      <trkpt lat="44.18683" lon="6.45361">
        <ele>2018</ele>
        <time>2020-10-08T12:07:49+02:00</time>
      </trkpt>
      <trkpt lat="44.18673" lon="6.45374">
        <ele>2020</ele>
        <time>2020-10-08T12:08:06+02:00</time>
      </trkpt>
      <trkpt lat="44.18666" lon="6.45387">
        <ele>2023</ele>
        <time>2020-10-08T12:08:22+02:00</time>
      </trkpt>
      <trkpt lat="44.1866" lon="6.45399">
        <ele>2024</ele>
        <time>2020-10-08T12:08:36+02:00</time>
      </trkpt>
      <trkpt lat="44.18655" lon="6.45407">
        <ele>2025</ele>
        <time>2020-10-08T12:08:51+02:00</time>
      </trkpt>
      <trkpt lat="44.18654" lon="6.45406">
        <ele>2025</ele>
        <time>2020-10-08T12:09:05+02:00</time>
      </trkpt>
      <trkpt lat="44.18653" lon="6.45405">
        <ele>2025</ele>
        <time>2020-10-08T12:09:27+02:00</time>
      </trkpt>
      <trkpt lat="44.18655" lon="6.45405">
        <ele>2025</ele>
        <time>2020-10-08T12:09:52+02:00</time>
      </trkpt>
      <trkpt lat="44.18654" lon="6.45406">
        <ele>2025</ele>
        <time>2020-10-08T12:10:14+02:00</time>
      </trkpt>
      <trkpt lat="44.1865" lon="6.45405">
        <ele>2025</ele>
        <time>2020-10-08T12:10:28+02:00</time>
      </trkpt>
      <trkpt lat="44.18649" lon="6.45407">
        <ele>2026</ele>
        <time>2020-10-08T12:10:49+02:00</time>
      </trkpt>
      <trkpt lat="44.18648" lon="6.45408">
        <ele>2026</ele>
        <time>2020-10-08T12:11:18+02:00</time>
      </trkpt>
      <trkpt lat="44.18631" lon="6.45421">
        <ele>2028</ele>
        <time>2020-10-08T12:11:39+02:00</time>
      </trkpt>
      <trkpt lat="44.18612" lon="6.45438">
        <ele>2029</ele>
        <time>2020-10-08T12:12:00+02:00</time>
      </trkpt>
      <trkpt lat="44.18595" lon="6.45456">
        <ele>2029</ele>
        <time>2020-10-08T12:12:21+02:00</time>
      </trkpt>
      <trkpt lat="44.1858" lon="6.45475">
        <ele>2031</ele>
        <time>2020-10-08T12:12:41+02:00</time>
      </trkpt>
      <trkpt lat="44.18569" lon="6.45492">
        <ele>2032</ele>
        <time>2020-10-08T12:12:59+02:00</time>
      </trkpt>
      <trkpt lat="44.1856" lon="6.45512">
        <ele>2036</ele>
        <time>2020-10-08T12:13:18+02:00</time>
      </trkpt>
      <trkpt lat="44.18552" lon="6.45529">
        <ele>2038</ele>
        <time>2020-10-08T12:13:37+02:00</time>
      </trkpt>
      <trkpt lat="44.18543" lon="6.45547">
        <ele>2040</ele>
        <time>2020-10-08T12:13:57+02:00</time>
      </trkpt>
      <trkpt lat="44.18534" lon="6.45563">
        <ele>2043</ele>
        <time>2020-10-08T12:14:16+02:00</time>
      </trkpt>
      <trkpt lat="44.18525" lon="6.45577">
        <ele>2046</ele>
        <time>2020-10-08T12:14:34+02:00</time>
      </trkpt>
      <trkpt lat="44.18517" lon="6.45587">
        <ele>2047</ele>
        <time>2020-10-08T12:14:49+02:00</time>
      </trkpt>
      <trkpt lat="44.18505" lon="6.45601">
        <ele>2050</ele>
        <time>2020-10-08T12:15:09+02:00</time>
      </trkpt>
      <trkpt lat="44.18495" lon="6.45614">
        <ele>2053</ele>
        <time>2020-10-08T12:15:28+02:00</time>
      </trkpt>
      <trkpt lat="44.18488" lon="6.45625">
        <ele>2054</ele>
        <time>2020-10-08T12:15:44+02:00</time>
      </trkpt>
      <trkpt lat="44.1848" lon="6.45636">
        <ele>2056</ele>
        <time>2020-10-08T12:16:01+02:00</time>
      </trkpt>
      <trkpt lat="44.1847" lon="6.45651">
        <ele>2057</ele>
        <time>2020-10-08T12:16:19+02:00</time>
      </trkpt>
      <trkpt lat="44.18459" lon="6.45667">
        <ele>2057</ele>
        <time>2020-10-08T12:16:37+02:00</time>
      </trkpt>
      <trkpt lat="44.18448" lon="6.45685">
        <ele>2060</ele>
        <time>2020-10-08T12:16:56+02:00</time>
      </trkpt>
      <trkpt lat="44.18437" lon="6.45702">
        <ele>2060</ele>
        <time>2020-10-08T12:17:13+02:00</time>
      </trkpt>
      <trkpt lat="44.18421" lon="6.45722">
        <ele>2059</ele>
        <time>2020-10-08T12:17:35+02:00</time>
      </trkpt>
      <trkpt lat="44.18408" lon="6.45741">
        <ele>2059</ele>
        <time>2020-10-08T12:17:55+02:00</time>
      </trkpt>
      <trkpt lat="44.18399" lon="6.45753">
        <ele>2059</ele>
        <time>2020-10-08T12:18:12+02:00</time>
      </trkpt>
      <trkpt lat="44.18388" lon="6.45764">
        <ele>2059</ele>
        <time>2020-10-08T12:18:29+02:00</time>
      </trkpt>
      <trkpt lat="44.18379" lon="6.45771">
        <ele>2059</ele>
        <time>2020-10-08T12:18:41+02:00</time>
      </trkpt>
      <trkpt lat="44.18371" lon="6.45775">
        <ele>2059</ele>
        <time>2020-10-08T12:18:49+02:00</time>
      </trkpt>
      <trkpt lat="44.18361" lon="6.4578">
        <ele>2059</ele>
        <time>2020-10-08T12:19:00+02:00</time>
      </trkpt>
      <trkpt lat="44.18345" lon="6.45784">
        <ele>2058</ele>
        <time>2020-10-08T12:19:17+02:00</time>
      </trkpt>
      <trkpt lat="44.18342" lon="6.45786">
        <ele>2058</ele>
        <time>2020-10-08T12:19:21+02:00</time>
      </trkpt>
      <trkpt lat="44.18331" lon="6.45793">
        <ele>2059</ele>
        <time>2020-10-08T12:19:33+02:00</time>
      </trkpt>
      <trkpt lat="44.18322" lon="6.458">
        <ele>2061</ele>
        <time>2020-10-08T12:19:48+02:00</time>
      </trkpt>
      <trkpt lat="44.18314" lon="6.4581">
        <ele>2064</ele>
        <time>2020-10-08T12:20:05+02:00</time>
      </trkpt>
      <trkpt lat="44.18308" lon="6.45821">
        <ele>2067</ele>
        <time>2020-10-08T12:20:21+02:00</time>
      </trkpt>
      <trkpt lat="44.183" lon="6.45834">
        <ele>2070</ele>
        <time>2020-10-08T12:20:38+02:00</time>
      </trkpt>
      <trkpt lat="44.18292" lon="6.45839">
        <ele>2070</ele>
        <time>2020-10-08T12:20:54+02:00</time>
      </trkpt>
      <trkpt lat="44.18281" lon="6.45855">
        <ele>2076</ele>
        <time>2020-10-08T12:21:13+02:00</time>
      </trkpt>
      <trkpt lat="44.18271" lon="6.45869">
        <ele>2077</ele>
        <time>2020-10-08T12:21:31+02:00</time>
      </trkpt>
      <trkpt lat="44.18263" lon="6.4588">
        <ele>2077</ele>
        <time>2020-10-08T12:21:46+02:00</time>
      </trkpt>
      <trkpt lat="44.18252" lon="6.45891">
        <ele>2081</ele>
        <time>2020-10-08T12:22:05+02:00</time>
      </trkpt>
      <trkpt lat="44.18241" lon="6.45905">
        <ele>2082</ele>
        <time>2020-10-08T12:22:24+02:00</time>
      </trkpt>
      <trkpt lat="44.18232" lon="6.45914">
        <ele>2085</ele>
        <time>2020-10-08T12:22:39+02:00</time>
      </trkpt>
      <trkpt lat="44.1822" lon="6.45923">
        <ele>2089</ele>
        <time>2020-10-08T12:22:58+02:00</time>
      </trkpt>
      <trkpt lat="44.18211" lon="6.45931">
        <ele>2091</ele>
        <time>2020-10-08T12:23:18+02:00</time>
      </trkpt>
      <trkpt lat="44.18206" lon="6.45939">
        <ele>2095</ele>
        <time>2020-10-08T12:23:37+02:00</time>
      </trkpt>
      <trkpt lat="44.18204" lon="6.45941">
        <ele>2096</ele>
        <time>2020-10-08T12:24:13+02:00</time>
      </trkpt>
      <trkpt lat="44.18199" lon="6.45949">
        <ele>2099</ele>
        <time>2020-10-08T12:24:27+02:00</time>
      </trkpt>
      <trkpt lat="44.18193" lon="6.45955">
        <ele>2102</ele>
        <time>2020-10-08T12:24:40+02:00</time>
      </trkpt>
      <trkpt lat="44.18187" lon="6.45956">
        <ele>2103</ele>
        <time>2020-10-08T12:24:56+02:00</time>
      </trkpt>
      <trkpt lat="44.18184" lon="6.45965">
        <ele>2105</ele>
        <time>2020-10-08T12:25:16+02:00</time>
      </trkpt>
      <trkpt lat="44.18177" lon="6.45975">
        <ele>2108</ele>
        <time>2020-10-08T12:25:32+02:00</time>
      </trkpt>
      <trkpt lat="44.18173" lon="6.45983">
        <ele>2110</ele>
        <time>2020-10-08T12:25:50+02:00</time>
      </trkpt>
      <trkpt lat="44.18166" lon="6.45992">
        <ele>2113</ele>
        <time>2020-10-08T12:26:08+02:00</time>
      </trkpt>
      <trkpt lat="44.18163" lon="6.45994">
        <ele>2113</ele>
        <time>2020-10-08T12:26:24+02:00</time>
      </trkpt>
      <trkpt lat="44.18159" lon="6.46">
        <ele>2114</ele>
        <time>2020-10-08T12:26:39+02:00</time>
      </trkpt>
      <trkpt lat="44.1815" lon="6.46002">
        <ele>2115</ele>
        <time>2020-10-08T12:26:55+02:00</time>
      </trkpt>
      <trkpt lat="44.18149" lon="6.46001">
        <ele>2115</ele>
        <time>2020-10-08T12:27:11+02:00</time>
      </trkpt>
      <trkpt lat="44.18149" lon="6.46006">
        <ele>2116</ele>
        <time>2020-10-08T12:27:30+02:00</time>
      </trkpt>
      <trkpt lat="44.1815" lon="6.46004">
        <ele>2115</ele>
        <time>2020-10-08T12:27:46+02:00</time>
      </trkpt>
      <trkpt lat="44.18155" lon="6.45995">
        <ele>2114</ele>
        <time>2020-10-08T12:28:00+02:00</time>
      </trkpt>
      <trkpt lat="44.1815" lon="6.45999">
        <ele>2115</ele>
        <time>2020-10-08T12:28:19+02:00</time>
      </trkpt>
      <trkpt lat="44.18148" lon="6.46002">
        <ele>2115</ele>
        <time>2020-10-08T12:28:34+02:00</time>
      </trkpt>
      <trkpt lat="44.18149" lon="6.46004">
        <ele>2116</ele>
        <time>2020-10-08T12:28:56+02:00</time>
      </trkpt>
      <trkpt lat="44.18149" lon="6.46005">
        <ele>2116</ele>
        <time>2020-10-08T12:29:10+02:00</time>
      </trkpt>
      <trkpt lat="44.18146" lon="6.46011">
        <ele>2116</ele>
        <time>2020-10-08T12:29:15+02:00</time>
      </trkpt>
      <trkpt lat="44.18134" lon="6.46029">
        <ele>2119</ele>
        <time>2020-10-08T12:29:34+02:00</time>
      </trkpt>
      <trkpt lat="44.18121" lon="6.46048">
        <ele>2118</ele>
        <time>2020-10-08T12:29:53+02:00</time>
      </trkpt>
      <trkpt lat="44.18103" lon="6.46067">
        <ele>2118</ele>
        <time>2020-10-08T12:30:13+02:00</time>
      </trkpt>
      <trkpt lat="44.18096" lon="6.4608">
        <ele>2119</ele>
        <time>2020-10-08T12:30:31+02:00</time>
      </trkpt>
      <trkpt lat="44.18096" lon="6.46081">
        <ele>2119</ele>
        <time>2020-10-08T12:30:49+02:00</time>
      </trkpt>
      <trkpt lat="44.18096" lon="6.46082">
        <ele>2119</ele>
        <time>2020-10-08T12:31:05+02:00</time>
      </trkpt>
      <trkpt lat="44.18097" lon="6.46082">
        <ele>2119</ele>
        <time>2020-10-08T12:31:14+02:00</time>
      </trkpt>
      <trkpt lat="44.18097" lon="6.46082">
        <ele>2119</ele>
        <time>2020-10-08T12:31:17+02:00</time>
      </trkpt>
      <trkpt lat="44.18096" lon="6.46081">
        <ele>2119</ele>
        <time>2020-10-08T12:31:38+02:00</time>
      </trkpt>
      <trkpt lat="44.18096" lon="6.46081">
        <ele>2119</ele>
        <time>2020-10-08T12:31:45+02:00</time>
      </trkpt>
      <trkpt lat="44.18096" lon="6.46081">
        <ele>2119</ele>
        <time>2020-10-08T13:13:00+02:00</time>
      </trkpt>
      <trkpt lat="44.18096" lon="6.46081">
        <ele>2119</ele>
        <time>2020-10-08T13:13:01+02:00</time>
      </trkpt>
      <trkpt lat="44.18097" lon="6.46084">
        <ele>2119</ele>
        <time>2020-10-08T13:13:17+02:00</time>
      </trkpt>
      <trkpt lat="44.18096" lon="6.4608">
        <ele>2119</ele>
        <time>2020-10-08T13:17:52+02:00</time>
      </trkpt>
      <trkpt lat="44.18096" lon="6.4608">
        <ele>2119</ele>
        <time>2020-10-08T13:17:53+02:00</time>
      </trkpt>
      <trkpt lat="44.18095" lon="6.46082">
        <ele>2119</ele>
        <time>2020-10-08T13:18:14+02:00</time>
      </trkpt>
      <trkpt lat="44.18095" lon="6.46081">
        <ele>2119</ele>
        <time>2020-10-08T13:18:32+02:00</time>
      </trkpt>
      <trkpt lat="44.18095" lon="6.46081">
        <ele>2119</ele>
        <time>2020-10-08T13:18:55+02:00</time>
      </trkpt>
      <trkpt lat="44.18094" lon="6.46082">
        <ele>2119</ele>
        <time>2020-10-08T13:19:04+02:00</time>
      </trkpt>
      <trkpt lat="44.18095" lon="6.46083">
        <ele>2119</ele>
        <time>2020-10-08T13:19:26+02:00</time>
      </trkpt>
      <trkpt lat="44.18096" lon="6.46083">
        <ele>2119</ele>
        <time>2020-10-08T13:19:31+02:00</time>
      </trkpt>
      <trkpt lat="44.18096" lon="6.46083">
        <ele>2119</ele>
        <time>2020-10-08T13:19:33+02:00</time>
      </trkpt>
      <trkpt lat="44.18086" lon="6.4609">
        <ele>2119</ele>
        <time>2020-10-08T13:19:48+02:00</time>
      </trkpt>
      <trkpt lat="44.18085" lon="6.46092">
        <ele>2119</ele>
        <time>2020-10-08T13:19:50+02:00</time>
      </trkpt>
      <trkpt lat="44.18079" lon="6.46099">
        <ele>2119</ele>
        <time>2020-10-08T13:20:07+02:00</time>
      </trkpt>
      <trkpt lat="44.18065" lon="6.46119">
        <ele>2118</ele>
        <time>2020-10-08T13:20:26+02:00</time>
      </trkpt>
      <trkpt lat="44.18062" lon="6.46123">
        <ele>2118</ele>
        <time>2020-10-08T13:20:29+02:00</time>
      </trkpt>
      <trkpt lat="44.18055" lon="6.46133">
        <ele>2119</ele>
        <time>2020-10-08T13:20:45+02:00</time>
      </trkpt>
      <trkpt lat="44.18043" lon="6.4615">
        <ele>2117</ele>
        <time>2020-10-08T13:21:03+02:00</time>
      </trkpt>
      <trkpt lat="44.18033" lon="6.46171">
        <ele>2118</ele>
        <time>2020-10-08T13:21:21+02:00</time>
      </trkpt>
      <trkpt lat="44.18028" lon="6.46188">
        <ele>2118</ele>
        <time>2020-10-08T13:21:34+02:00</time>
      </trkpt>
      <trkpt lat="44.18023" lon="6.46196">
        <ele>2117</ele>
        <time>2020-10-08T13:21:49+02:00</time>
      </trkpt>
      <trkpt lat="44.18023" lon="6.46204">
        <ele>2117</ele>
        <time>2020-10-08T13:22:07+02:00</time>
      </trkpt>
      <trkpt lat="44.18021" lon="6.46209">
        <ele>2116</ele>
        <time>2020-10-08T13:22:22+02:00</time>
      </trkpt>
      <trkpt lat="44.18021" lon="6.46227">
        <ele>2116</ele>
        <time>2020-10-08T13:22:36+02:00</time>
      </trkpt>
      <trkpt lat="44.18021" lon="6.4623">
        <ele>2116</ele>
        <time>2020-10-08T13:22:38+02:00</time>
      </trkpt>
      <trkpt lat="44.18016" lon="6.4625">
        <ele>2113</ele>
        <time>2020-10-08T13:22:55+02:00</time>
      </trkpt>
      <trkpt lat="44.18016" lon="6.46256">
        <ele>2112</ele>
        <time>2020-10-08T13:22:59+02:00</time>
      </trkpt>
      <trkpt lat="44.18008" lon="6.46275">
        <ele>2109</ele>
        <time>2020-10-08T13:23:17+02:00</time>
      </trkpt>
      <trkpt lat="44.18002" lon="6.46296">
        <ele>2109</ele>
        <time>2020-10-08T13:23:34+02:00</time>
      </trkpt>
      <trkpt lat="44.17997" lon="6.46322">
        <ele>2108</ele>
        <time>2020-10-08T13:23:54+02:00</time>
      </trkpt>
      <trkpt lat="44.17991" lon="6.46344">
        <ele>2107</ele>
        <time>2020-10-08T13:24:09+02:00</time>
      </trkpt>
      <trkpt lat="44.17984" lon="6.46361">
        <ele>2108</ele>
        <time>2020-10-08T13:24:24+02:00</time>
      </trkpt>
      <trkpt lat="44.17977" lon="6.46376">
        <ele>2110</ele>
        <time>2020-10-08T13:24:40+02:00</time>
      </trkpt>
      <trkpt lat="44.17969" lon="6.46391">
        <ele>2113</ele>
        <time>2020-10-08T13:24:58+02:00</time>
      </trkpt>
      <trkpt lat="44.17962" lon="6.46401">
        <ele>2113</ele>
        <time>2020-10-08T13:25:16+02:00</time>
      </trkpt>
      <trkpt lat="44.17955" lon="6.46411">
        <ele>2115</ele>
        <time>2020-10-08T13:25:31+02:00</time>
      </trkpt>
      <trkpt lat="44.1795" lon="6.46418">
        <ele>2116</ele>
        <time>2020-10-08T13:25:49+02:00</time>
      </trkpt>
      <trkpt lat="44.1795" lon="6.46418">
        <ele>2116</ele>
        <time>2020-10-08T13:26:04+02:00</time>
      </trkpt>
      <trkpt lat="44.17949" lon="6.46419">
        <ele>2116</ele>
        <time>2020-10-08T13:26:19+02:00</time>
      </trkpt>
      <trkpt lat="44.17947" lon="6.46423">
        <ele>2117</ele>
        <time>2020-10-08T13:26:33+02:00</time>
      </trkpt>
      <trkpt lat="44.17945" lon="6.46434">
        <ele>2117</ele>
        <time>2020-10-08T13:26:52+02:00</time>
      </trkpt>
      <trkpt lat="44.17937" lon="6.46453">
        <ele>2113</ele>
        <time>2020-10-08T13:27:10+02:00</time>
      </trkpt>
      <trkpt lat="44.17929" lon="6.46469">
        <ele>2109</ele>
        <time>2020-10-08T13:27:25+02:00</time>
      </trkpt>
      <trkpt lat="44.17921" lon="6.46486">
        <ele>2108</ele>
        <time>2020-10-08T13:27:42+02:00</time>
      </trkpt>
      <trkpt lat="44.17914" lon="6.46502">
        <ele>2107</ele>
        <time>2020-10-08T13:27:57+02:00</time>
      </trkpt>
      <trkpt lat="44.17913" lon="6.46502">
        <ele>2107</ele>
        <time>2020-10-08T13:28:19+02:00</time>
      </trkpt>
      <trkpt lat="44.17911" lon="6.4651">
        <ele>2104</ele>
        <time>2020-10-08T13:28:32+02:00</time>
      </trkpt>
      <trkpt lat="44.1791" lon="6.46516">
        <ele>2102</ele>
        <time>2020-10-08T13:28:45+02:00</time>
      </trkpt>
      <trkpt lat="44.17906" lon="6.46528">
        <ele>2099</ele>
        <time>2020-10-08T13:29:02+02:00</time>
      </trkpt>
      <trkpt lat="44.17904" lon="6.46541">
        <ele>2095</ele>
        <time>2020-10-08T13:29:18+02:00</time>
      </trkpt>
      <trkpt lat="44.17902" lon="6.46552">
        <ele>2093</ele>
        <time>2020-10-08T13:29:32+02:00</time>
      </trkpt>
      <trkpt lat="44.17901" lon="6.46561">
        <ele>2091</ele>
        <time>2020-10-08T13:29:45+02:00</time>
      </trkpt>
      <trkpt lat="44.17897" lon="6.46572">
        <ele>2089</ele>
        <time>2020-10-08T13:30:00+02:00</time>
      </trkpt>
      <trkpt lat="44.17892" lon="6.46585">
        <ele>2089</ele>
        <time>2020-10-08T13:30:14+02:00</time>
      </trkpt>
      <trkpt lat="44.17887" lon="6.46598">
        <ele>2087</ele>
        <time>2020-10-08T13:30:31+02:00</time>
      </trkpt>
      <trkpt lat="44.17884" lon="6.4661">
        <ele>2085</ele>
        <time>2020-10-08T13:30:45+02:00</time>
      </trkpt>
      <trkpt lat="44.1788" lon="6.46624">
        <ele>2081</ele>
        <time>2020-10-08T13:31:01+02:00</time>
      </trkpt>
      <trkpt lat="44.17875" lon="6.46635">
        <ele>2079</ele>
        <time>2020-10-08T13:31:14+02:00</time>
      </trkpt>
      <trkpt lat="44.17872" lon="6.46645">
        <ele>2078</ele>
        <time>2020-10-08T13:31:28+02:00</time>
      </trkpt>
      <trkpt lat="44.17867" lon="6.46659">
        <ele>2077</ele>
        <time>2020-10-08T13:31:45+02:00</time>
      </trkpt>
      <trkpt lat="44.17863" lon="6.46669">
        <ele>2078</ele>
        <time>2020-10-08T13:31:56+02:00</time>
      </trkpt>
      <trkpt lat="44.17858" lon="6.46684">
        <ele>2075</ele>
        <time>2020-10-08T13:32:12+02:00</time>
      </trkpt>
      <trkpt lat="44.17852" lon="6.467">
        <ele>2071</ele>
        <time>2020-10-08T13:32:28+02:00</time>
      </trkpt>
      <trkpt lat="44.17849" lon="6.46711">
        <ele>2068</ele>
        <time>2020-10-08T13:32:43+02:00</time>
      </trkpt>
      <trkpt lat="44.17847" lon="6.46723">
        <ele>2067</ele>
        <time>2020-10-08T13:32:57+02:00</time>
      </trkpt>
      <trkpt lat="44.17844" lon="6.46734">
        <ele>2066</ele>
        <time>2020-10-08T13:33:12+02:00</time>
      </trkpt>
      <trkpt lat="44.17841" lon="6.46746">
        <ele>2065</ele>
        <time>2020-10-08T13:33:27+02:00</time>
      </trkpt>
      <trkpt lat="44.17837" lon="6.46757">
        <ele>2065</ele>
        <time>2020-10-08T13:33:41+02:00</time>
      </trkpt>
      <trkpt lat="44.17832" lon="6.46767">
        <ele>2064</ele>
        <time>2020-10-08T13:33:54+02:00</time>
      </trkpt>
      <trkpt lat="44.17828" lon="6.4678">
        <ele>2060</ele>
        <time>2020-10-08T13:34:10+02:00</time>
      </trkpt>
      <trkpt lat="44.17824" lon="6.4679">
        <ele>2057</ele>
        <time>2020-10-08T13:34:23+02:00</time>
      </trkpt>
      <trkpt lat="44.17817" lon="6.46805">
        <ele>2055</ele>
        <time>2020-10-08T13:34:40+02:00</time>
      </trkpt>
      <trkpt lat="44.17813" lon="6.46817">
        <ele>2054</ele>
        <time>2020-10-08T13:34:55+02:00</time>
      </trkpt>
      <trkpt lat="44.1781" lon="6.46827">
        <ele>2054</ele>
        <time>2020-10-08T13:35:09+02:00</time>
      </trkpt>
      <trkpt lat="44.17808" lon="6.46836">
        <ele>2054</ele>
        <time>2020-10-08T13:35:21+02:00</time>
      </trkpt>
      <trkpt lat="44.17804" lon="6.46846">
        <ele>2052</ele>
        <time>2020-10-08T13:35:36+02:00</time>
      </trkpt>
      <trkpt lat="44.17803" lon="6.46855">
        <ele>2050</ele>
        <time>2020-10-08T13:35:51+02:00</time>
      </trkpt>
      <trkpt lat="44.17799" lon="6.46869">
        <ele>2046</ele>
        <time>2020-10-08T13:36:08+02:00</time>
      </trkpt>
      <trkpt lat="44.17796" lon="6.46878">
        <ele>2044</ele>
        <time>2020-10-08T13:36:23+02:00</time>
      </trkpt>
      <trkpt lat="44.17794" lon="6.46886">
        <ele>2042</ele>
        <time>2020-10-08T13:36:37+02:00</time>
      </trkpt>
      <trkpt lat="44.17788" lon="6.46897">
        <ele>2039</ele>
        <time>2020-10-08T13:36:51+02:00</time>
      </trkpt>
      <trkpt lat="44.17783" lon="6.46909">
        <ele>2038</ele>
        <time>2020-10-08T13:37:08+02:00</time>
      </trkpt>
      <trkpt lat="44.17778" lon="6.4692">
        <ele>2038</ele>
        <time>2020-10-08T13:37:23+02:00</time>
      </trkpt>
      <trkpt lat="44.17771" lon="6.46934">
        <ele>2034</ele>
        <time>2020-10-08T13:37:40+02:00</time>
      </trkpt>
      <trkpt lat="44.17766" lon="6.46946">
        <ele>2031</ele>
        <time>2020-10-08T13:37:55+02:00</time>
      </trkpt>
      <trkpt lat="44.17761" lon="6.46957">
        <ele>2029</ele>
        <time>2020-10-08T13:38:09+02:00</time>
      </trkpt>
      <trkpt lat="44.17755" lon="6.4697">
        <ele>2028</ele>
        <time>2020-10-08T13:38:26+02:00</time>
      </trkpt>
      <trkpt lat="44.17749" lon="6.46984">
        <ele>2028</ele>
        <time>2020-10-08T13:38:41+02:00</time>
      </trkpt>
      <trkpt lat="44.17742" lon="6.47001">
        <ele>2024</ele>
        <time>2020-10-08T13:38:59+02:00</time>
      </trkpt>
      <trkpt lat="44.17739" lon="6.47011">
        <ele>2023</ele>
        <time>2020-10-08T13:39:12+02:00</time>
      </trkpt>
      <trkpt lat="44.17733" lon="6.47029">
        <ele>2023</ele>
        <time>2020-10-08T13:39:28+02:00</time>
      </trkpt>
      <trkpt lat="44.17726" lon="6.47047">
        <ele>2024</ele>
        <time>2020-10-08T13:39:45+02:00</time>
      </trkpt>
      <trkpt lat="44.17716" lon="6.47066">
        <ele>2021</ele>
        <time>2020-10-08T13:40:04+02:00</time>
      </trkpt>
      <trkpt lat="44.17708" lon="6.47081">
        <ele>2017</ele>
        <time>2020-10-08T13:40:21+02:00</time>
      </trkpt>
      <trkpt lat="44.17704" lon="6.47096">
        <ele>2016</ele>
        <time>2020-10-08T13:40:36+02:00</time>
      </trkpt>
      <trkpt lat="44.17693" lon="6.47113">
        <ele>2017</ele>
        <time>2020-10-08T13:40:54+02:00</time>
      </trkpt>
      <trkpt lat="44.17686" lon="6.47128">
        <ele>2015</ele>
        <time>2020-10-08T13:41:09+02:00</time>
      </trkpt>
      <trkpt lat="44.1768" lon="6.47145">
        <ele>2013</ele>
        <time>2020-10-08T13:41:25+02:00</time>
      </trkpt>
      <trkpt lat="44.17676" lon="6.47161">
        <ele>2011</ele>
        <time>2020-10-08T13:41:40+02:00</time>
      </trkpt>
      <trkpt lat="44.17671" lon="6.47179">
        <ele>2010</ele>
        <time>2020-10-08T13:41:56+02:00</time>
      </trkpt>
      <trkpt lat="44.17667" lon="6.47193">
        <ele>2010</ele>
        <time>2020-10-08T13:42:09+02:00</time>
      </trkpt>
      <trkpt lat="44.17663" lon="6.47216">
        <ele>2008</ele>
        <time>2020-10-08T13:42:27+02:00</time>
      </trkpt>
      <trkpt lat="44.17658" lon="6.4724">
        <ele>2006</ele>
        <time>2020-10-08T13:42:45+02:00</time>
      </trkpt>
      <trkpt lat="44.17653" lon="6.47265">
        <ele>2006</ele>
        <time>2020-10-08T13:43:03+02:00</time>
      </trkpt>
      <trkpt lat="44.17651" lon="6.47273">
        <ele>2007</ele>
        <time>2020-10-08T13:43:11+02:00</time>
      </trkpt>
      <trkpt lat="44.17648" lon="6.47293">
        <ele>2009</ele>
        <time>2020-10-08T13:43:29+02:00</time>
      </trkpt>
      <trkpt lat="44.17643" lon="6.47309">
        <ele>2011</ele>
        <time>2020-10-08T13:43:47+02:00</time>
      </trkpt>
      <trkpt lat="44.17645" lon="6.4731">
        <ele>2011</ele>
        <time>2020-10-08T13:44:09+02:00</time>
      </trkpt>
      <trkpt lat="44.17643" lon="6.47321">
        <ele>2011</ele>
        <time>2020-10-08T13:44:26+02:00</time>
      </trkpt>
      <trkpt lat="44.17649" lon="6.47337">
        <ele>2009</ele>
        <time>2020-10-08T13:44:41+02:00</time>
      </trkpt>
      <trkpt lat="44.17652" lon="6.47343">
        <ele>2007</ele>
        <time>2020-10-08T13:44:47+02:00</time>
      </trkpt>
      <trkpt lat="44.17656" lon="6.47361">
        <ele>2004</ele>
        <time>2020-10-08T13:45:04+02:00</time>
      </trkpt>
      <trkpt lat="44.17653" lon="6.47364">
        <ele>2003</ele>
        <time>2020-10-08T13:45:19+02:00</time>
      </trkpt>
      <trkpt lat="44.1765" lon="6.47369">
        <ele>2000</ele>
        <time>2020-10-08T13:45:33+02:00</time>
      </trkpt>
      <trkpt lat="44.17649" lon="6.4737">
        <ele>2000</ele>
        <time>2020-10-08T13:45:35+02:00</time>
      </trkpt>
      <trkpt lat="44.1765" lon="6.47376">
        <ele>1998</ele>
        <time>2020-10-08T13:45:50+02:00</time>
      </trkpt>
      <trkpt lat="44.1765" lon="6.47377">
        <ele>1997</ele>
        <time>2020-10-08T13:46:19+02:00</time>
      </trkpt>
      <trkpt lat="44.17651" lon="6.47381">
        <ele>1996</ele>
        <time>2020-10-08T13:46:37+02:00</time>
      </trkpt>
      <trkpt lat="44.1765" lon="6.47385">
        <ele>1994</ele>
        <time>2020-10-08T13:46:44+02:00</time>
      </trkpt>
      <trkpt lat="44.17648" lon="6.4739">
        <ele>1992</ele>
        <time>2020-10-08T13:46:59+02:00</time>
      </trkpt>
      <trkpt lat="44.17648" lon="6.47398">
        <ele>1988</ele>
        <time>2020-10-08T13:47:12+02:00</time>
      </trkpt>
      <trkpt lat="44.17648" lon="6.47406">
        <ele>1984</ele>
        <time>2020-10-08T13:47:26+02:00</time>
      </trkpt>
      <trkpt lat="44.17649" lon="6.47413">
        <ele>1981</ele>
        <time>2020-10-08T13:47:40+02:00</time>
      </trkpt>
      <trkpt lat="44.17647" lon="6.47419">
        <ele>1978</ele>
        <time>2020-10-08T13:47:52+02:00</time>
      </trkpt>
      <trkpt lat="44.17646" lon="6.47425">
        <ele>1976</ele>
        <time>2020-10-08T13:48:04+02:00</time>
      </trkpt>
      <trkpt lat="44.17646" lon="6.47433">
        <ele>1973</ele>
        <time>2020-10-08T13:48:17+02:00</time>
      </trkpt>
      <trkpt lat="44.17646" lon="6.47433">
        <ele>1972</ele>
        <time>2020-10-08T13:48:18+02:00</time>
      </trkpt>
      <trkpt lat="44.17645" lon="6.47435">
        <ele>1972</ele>
        <time>2020-10-08T13:48:22+02:00</time>
      </trkpt>
      <trkpt lat="44.17645" lon="6.47444">
        <ele>1968</ele>
        <time>2020-10-08T13:48:35+02:00</time>
      </trkpt>
      <trkpt lat="44.17645" lon="6.47444">
        <ele>1968</ele>
        <time>2020-10-08T13:48:36+02:00</time>
      </trkpt>
      <trkpt lat="44.17642" lon="6.47452">
        <ele>1965</ele>
        <time>2020-10-08T13:48:47+02:00</time>
      </trkpt>
      <trkpt lat="44.17642" lon="6.47456">
        <ele>1963</ele>
        <time>2020-10-08T13:49:02+02:00</time>
      </trkpt>
      <trkpt lat="44.17641" lon="6.47464">
        <ele>1959</ele>
        <time>2020-10-08T13:49:15+02:00</time>
      </trkpt>
      <trkpt lat="44.17641" lon="6.4747">
        <ele>1957</ele>
        <time>2020-10-08T13:49:28+02:00</time>
      </trkpt>
      <trkpt lat="44.17641" lon="6.47477">
        <ele>1953</ele>
        <time>2020-10-08T13:49:42+02:00</time>
      </trkpt>
      <trkpt lat="44.17638" lon="6.47484">
        <ele>1950</ele>
        <time>2020-10-08T13:49:55+02:00</time>
      </trkpt>
      <trkpt lat="44.17638" lon="6.47489">
        <ele>1947</ele>
        <time>2020-10-08T13:50:09+02:00</time>
      </trkpt>
      <trkpt lat="44.17637" lon="6.4749">
        <ele>1946</ele>
        <time>2020-10-08T13:50:14+02:00</time>
      </trkpt>
      <trkpt lat="44.17636" lon="6.47497">
        <ele>1942</ele>
        <time>2020-10-08T13:50:30+02:00</time>
      </trkpt>
      <trkpt lat="44.1764" lon="6.47501">
        <ele>1941</ele>
        <time>2020-10-08T13:50:44+02:00</time>
      </trkpt>
      <trkpt lat="44.17639" lon="6.47502">
        <ele>1941</ele>
        <time>2020-10-08T13:50:47+02:00</time>
      </trkpt>
      <trkpt lat="44.1764" lon="6.47506">
        <ele>1939</ele>
        <time>2020-10-08T13:51:05+02:00</time>
      </trkpt>
      <trkpt lat="44.17639" lon="6.4751">
        <ele>1937</ele>
        <time>2020-10-08T13:51:25+02:00</time>
      </trkpt>
      <trkpt lat="44.17638" lon="6.47516">
        <ele>1934</ele>
        <time>2020-10-08T13:51:40+02:00</time>
      </trkpt>
      <trkpt lat="44.17638" lon="6.47515">
        <ele>1934</ele>
        <time>2020-10-08T13:52:03+02:00</time>
      </trkpt>
      <trkpt lat="44.17635" lon="6.47523">
        <ele>1929</ele>
        <time>2020-10-08T13:52:17+02:00</time>
      </trkpt>
      <trkpt lat="44.17638" lon="6.47527">
        <ele>1929</ele>
        <time>2020-10-08T13:52:32+02:00</time>
      </trkpt>
      <trkpt lat="44.17638" lon="6.47531">
        <ele>1927</ele>
        <time>2020-10-08T13:52:39+02:00</time>
      </trkpt>
      <trkpt lat="44.17637" lon="6.47535">
        <ele>1925</ele>
        <time>2020-10-08T13:52:48+02:00</time>
      </trkpt>
      <trkpt lat="44.17634" lon="6.47542">
        <ele>1921</ele>
        <time>2020-10-08T13:53:02+02:00</time>
      </trkpt>
      <trkpt lat="44.17633" lon="6.47548">
        <ele>1918</ele>
        <time>2020-10-08T13:53:15+02:00</time>
      </trkpt>
      <trkpt lat="44.17635" lon="6.47556">
        <ele>1915</ele>
        <time>2020-10-08T13:53:27+02:00</time>
      </trkpt>
      <trkpt lat="44.17631" lon="6.47562">
        <ele>1912</ele>
        <time>2020-10-08T13:53:40+02:00</time>
      </trkpt>
      <trkpt lat="44.17632" lon="6.47566">
        <ele>1910</ele>
        <time>2020-10-08T13:53:54+02:00</time>
      </trkpt>
      <trkpt lat="44.17631" lon="6.47567">
        <ele>1909</ele>
        <time>2020-10-08T13:54:16+02:00</time>
      </trkpt>
      <trkpt lat="44.17632" lon="6.47568">
        <ele>1910</ele>
        <time>2020-10-08T13:54:42+02:00</time>
      </trkpt>
      <trkpt lat="44.17631" lon="6.47567">
        <ele>1910</ele>
        <time>2020-10-08T13:55:13+02:00</time>
      </trkpt>
      <trkpt lat="44.17631" lon="6.47568">
        <ele>1909</ele>
        <time>2020-10-08T13:55:31+02:00</time>
      </trkpt>
      <trkpt lat="44.17633" lon="6.47575">
        <ele>1907</ele>
        <time>2020-10-08T13:55:50+02:00</time>
      </trkpt>
      <trkpt lat="44.17632" lon="6.47583">
        <ele>1904</ele>
        <time>2020-10-08T13:56:08+02:00</time>
      </trkpt>
      <trkpt lat="44.1763" lon="6.47589">
        <ele>1901</ele>
        <time>2020-10-08T13:56:24+02:00</time>
      </trkpt>
      <trkpt lat="44.17631" lon="6.47593">
        <ele>1900</ele>
        <time>2020-10-08T13:56:38+02:00</time>
      </trkpt>
      <trkpt lat="44.17632" lon="6.476">
        <ele>1897</ele>
        <time>2020-10-08T13:56:53+02:00</time>
      </trkpt>
      <trkpt lat="44.17631" lon="6.47607">
        <ele>1895</ele>
        <time>2020-10-08T13:57:08+02:00</time>
      </trkpt>
      <trkpt lat="44.17628" lon="6.47615">
        <ele>1891</ele>
        <time>2020-10-08T13:57:24+02:00</time>
      </trkpt>
      <trkpt lat="44.17626" lon="6.47618">
        <ele>1890</ele>
        <time>2020-10-08T13:57:42+02:00</time>
      </trkpt>
      <trkpt lat="44.17625" lon="6.4762">
        <ele>1889</ele>
        <time>2020-10-08T13:58:09+02:00</time>
      </trkpt>
      <trkpt lat="44.17623" lon="6.47628">
        <ele>1886</ele>
        <time>2020-10-08T13:58:21+02:00</time>
      </trkpt>
      <trkpt lat="44.1762" lon="6.47635">
        <ele>1883</ele>
        <time>2020-10-08T13:58:35+02:00</time>
      </trkpt>
      <trkpt lat="44.17619" lon="6.47642">
        <ele>1881</ele>
        <time>2020-10-08T13:58:45+02:00</time>
      </trkpt>
      <trkpt lat="44.17615" lon="6.47651">
        <ele>1879</ele>
        <time>2020-10-08T13:58:59+02:00</time>
      </trkpt>
      <trkpt lat="44.17615" lon="6.47651">
        <ele>1879</ele>
        <time>2020-10-08T13:59:00+02:00</time>
      </trkpt>
      <trkpt lat="44.17613" lon="6.47663">
        <ele>1876</ele>
        <time>2020-10-08T13:59:16+02:00</time>
      </trkpt>
      <trkpt lat="44.17612" lon="6.47671">
        <ele>1874</ele>
        <time>2020-10-08T13:59:31+02:00</time>
      </trkpt>
      <trkpt lat="44.1761" lon="6.47681">
        <ele>1872</ele>
        <time>2020-10-08T13:59:44+02:00</time>
      </trkpt>
      <trkpt lat="44.17606" lon="6.4769">
        <ele>1868</ele>
        <time>2020-10-08T13:59:59+02:00</time>
      </trkpt>
      <trkpt lat="44.17603" lon="6.477">
        <ele>1863</ele>
        <time>2020-10-08T14:00:13+02:00</time>
      </trkpt>
      <trkpt lat="44.17602" lon="6.47711">
        <ele>1860</ele>
        <time>2020-10-08T14:00:29+02:00</time>
      </trkpt>
      <trkpt lat="44.176" lon="6.47721">
        <ele>1855</ele>
        <time>2020-10-08T14:00:44+02:00</time>
      </trkpt>
      <trkpt lat="44.17598" lon="6.47727">
        <ele>1853</ele>
        <time>2020-10-08T14:00:58+02:00</time>
      </trkpt>
      <trkpt lat="44.17597" lon="6.47739">
        <ele>1849</ele>
        <time>2020-10-08T14:01:12+02:00</time>
      </trkpt>
      <trkpt lat="44.17595" lon="6.47748">
        <ele>1846</ele>
        <time>2020-10-08T14:01:26+02:00</time>
      </trkpt>
      <trkpt lat="44.17592" lon="6.47764">
        <ele>1841</ele>
        <time>2020-10-08T14:01:42+02:00</time>
      </trkpt>
      <trkpt lat="44.1759" lon="6.47778">
        <ele>1838</ele>
        <time>2020-10-08T14:01:57+02:00</time>
      </trkpt>
      <trkpt lat="44.17587" lon="6.47784">
        <ele>1836</ele>
        <time>2020-10-08T14:02:07+02:00</time>
      </trkpt>
      <trkpt lat="44.17586" lon="6.47796">
        <ele>1834</ele>
        <time>2020-10-08T14:02:20+02:00</time>
      </trkpt>
      <trkpt lat="44.17584" lon="6.47802">
        <ele>1833</ele>
        <time>2020-10-08T14:02:26+02:00</time>
      </trkpt>
      <trkpt lat="44.17585" lon="6.47812">
        <ele>1832</ele>
        <time>2020-10-08T14:02:38+02:00</time>
      </trkpt>
      <trkpt lat="44.17583" lon="6.47826">
        <ele>1829</ele>
        <time>2020-10-08T14:02:53+02:00</time>
      </trkpt>
      <trkpt lat="44.17581" lon="6.47837">
        <ele>1826</ele>
        <time>2020-10-08T14:03:04+02:00</time>
      </trkpt>
      <trkpt lat="44.17581" lon="6.47837">
        <ele>1826</ele>
        <time>2020-10-08T14:03:23+02:00</time>
      </trkpt>
      <trkpt lat="44.17585" lon="6.47848">
        <ele>1824</ele>
        <time>2020-10-08T14:03:43+02:00</time>
      </trkpt>
      <trkpt lat="44.17585" lon="6.4786">
        <ele>1820</ele>
        <time>2020-10-08T14:04:00+02:00</time>
      </trkpt>
      <trkpt lat="44.17587" lon="6.47863">
        <ele>1819</ele>
        <time>2020-10-08T14:04:04+02:00</time>
      </trkpt>
      <trkpt lat="44.17588" lon="6.47867">
        <ele>1817</ele>
        <time>2020-10-08T14:04:09+02:00</time>
      </trkpt>
      <trkpt lat="44.17588" lon="6.47875">
        <ele>1814</ele>
        <time>2020-10-08T14:04:19+02:00</time>
      </trkpt>
      <trkpt lat="44.17591" lon="6.47885">
        <ele>1810</ele>
        <time>2020-10-08T14:04:35+02:00</time>
      </trkpt>
      <trkpt lat="44.17592" lon="6.4789">
        <ele>1808</ele>
        <time>2020-10-08T14:04:43+02:00</time>
      </trkpt>
      <trkpt lat="44.17592" lon="6.47891">
        <ele>1807</ele>
        <time>2020-10-08T14:04:44+02:00</time>
      </trkpt>
      <trkpt lat="44.17596" lon="6.47903">
        <ele>1803</ele>
        <time>2020-10-08T14:04:59+02:00</time>
      </trkpt>
      <trkpt lat="44.176" lon="6.47908">
        <ele>1802</ele>
        <time>2020-10-08T14:05:08+02:00</time>
      </trkpt>
      <trkpt lat="44.17604" lon="6.47913">
        <ele>1800</ele>
        <time>2020-10-08T14:05:17+02:00</time>
      </trkpt>
      <trkpt lat="44.17604" lon="6.47916">
        <ele>1800</ele>
        <time>2020-10-08T14:05:21+02:00</time>
      </trkpt>
      <trkpt lat="44.17609" lon="6.47923">
        <ele>1797</ele>
        <time>2020-10-08T14:05:32+02:00</time>
      </trkpt>
      <trkpt lat="44.17613" lon="6.47933">
        <ele>1793</ele>
        <time>2020-10-08T14:05:44+02:00</time>
      </trkpt>
      <trkpt lat="44.17616" lon="6.47945">
        <ele>1788</ele>
        <time>2020-10-08T14:06:02+02:00</time>
      </trkpt>
      <trkpt lat="44.17619" lon="6.47952">
        <ele>1785</ele>
        <time>2020-10-08T14:06:13+02:00</time>
      </trkpt>
      <trkpt lat="44.17622" lon="6.4796">
        <ele>1782</ele>
        <time>2020-10-08T14:06:24+02:00</time>
      </trkpt>
      <trkpt lat="44.17622" lon="6.47969">
        <ele>1779</ele>
        <time>2020-10-08T14:06:34+02:00</time>
      </trkpt>
      <trkpt lat="44.17622" lon="6.47982">
        <ele>1775</ele>
        <time>2020-10-08T14:06:45+02:00</time>
      </trkpt>
      <trkpt lat="44.17622" lon="6.47995">
        <ele>1771</ele>
        <time>2020-10-08T14:06:58+02:00</time>
      </trkpt>
      <trkpt lat="44.17623" lon="6.48009">
        <ele>1768</ele>
        <time>2020-10-08T14:07:09+02:00</time>
      </trkpt>
      <trkpt lat="44.17623" lon="6.48014">
        <ele>1766</ele>
        <time>2020-10-08T14:07:13+02:00</time>
      </trkpt>
      <trkpt lat="44.17625" lon="6.4802">
        <ele>1765</ele>
        <time>2020-10-08T14:07:19+02:00</time>
      </trkpt>
      <trkpt lat="44.17632" lon="6.48036">
        <ele>1763</ele>
        <time>2020-10-08T14:07:34+02:00</time>
      </trkpt>
      <trkpt lat="44.17636" lon="6.48054">
        <ele>1761</ele>
        <time>2020-10-08T14:07:45+02:00</time>
      </trkpt>
      <trkpt lat="44.1765" lon="6.48066">
        <ele>1761</ele>
        <time>2020-10-08T14:08:02+02:00</time>
      </trkpt>
      <trkpt lat="44.17664" lon="6.48076">
        <ele>1762</ele>
        <time>2020-10-08T14:08:17+02:00</time>
      </trkpt>
      <trkpt lat="44.17675" lon="6.48082">
        <ele>1762</ele>
        <time>2020-10-08T14:08:30+02:00</time>
      </trkpt>
      <trkpt lat="44.17688" lon="6.48087">
        <ele>1763</ele>
        <time>2020-10-08T14:08:46+02:00</time>
      </trkpt>
      <trkpt lat="44.17689" lon="6.4808">
        <ele>1764</ele>
        <time>2020-10-08T14:08:59+02:00</time>
      </trkpt>
      <trkpt lat="44.17691" lon="6.48083">
        <ele>1764</ele>
        <time>2020-10-08T14:09:16+02:00</time>
      </trkpt>
      <trkpt lat="44.17688" lon="6.4808">
        <ele>1764</ele>
        <time>2020-10-08T14:09:38+02:00</time>
      </trkpt>
      <trkpt lat="44.17684" lon="6.48083">
        <ele>1763</ele>
        <time>2020-10-08T14:10:06+02:00</time>
      </trkpt>
      <trkpt lat="44.17685" lon="6.48083">
        <ele>1763</ele>
        <time>2020-10-08T14:10:31+02:00</time>
      </trkpt>
      <trkpt lat="44.17685" lon="6.48083">
        <ele>1763</ele>
        <time>2020-10-08T14:10:49+02:00</time>
      </trkpt>
      <trkpt lat="44.17696" lon="6.48087">
        <ele>1763</ele>
        <time>2020-10-08T14:11:16+02:00</time>
      </trkpt>
      <trkpt lat="44.17711" lon="6.48086">
        <ele>1761</ele>
        <time>2020-10-08T14:11:34+02:00</time>
      </trkpt>
      <trkpt lat="44.17729" lon="6.48086">
        <ele>1759</ele>
        <time>2020-10-08T14:11:50+02:00</time>
      </trkpt>
      <trkpt lat="44.1774" lon="6.48084">
        <ele>1757</ele>
        <time>2020-10-08T14:12:05+02:00</time>
      </trkpt>
      <trkpt lat="44.17759" lon="6.48083">
        <ele>1754</ele>
        <time>2020-10-08T14:12:27+02:00</time>
      </trkpt>
      <trkpt lat="44.17778" lon="6.48078">
        <ele>1752</ele>
        <time>2020-10-08T14:12:47+02:00</time>
      </trkpt>
      <trkpt lat="44.17795" lon="6.48078">
        <ele>1749</ele>
        <time>2020-10-08T14:13:05+02:00</time>
      </trkpt>
      <trkpt lat="44.1781" lon="6.48079">
        <ele>1746</ele>
        <time>2020-10-08T14:13:21+02:00</time>
      </trkpt>
      <trkpt lat="44.17813" lon="6.48078">
        <ele>1746</ele>
        <time>2020-10-08T14:13:24+02:00</time>
      </trkpt>
      <trkpt lat="44.17824" lon="6.48082">
        <ele>1743</ele>
        <time>2020-10-08T14:13:38+02:00</time>
      </trkpt>
      <trkpt lat="44.17841" lon="6.48069">
        <ele>1741</ele>
        <time>2020-10-08T14:13:57+02:00</time>
      </trkpt>
      <trkpt lat="44.17853" lon="6.48059">
        <ele>1739</ele>
        <time>2020-10-08T14:14:13+02:00</time>
      </trkpt>
      <trkpt lat="44.17857" lon="6.48057">
        <ele>1738</ele>
        <time>2020-10-08T14:14:25+02:00</time>
      </trkpt>
      <trkpt lat="44.17869" lon="6.48051">
        <ele>1736</ele>
        <time>2020-10-08T14:14:43+02:00</time>
      </trkpt>
      <trkpt lat="44.17876" lon="6.4805">
        <ele>1734</ele>
        <time>2020-10-08T14:14:52+02:00</time>
      </trkpt>
      <trkpt lat="44.17886" lon="6.4805">
        <ele>1732</ele>
        <time>2020-10-08T14:15:03+02:00</time>
      </trkpt>
      <trkpt lat="44.17893" lon="6.48057">
        <ele>1730</ele>
        <time>2020-10-08T14:15:16+02:00</time>
      </trkpt>
      <trkpt lat="44.17895" lon="6.48064">
        <ele>1730</ele>
        <time>2020-10-08T14:15:27+02:00</time>
      </trkpt>
      <trkpt lat="44.17895" lon="6.48065">
        <ele>1730</ele>
        <time>2020-10-08T14:15:29+02:00</time>
      </trkpt>
      <trkpt lat="44.17901" lon="6.48072">
        <ele>1729</ele>
        <time>2020-10-08T14:15:46+02:00</time>
      </trkpt>
      <trkpt lat="44.17911" lon="6.48071">
        <ele>1727</ele>
        <time>2020-10-08T14:16:01+02:00</time>
      </trkpt>
      <trkpt lat="44.17923" lon="6.48077">
        <ele>1725</ele>
        <time>2020-10-08T14:16:17+02:00</time>
      </trkpt>
      <trkpt lat="44.17927" lon="6.48078">
        <ele>1724</ele>
        <time>2020-10-08T14:16:22+02:00</time>
      </trkpt>
      <trkpt lat="44.17934" lon="6.48081">
        <ele>1722</ele>
        <time>2020-10-08T14:16:40+02:00</time>
      </trkpt>
      <trkpt lat="44.17939" lon="6.4808">
        <ele>1721</ele>
        <time>2020-10-08T14:17:03+02:00</time>
      </trkpt>
      <trkpt lat="44.17941" lon="6.48082">
        <ele>1721</ele>
        <time>2020-10-08T14:17:21+02:00</time>
      </trkpt>
      <trkpt lat="44.17953" lon="6.48086">
        <ele>1719</ele>
        <time>2020-10-08T14:17:36+02:00</time>
      </trkpt>
      <trkpt lat="44.17953" lon="6.48085">
        <ele>1719</ele>
        <time>2020-10-08T14:17:37+02:00</time>
      </trkpt>
      <trkpt lat="44.17959" lon="6.48081">
        <ele>1717</ele>
        <time>2020-10-08T14:17:45+02:00</time>
      </trkpt>
      <trkpt lat="44.17965" lon="6.48069">
        <ele>1714</ele>
        <time>2020-10-08T14:17:59+02:00</time>
      </trkpt>
      <trkpt lat="44.17971" lon="6.48059">
        <ele>1711</ele>
        <time>2020-10-08T14:18:13+02:00</time>
      </trkpt>
      <trkpt lat="44.17979" lon="6.48048">
        <ele>1707</ele>
        <time>2020-10-08T14:18:27+02:00</time>
      </trkpt>
      <trkpt lat="44.17988" lon="6.4804">
        <ele>1704</ele>
        <time>2020-10-08T14:18:41+02:00</time>
      </trkpt>
      <trkpt lat="44.17992" lon="6.48029">
        <ele>1701</ele>
        <time>2020-10-08T14:18:55+02:00</time>
      </trkpt>
      <trkpt lat="44.17997" lon="6.4802">
        <ele>1700</ele>
        <time>2020-10-08T14:19:09+02:00</time>
      </trkpt>
      <trkpt lat="44.18" lon="6.48014">
        <ele>1699</ele>
        <time>2020-10-08T14:19:15+02:00</time>
      </trkpt>
      <trkpt lat="44.18005" lon="6.47996">
        <ele>1696</ele>
        <time>2020-10-08T14:19:29+02:00</time>
      </trkpt>
      <trkpt lat="44.18007" lon="6.47986">
        <ele>1695</ele>
        <time>2020-10-08T14:19:42+02:00</time>
      </trkpt>
      <trkpt lat="44.1801" lon="6.47983">
        <ele>1695</ele>
        <time>2020-10-08T14:19:45+02:00</time>
      </trkpt>
      <trkpt lat="44.18017" lon="6.47975">
        <ele>1693</ele>
        <time>2020-10-08T14:20:00+02:00</time>
      </trkpt>
      <trkpt lat="44.18021" lon="6.47961">
        <ele>1692</ele>
        <time>2020-10-08T14:20:14+02:00</time>
      </trkpt>
      <trkpt lat="44.1803" lon="6.47944">
        <ele>1690</ele>
        <time>2020-10-08T14:20:28+02:00</time>
      </trkpt>
      <trkpt lat="44.18037" lon="6.47919">
        <ele>1690</ele>
        <time>2020-10-08T14:20:45+02:00</time>
      </trkpt>
      <trkpt lat="44.18042" lon="6.47909">
        <ele>1689</ele>
        <time>2020-10-08T14:20:53+02:00</time>
      </trkpt>
      <trkpt lat="44.1805" lon="6.47895">
        <ele>1688</ele>
        <time>2020-10-08T14:21:06+02:00</time>
      </trkpt>
      <trkpt lat="44.18051" lon="6.47894">
        <ele>1688</ele>
        <time>2020-10-08T14:21:07+02:00</time>
      </trkpt>
      <trkpt lat="44.18062" lon="6.47875">
        <ele>1687</ele>
        <time>2020-10-08T14:21:22+02:00</time>
      </trkpt>
      <trkpt lat="44.18062" lon="6.47874">
        <ele>1687</ele>
        <time>2020-10-08T14:21:23+02:00</time>
      </trkpt>
      <trkpt lat="44.18067" lon="6.47868">
        <ele>1687</ele>
        <time>2020-10-08T14:21:29+02:00</time>
      </trkpt>
      <trkpt lat="44.18069" lon="6.47864">
        <ele>1687</ele>
        <time>2020-10-08T14:21:33+02:00</time>
      </trkpt>
      <trkpt lat="44.18078" lon="6.47845">
        <ele>1689</ele>
        <time>2020-10-08T14:21:50+02:00</time>
      </trkpt>
      <trkpt lat="44.18084" lon="6.4784">
        <ele>1688</ele>
        <time>2020-10-08T14:21:56+02:00</time>
      </trkpt>
      <trkpt lat="44.18096" lon="6.47824">
        <ele>1690</ele>
        <time>2020-10-08T14:22:12+02:00</time>
      </trkpt>
      <trkpt lat="44.18107" lon="6.47808">
        <ele>1692</ele>
        <time>2020-10-08T14:22:28+02:00</time>
      </trkpt>
      <trkpt lat="44.1812" lon="6.47791">
        <ele>1693</ele>
        <time>2020-10-08T14:22:46+02:00</time>
      </trkpt>
      <trkpt lat="44.18131" lon="6.47777">
        <ele>1694</ele>
        <time>2020-10-08T14:23:03+02:00</time>
      </trkpt>
      <trkpt lat="44.18144" lon="6.47762">
        <ele>1696</ele>
        <time>2020-10-08T14:23:21+02:00</time>
      </trkpt>
      <trkpt lat="44.18155" lon="6.47752">
        <ele>1698</ele>
        <time>2020-10-08T14:23:40+02:00</time>
      </trkpt>
      <trkpt lat="44.18165" lon="6.47741">
        <ele>1700</ele>
        <time>2020-10-08T14:23:57+02:00</time>
      </trkpt>
      <trkpt lat="44.18172" lon="6.47731">
        <ele>1701</ele>
        <time>2020-10-08T14:24:15+02:00</time>
      </trkpt>
      <trkpt lat="44.18172" lon="6.47724">
        <ele>1702</ele>
        <time>2020-10-08T14:24:29+02:00</time>
      </trkpt>
      <trkpt lat="44.18172" lon="6.47725">
        <ele>1702</ele>
        <time>2020-10-08T14:24:44+02:00</time>
      </trkpt>
      <trkpt lat="44.18172" lon="6.47729">
        <ele>1701</ele>
        <time>2020-10-08T14:24:58+02:00</time>
      </trkpt>
      <trkpt lat="44.18174" lon="6.47729">
        <ele>1701</ele>
        <time>2020-10-08T14:25:00+02:00</time>
      </trkpt>
      <trkpt lat="44.18179" lon="6.47731">
        <ele>1700</ele>
        <time>2020-10-08T14:25:05+02:00</time>
      </trkpt>
      <trkpt lat="44.1818" lon="6.47729">
        <ele>1700</ele>
        <time>2020-10-08T14:25:09+02:00</time>
      </trkpt>
      <trkpt lat="44.18178" lon="6.47726">
        <ele>1701</ele>
        <time>2020-10-08T14:25:12+02:00</time>
      </trkpt>
      <trkpt lat="44.18173" lon="6.47708">
        <ele>1704</ele>
        <time>2020-10-08T14:25:25+02:00</time>
      </trkpt>
      <trkpt lat="44.18173" lon="6.47711">
        <ele>1704</ele>
        <time>2020-10-08T14:25:49+02:00</time>
      </trkpt>
      <trkpt lat="44.18172" lon="6.47711">
        <ele>1704</ele>
        <time>2020-10-08T14:25:50+02:00</time>
      </trkpt>
      <trkpt lat="44.18176" lon="6.47712">
        <ele>1703</ele>
        <time>2020-10-08T14:26:12+02:00</time>
      </trkpt>
      <trkpt lat="44.18187" lon="6.47702">
        <ele>1703</ele>
        <time>2020-10-08T14:26:29+02:00</time>
      </trkpt>
      <trkpt lat="44.18195" lon="6.47694">
        <ele>1702</ele>
        <time>2020-10-08T14:26:41+02:00</time>
      </trkpt>
      <trkpt lat="44.18201" lon="6.47689">
        <ele>1701</ele>
        <time>2020-10-08T14:26:55+02:00</time>
      </trkpt>
      <trkpt lat="44.18205" lon="6.47683">
        <ele>1699</ele>
        <time>2020-10-08T14:27:09+02:00</time>
      </trkpt>
      <trkpt lat="44.18211" lon="6.47672">
        <ele>1698</ele>
        <time>2020-10-08T14:27:18+02:00</time>
      </trkpt>
      <trkpt lat="44.18225" lon="6.47655">
        <ele>1695</ele>
        <time>2020-10-08T14:27:37+02:00</time>
      </trkpt>
      <trkpt lat="44.18237" lon="6.47633">
        <ele>1693</ele>
        <time>2020-10-08T14:27:57+02:00</time>
      </trkpt>
      <trkpt lat="44.18237" lon="6.47631">
        <ele>1693</ele>
        <time>2020-10-08T14:27:58+02:00</time>
      </trkpt>
      <trkpt lat="44.18238" lon="6.47628">
        <ele>1693</ele>
        <time>2020-10-08T14:28:01+02:00</time>
      </trkpt>
      <trkpt lat="44.18245" lon="6.47608">
        <ele>1690</ele>
        <time>2020-10-08T14:28:18+02:00</time>
      </trkpt>
      <trkpt lat="44.18247" lon="6.47606">
        <ele>1689</ele>
        <time>2020-10-08T14:28:21+02:00</time>
      </trkpt>
      <trkpt lat="44.1826" lon="6.47599">
        <ele>1685</ele>
        <time>2020-10-08T14:28:36+02:00</time>
      </trkpt>
      <trkpt lat="44.18271" lon="6.47591">
        <ele>1681</ele>
        <time>2020-10-08T14:28:50+02:00</time>
      </trkpt>
      <trkpt lat="44.18283" lon="6.47572">
        <ele>1678</ele>
        <time>2020-10-08T14:29:07+02:00</time>
      </trkpt>
      <trkpt lat="44.18299" lon="6.47558">
        <ele>1676</ele>
        <time>2020-10-08T14:29:24+02:00</time>
      </trkpt>
      <trkpt lat="44.18316" lon="6.47543">
        <ele>1676</ele>
        <time>2020-10-08T14:29:42+02:00</time>
      </trkpt>
      <trkpt lat="44.18335" lon="6.47533">
        <ele>1677</ele>
        <time>2020-10-08T14:30:01+02:00</time>
      </trkpt>
      <trkpt lat="44.18355" lon="6.47528">
        <ele>1675</ele>
        <time>2020-10-08T14:30:22+02:00</time>
      </trkpt>
      <trkpt lat="44.18368" lon="6.47525">
        <ele>1674</ele>
        <time>2020-10-08T14:30:38+02:00</time>
      </trkpt>
      <trkpt lat="44.18383" lon="6.47519">
        <ele>1672</ele>
        <time>2020-10-08T14:30:57+02:00</time>
      </trkpt>
      <trkpt lat="44.18393" lon="6.47517">
        <ele>1671</ele>
        <time>2020-10-08T14:31:09+02:00</time>
      </trkpt>
      <trkpt lat="44.18408" lon="6.47516">
        <ele>1669</ele>
        <time>2020-10-08T14:31:25+02:00</time>
      </trkpt>
      <trkpt lat="44.18426" lon="6.47514">
        <ele>1667</ele>
        <time>2020-10-08T14:31:43+02:00</time>
      </trkpt>
      <trkpt lat="44.18445" lon="6.4751">
        <ele>1665</ele>
        <time>2020-10-08T14:32:02+02:00</time>
      </trkpt>
      <trkpt lat="44.18458" lon="6.47506">
        <ele>1663</ele>
        <time>2020-10-08T14:32:17+02:00</time>
      </trkpt>
      <trkpt lat="44.18469" lon="6.47501">
        <ele>1661</ele>
        <time>2020-10-08T14:32:31+02:00</time>
      </trkpt>
      <trkpt lat="44.18484" lon="6.47486">
        <ele>1658</ele>
        <time>2020-10-08T14:32:49+02:00</time>
      </trkpt>
      <trkpt lat="44.1849" lon="6.47482">
        <ele>1657</ele>
        <time>2020-10-08T14:33:08+02:00</time>
      </trkpt>
      <trkpt lat="44.18501" lon="6.47475">
        <ele>1655</ele>
        <time>2020-10-08T14:33:24+02:00</time>
      </trkpt>
      <trkpt lat="44.18515" lon="6.47464">
        <ele>1653</ele>
        <time>2020-10-08T14:33:41+02:00</time>
      </trkpt>
      <trkpt lat="44.18535" lon="6.47444">
        <ele>1650</ele>
        <time>2020-10-08T14:34:01+02:00</time>
      </trkpt>
      <trkpt lat="44.18553" lon="6.47425">
        <ele>1648</ele>
        <time>2020-10-08T14:34:21+02:00</time>
      </trkpt>
      <trkpt lat="44.18562" lon="6.47408">
        <ele>1647</ele>
        <time>2020-10-08T14:34:34+02:00</time>
      </trkpt>
      <trkpt lat="44.18581" lon="6.47389">
        <ele>1644</ele>
        <time>2020-10-08T14:34:53+02:00</time>
      </trkpt>
      <trkpt lat="44.18591" lon="6.4738">
        <ele>1643</ele>
        <time>2020-10-08T14:35:05+02:00</time>
      </trkpt>
      <trkpt lat="44.18602" lon="6.4737">
        <ele>1641</ele>
        <time>2020-10-08T14:35:20+02:00</time>
      </trkpt>
      <trkpt lat="44.18613" lon="6.47349">
        <ele>1637</ele>
        <time>2020-10-08T14:35:36+02:00</time>
      </trkpt>
      <trkpt lat="44.18611" lon="6.4735">
        <ele>1637</ele>
        <time>2020-10-08T14:35:59+02:00</time>
      </trkpt>
      <trkpt lat="44.18614" lon="6.47349">
        <ele>1637</ele>
        <time>2020-10-08T14:36:39+02:00</time>
      </trkpt>
      <trkpt lat="44.18611" lon="6.47352">
        <ele>1638</ele>
        <time>2020-10-08T14:37:16+02:00</time>
      </trkpt>
      <trkpt lat="44.18611" lon="6.47351">
        <ele>1638</ele>
        <time>2020-10-08T14:37:45+02:00</time>
      </trkpt>
      <trkpt lat="44.18613" lon="6.47344">
        <ele>1636</ele>
        <time>2020-10-08T14:38:06+02:00</time>
      </trkpt>
      <trkpt lat="44.18614" lon="6.47339">
        <ele>1635</ele>
        <time>2020-10-08T14:38:10+02:00</time>
      </trkpt>
      <trkpt lat="44.18616" lon="6.47332">
        <ele>1634</ele>
        <time>2020-10-08T14:38:25+02:00</time>
      </trkpt>
      <trkpt lat="44.18615" lon="6.47327">
        <ele>1633</ele>
        <time>2020-10-08T14:38:33+02:00</time>
      </trkpt>
      <trkpt lat="44.18613" lon="6.47314">
        <ele>1632</ele>
        <time>2020-10-08T14:38:41+02:00</time>
      </trkpt>
      <trkpt lat="44.18612" lon="6.4729">
        <ele>1630</ele>
        <time>2020-10-08T14:38:54+02:00</time>
      </trkpt>
      <trkpt lat="44.18612" lon="6.47287">
        <ele>1630</ele>
        <time>2020-10-08T14:38:56+02:00</time>
      </trkpt>
      <trkpt lat="44.18615" lon="6.47278">
        <ele>1628</ele>
        <time>2020-10-08T14:39:02+02:00</time>
      </trkpt>
      <trkpt lat="44.18618" lon="6.47274">
        <ele>1628</ele>
        <time>2020-10-08T14:39:05+02:00</time>
      </trkpt>
      <trkpt lat="44.18618" lon="6.47271">
        <ele>1628</ele>
        <time>2020-10-08T14:39:07+02:00</time>
      </trkpt>
      <trkpt lat="44.18619" lon="6.4727">
        <ele>1628</ele>
        <time>2020-10-08T14:39:09+02:00</time>
      </trkpt>
      <trkpt lat="44.1863" lon="6.47264">
        <ele>1627</ele>
        <time>2020-10-08T14:39:22+02:00</time>
      </trkpt>
      <trkpt lat="44.18634" lon="6.47262">
        <ele>1626</ele>
        <time>2020-10-08T14:39:26+02:00</time>
      </trkpt>
      <trkpt lat="44.18643" lon="6.47264">
        <ele>1624</ele>
        <time>2020-10-08T14:39:33+02:00</time>
      </trkpt>
      <trkpt lat="44.18657" lon="6.47266">
        <ele>1621</ele>
        <time>2020-10-08T14:39:48+02:00</time>
      </trkpt>
      <trkpt lat="44.1866" lon="6.47264">
        <ele>1621</ele>
        <time>2020-10-08T14:39:52+02:00</time>
      </trkpt>
      <trkpt lat="44.18673" lon="6.47261">
        <ele>1619</ele>
        <time>2020-10-08T14:40:06+02:00</time>
      </trkpt>
      <trkpt lat="44.18689" lon="6.47255">
        <ele>1618</ele>
        <time>2020-10-08T14:40:20+02:00</time>
      </trkpt>
      <trkpt lat="44.18703" lon="6.47239">
        <ele>1617</ele>
        <time>2020-10-08T14:40:35+02:00</time>
      </trkpt>
      <trkpt lat="44.18708" lon="6.47231">
        <ele>1617</ele>
        <time>2020-10-08T14:40:48+02:00</time>
      </trkpt>
      <trkpt lat="44.18708" lon="6.47231">
        <ele>1617</ele>
        <time>2020-10-08T14:40:57+02:00</time>
      </trkpt>
      <trkpt lat="44.18717" lon="6.4722">
        <ele>1616</ele>
        <time>2020-10-08T14:41:08+02:00</time>
      </trkpt>
      <trkpt lat="44.1872" lon="6.47212">
        <ele>1616</ele>
        <time>2020-10-08T14:41:23+02:00</time>
      </trkpt>
      <trkpt lat="44.18728" lon="6.472">
        <ele>1614</ele>
        <time>2020-10-08T14:41:35+02:00</time>
      </trkpt>
      <trkpt lat="44.18733" lon="6.47198">
        <ele>1613</ele>
        <time>2020-10-08T14:41:38+02:00</time>
      </trkpt>
      <trkpt lat="44.18739" lon="6.47189">
        <ele>1611</ele>
        <time>2020-10-08T14:41:45+02:00</time>
      </trkpt>
      <trkpt lat="44.18748" lon="6.47169">
        <ele>1610</ele>
        <time>2020-10-08T14:42:01+02:00</time>
      </trkpt>
      <trkpt lat="44.18759" lon="6.47159">
        <ele>1607</ele>
        <time>2020-10-08T14:42:16+02:00</time>
      </trkpt>
      <trkpt lat="44.18763" lon="6.47157">
        <ele>1606</ele>
        <time>2020-10-08T14:42:33+02:00</time>
      </trkpt>
      <trkpt lat="44.18774" lon="6.47146">
        <ele>1603</ele>
        <time>2020-10-08T14:42:52+02:00</time>
      </trkpt>
      <trkpt lat="44.18777" lon="6.47143">
        <ele>1602</ele>
        <time>2020-10-08T14:42:57+02:00</time>
      </trkpt>
      <trkpt lat="44.18779" lon="6.47126">
        <ele>1601</ele>
        <time>2020-10-08T14:43:12+02:00</time>
      </trkpt>
      <trkpt lat="44.18786" lon="6.4711">
        <ele>1597</ele>
        <time>2020-10-08T14:43:27+02:00</time>
      </trkpt>
      <trkpt lat="44.18789" lon="6.47097">
        <ele>1594</ele>
        <time>2020-10-08T14:43:44+02:00</time>
      </trkpt>
      <trkpt lat="44.18789" lon="6.47096">
        <ele>1594</ele>
        <time>2020-10-08T14:44:06+02:00</time>
      </trkpt>
      <trkpt lat="44.18789" lon="6.4709">
        <ele>1593</ele>
        <time>2020-10-08T14:44:22+02:00</time>
      </trkpt>
      <trkpt lat="44.18791" lon="6.47076">
        <ele>1591</ele>
        <time>2020-10-08T14:44:38+02:00</time>
      </trkpt>
      <trkpt lat="44.18793" lon="6.47065">
        <ele>1588</ele>
        <time>2020-10-08T14:44:50+02:00</time>
      </trkpt>
      <trkpt lat="44.18796" lon="6.47049">
        <ele>1585</ele>
        <time>2020-10-08T14:45:06+02:00</time>
      </trkpt>
      <trkpt lat="44.18797" lon="6.47033">
        <ele>1584</ele>
        <time>2020-10-08T14:45:21+02:00</time>
      </trkpt>
      <trkpt lat="44.18801" lon="6.47023">
        <ele>1582</ele>
        <time>2020-10-08T14:45:35+02:00</time>
      </trkpt>
      <trkpt lat="44.18802" lon="6.47018">
        <ele>1581</ele>
        <time>2020-10-08T14:45:42+02:00</time>
      </trkpt>
      <trkpt lat="44.18813" lon="6.47011">
        <ele>1577</ele>
        <time>2020-10-08T14:45:57+02:00</time>
      </trkpt>
      <trkpt lat="44.18824" lon="6.47007">
        <ele>1574</ele>
        <time>2020-10-08T14:46:11+02:00</time>
      </trkpt>
      <trkpt lat="44.18833" lon="6.47">
        <ele>1572</ele>
        <time>2020-10-08T14:46:24+02:00</time>
      </trkpt>
      <trkpt lat="44.18837" lon="6.46999">
        <ele>1571</ele>
        <time>2020-10-08T14:46:27+02:00</time>
      </trkpt>
      <trkpt lat="44.18845" lon="6.46991">
        <ele>1570</ele>
        <time>2020-10-08T14:46:45+02:00</time>
      </trkpt>
      <trkpt lat="44.18848" lon="6.46992">
        <ele>1569</ele>
        <time>2020-10-08T14:47:06+02:00</time>
      </trkpt>
      <trkpt lat="44.18858" lon="6.47">
        <ele>1565</ele>
        <time>2020-10-08T14:47:19+02:00</time>
      </trkpt>
      <trkpt lat="44.18867" lon="6.47007">
        <ele>1562</ele>
        <time>2020-10-08T14:47:34+02:00</time>
      </trkpt>
      <trkpt lat="44.18879" lon="6.47019">
        <ele>1559</ele>
        <time>2020-10-08T14:47:48+02:00</time>
      </trkpt>
      <trkpt lat="44.18891" lon="6.47028">
        <ele>1557</ele>
        <time>2020-10-08T14:48:02+02:00</time>
      </trkpt>
      <trkpt lat="44.18893" lon="6.47031">
        <ele>1556</ele>
        <time>2020-10-08T14:48:05+02:00</time>
      </trkpt>
      <trkpt lat="44.18905" lon="6.47045">
        <ele>1553</ele>
        <time>2020-10-08T14:48:19+02:00</time>
      </trkpt>
      <trkpt lat="44.18924" lon="6.47061">
        <ele>1551</ele>
        <time>2020-10-08T14:48:36+02:00</time>
      </trkpt>
      <trkpt lat="44.18944" lon="6.47065">
        <ele>1549</ele>
        <time>2020-10-08T14:48:53+02:00</time>
      </trkpt>
      <trkpt lat="44.1896" lon="6.47052">
        <ele>1548</ele>
        <time>2020-10-08T14:49:11+02:00</time>
      </trkpt>
      <trkpt lat="44.18974" lon="6.47035">
        <ele>1548</ele>
        <time>2020-10-08T14:49:28+02:00</time>
      </trkpt>
      <trkpt lat="44.18977" lon="6.4703">
        <ele>1547</ele>
        <time>2020-10-08T14:49:32+02:00</time>
      </trkpt>
      <trkpt lat="44.18981" lon="6.47022">
        <ele>1546</ele>
        <time>2020-10-08T14:49:38+02:00</time>
      </trkpt>
      <trkpt lat="44.18992" lon="6.47003">
        <ele>1544</ele>
        <time>2020-10-08T14:49:55+02:00</time>
      </trkpt>
      <trkpt lat="44.18992" lon="6.46998">
        <ele>1544</ele>
        <time>2020-10-08T14:50:09+02:00</time>
      </trkpt>
      <trkpt lat="44.18993" lon="6.46995">
        <ele>1543</ele>
        <time>2020-10-08T14:50:36+02:00</time>
      </trkpt>
      <trkpt lat="44.19004" lon="6.46988">
        <ele>1541</ele>
        <time>2020-10-08T14:50:50+02:00</time>
      </trkpt>
      <trkpt lat="44.19005" lon="6.46976">
        <ele>1540</ele>
        <time>2020-10-08T14:51:04+02:00</time>
      </trkpt>
      <trkpt lat="44.19004" lon="6.46958">
        <ele>1540</ele>
        <time>2020-10-08T14:51:18+02:00</time>
      </trkpt>
      <trkpt lat="44.19" lon="6.46934">
        <ele>1541</ele>
        <time>2020-10-08T14:51:33+02:00</time>
      </trkpt>
      <trkpt lat="44.19011" lon="6.46918">
        <ele>1539</ele>
        <time>2020-10-08T14:51:48+02:00</time>
      </trkpt>
      <trkpt lat="44.19018" lon="6.46898">
        <ele>1539</ele>
        <time>2020-10-08T14:52:02+02:00</time>
      </trkpt>
      <trkpt lat="44.19022" lon="6.46885">
        <ele>1539</ele>
        <time>2020-10-08T14:52:10+02:00</time>
      </trkpt>
      <trkpt lat="44.19033" lon="6.46862">
        <ele>1538</ele>
        <time>2020-10-08T14:52:28+02:00</time>
      </trkpt>
      <trkpt lat="44.19039" lon="6.46854">
        <ele>1538</ele>
        <time>2020-10-08T14:52:36+02:00</time>
      </trkpt>
      <trkpt lat="44.19051" lon="6.4684">
        <ele>1538</ele>
        <time>2020-10-08T14:52:51+02:00</time>
      </trkpt>
      <trkpt lat="44.19066" lon="6.46829">
        <ele>1537</ele>
        <time>2020-10-08T14:53:05+02:00</time>
      </trkpt>
      <trkpt lat="44.19083" lon="6.46816">
        <ele>1536</ele>
        <time>2020-10-08T14:53:23+02:00</time>
      </trkpt>
      <trkpt lat="44.19099" lon="6.46805">
        <ele>1533</ele>
        <time>2020-10-08T14:53:39+02:00</time>
      </trkpt>
      <trkpt lat="44.19115" lon="6.46785">
        <ele>1532</ele>
        <time>2020-10-08T14:53:57+02:00</time>
      </trkpt>
      <trkpt lat="44.19129" lon="6.46762">
        <ele>1532</ele>
        <time>2020-10-08T14:54:14+02:00</time>
      </trkpt>
      <trkpt lat="44.19138" lon="6.46746">
        <ele>1533</ele>
        <time>2020-10-08T14:54:26+02:00</time>
      </trkpt>
      <trkpt lat="44.19143" lon="6.4674">
        <ele>1532</ele>
        <time>2020-10-08T14:54:31+02:00</time>
      </trkpt>
      <trkpt lat="44.19148" lon="6.46729">
        <ele>1532</ele>
        <time>2020-10-08T14:54:39+02:00</time>
      </trkpt>
      <trkpt lat="44.19151" lon="6.46723">
        <ele>1531</ele>
        <time>2020-10-08T14:54:44+02:00</time>
      </trkpt>
      <trkpt lat="44.1916" lon="6.46707">
        <ele>1529</ele>
        <time>2020-10-08T14:54:58+02:00</time>
      </trkpt>
      <trkpt lat="44.19174" lon="6.46697">
        <ele>1525</ele>
        <time>2020-10-08T14:55:13+02:00</time>
      </trkpt>
      <trkpt lat="44.19195" lon="6.46691">
        <ele>1520</ele>
        <time>2020-10-08T14:55:30+02:00</time>
      </trkpt>
      <trkpt lat="44.19211" lon="6.46684">
        <ele>1516</ele>
        <time>2020-10-08T14:55:46+02:00</time>
      </trkpt>
      <trkpt lat="44.19222" lon="6.46668">
        <ele>1516</ele>
        <time>2020-10-08T14:56:01+02:00</time>
      </trkpt>
      <trkpt lat="44.19229" lon="6.4665">
        <ele>1515</ele>
        <time>2020-10-08T14:56:19+02:00</time>
      </trkpt>
      <trkpt lat="44.19237" lon="6.46633">
        <ele>1514</ele>
        <time>2020-10-08T14:56:34+02:00</time>
      </trkpt>
      <trkpt lat="44.19241" lon="6.46606">
        <ele>1512</ele>
        <time>2020-10-08T14:56:51+02:00</time>
      </trkpt>
      <trkpt lat="44.19238" lon="6.46582">
        <ele>1513</ele>
        <time>2020-10-08T14:57:06+02:00</time>
      </trkpt>
      <trkpt lat="44.19236" lon="6.46565">
        <ele>1513</ele>
        <time>2020-10-08T14:57:20+02:00</time>
      </trkpt>
      <trkpt lat="44.19235" lon="6.46539">
        <ele>1511</ele>
        <time>2020-10-08T14:57:37+02:00</time>
      </trkpt>
      <trkpt lat="44.1923" lon="6.46518">
        <ele>1513</ele>
        <time>2020-10-08T14:57:51+02:00</time>
      </trkpt>
      <trkpt lat="44.19228" lon="6.46497">
        <ele>1513</ele>
        <time>2020-10-08T14:58:06+02:00</time>
      </trkpt>
      <trkpt lat="44.19226" lon="6.46474">
        <ele>1513</ele>
        <time>2020-10-08T14:58:22+02:00</time>
      </trkpt>
      <trkpt lat="44.19231" lon="6.46452">
        <ele>1509</ele>
        <time>2020-10-08T14:58:39+02:00</time>
      </trkpt>
      <trkpt lat="44.19237" lon="6.4643">
        <ele>1508</ele>
        <time>2020-10-08T14:58:56+02:00</time>
      </trkpt>
      <trkpt lat="44.19248" lon="6.46416">
        <ele>1505</ele>
        <time>2020-10-08T14:59:11+02:00</time>
      </trkpt>
      <trkpt lat="44.19263" lon="6.464">
        <ele>1505</ele>
        <time>2020-10-08T14:59:29+02:00</time>
      </trkpt>
      <trkpt lat="44.19263" lon="6.46379">
        <ele>1509</ele>
        <time>2020-10-08T14:59:43+02:00</time>
      </trkpt>
      <trkpt lat="44.19266" lon="6.46354">
        <ele>1511</ele>
        <time>2020-10-08T14:59:59+02:00</time>
      </trkpt>
      <trkpt lat="44.19267" lon="6.46352">
        <ele>1511</ele>
        <time>2020-10-08T15:00:01+02:00</time>
      </trkpt>
      <trkpt lat="44.19268" lon="6.4633">
        <ele>1513</ele>
        <time>2020-10-08T15:00:16+02:00</time>
      </trkpt>
      <trkpt lat="44.19274" lon="6.46314">
        <ele>1513</ele>
        <time>2020-10-08T15:00:25+02:00</time>
      </trkpt>
      <trkpt lat="44.19286" lon="6.46297">
        <ele>1511</ele>
        <time>2020-10-08T15:00:40+02:00</time>
      </trkpt>
      <trkpt lat="44.19297" lon="6.46283">
        <ele>1512</ele>
        <time>2020-10-08T15:00:53+02:00</time>
      </trkpt>
      <trkpt lat="44.19306" lon="6.46274">
        <ele>1513</ele>
        <time>2020-10-08T15:01:04+02:00</time>
      </trkpt>
      <trkpt lat="44.19311" lon="6.46272">
        <ele>1513</ele>
        <time>2020-10-08T15:01:10+02:00</time>
      </trkpt>
      <trkpt lat="44.19328" lon="6.46266">
        <ele>1513</ele>
        <time>2020-10-08T15:01:26+02:00</time>
      </trkpt>
      <trkpt lat="44.1934" lon="6.46268">
        <ele>1512</ele>
        <time>2020-10-08T15:01:39+02:00</time>
      </trkpt>
      <trkpt lat="44.19356" lon="6.4627">
        <ele>1512</ele>
        <time>2020-10-08T15:01:54+02:00</time>
      </trkpt>
      <trkpt lat="44.19371" lon="6.4627">
        <ele>1512</ele>
        <time>2020-10-08T15:02:09+02:00</time>
      </trkpt>
      <trkpt lat="44.19387" lon="6.4627">
        <ele>1512</ele>
        <time>2020-10-08T15:02:27+02:00</time>
      </trkpt>
      <trkpt lat="44.19405" lon="6.46271">
        <ele>1510</ele>
        <time>2020-10-08T15:02:42+02:00</time>
      </trkpt>
      <trkpt lat="44.19426" lon="6.46274">
        <ele>1507</ele>
        <time>2020-10-08T15:03:00+02:00</time>
      </trkpt>
      <trkpt lat="44.19443" lon="6.46267">
        <ele>1506</ele>
        <time>2020-10-08T15:03:16+02:00</time>
      </trkpt>
      <trkpt lat="44.19448" lon="6.46259">
        <ele>1507</ele>
        <time>2020-10-08T15:03:23+02:00</time>
      </trkpt>
      <trkpt lat="44.1946" lon="6.46238">
        <ele>1507</ele>
        <time>2020-10-08T15:03:40+02:00</time>
      </trkpt>
      <trkpt lat="44.19468" lon="6.46217">
        <ele>1508</ele>
        <time>2020-10-08T15:03:57+02:00</time>
      </trkpt>
      <trkpt lat="44.19476" lon="6.46207">
        <ele>1505</ele>
        <time>2020-10-08T15:04:14+02:00</time>
      </trkpt>
      <trkpt lat="44.19484" lon="6.46188">
        <ele>1504</ele>
        <time>2020-10-08T15:04:30+02:00</time>
      </trkpt>
      <trkpt lat="44.19493" lon="6.4617">
        <ele>1503</ele>
        <time>2020-10-08T15:04:45+02:00</time>
      </trkpt>
      <trkpt lat="44.19503" lon="6.4616">
        <ele>1500</ele>
        <time>2020-10-08T15:05:00+02:00</time>
      </trkpt>
      <trkpt lat="44.19515" lon="6.46153">
        <ele>1497</ele>
        <time>2020-10-08T15:05:15+02:00</time>
      </trkpt>
      <trkpt lat="44.19529" lon="6.46147">
        <ele>1492</ele>
        <time>2020-10-08T15:05:31+02:00</time>
      </trkpt>
      <trkpt lat="44.19535" lon="6.46138">
        <ele>1492</ele>
        <time>2020-10-08T15:05:40+02:00</time>
      </trkpt>
      <trkpt lat="44.19546" lon="6.46124">
        <ele>1489</ele>
        <time>2020-10-08T15:05:56+02:00</time>
      </trkpt>
      <trkpt lat="44.19546" lon="6.46123">
        <ele>1490</ele>
        <time>2020-10-08T15:05:57+02:00</time>
      </trkpt>
      <trkpt lat="44.19556" lon="6.46113">
        <ele>1486</ele>
        <time>2020-10-08T15:06:11+02:00</time>
      </trkpt>
      <trkpt lat="44.19563" lon="6.46098">
        <ele>1485</ele>
        <time>2020-10-08T15:06:26+02:00</time>
      </trkpt>
      <trkpt lat="44.19562" lon="6.46086">
        <ele>1486</ele>
        <time>2020-10-08T15:06:40+02:00</time>
      </trkpt>
      <trkpt lat="44.1956" lon="6.46076">
        <ele>1486</ele>
        <time>2020-10-08T15:06:54+02:00</time>
      </trkpt>
      <trkpt lat="44.19563" lon="6.46067">
        <ele>1483</ele>
        <time>2020-10-08T15:07:11+02:00</time>
      </trkpt>
      <trkpt lat="44.19565" lon="6.46067">
        <ele>1482</ele>
        <time>2020-10-08T15:07:36+02:00</time>
      </trkpt>
      <trkpt lat="44.19565" lon="6.4606">
        <ele>1480</ele>
        <time>2020-10-08T15:07:54+02:00</time>
      </trkpt>
      <trkpt lat="44.19569" lon="6.46048">
        <ele>1476</ele>
        <time>2020-10-08T15:08:06+02:00</time>
      </trkpt>
      <trkpt lat="44.19569" lon="6.4604">
        <ele>1474</ele>
        <time>2020-10-08T15:08:16+02:00</time>
      </trkpt>
      <trkpt lat="44.19567" lon="6.46025">
        <ele>1471</ele>
        <time>2020-10-08T15:08:31+02:00</time>
      </trkpt>
      <trkpt lat="44.19566" lon="6.46023">
        <ele>1471</ele>
        <time>2020-10-08T15:08:33+02:00</time>
      </trkpt>
      <trkpt lat="44.19573" lon="6.46021">
        <ele>1466</ele>
        <time>2020-10-08T15:08:44+02:00</time>
      </trkpt>
      <trkpt lat="44.19578" lon="6.46022">
        <ele>1462</ele>
        <time>2020-10-08T15:08:59+02:00</time>
      </trkpt>
      <trkpt lat="44.19579" lon="6.46015">
        <ele>1459</ele>
        <time>2020-10-08T15:09:13+02:00</time>
      </trkpt>
      <trkpt lat="44.19575" lon="6.46004">
        <ele>1459</ele>
        <time>2020-10-08T15:09:30+02:00</time>
      </trkpt>
      <trkpt lat="44.19575" lon="6.45993">
        <ele>1456</ele>
        <time>2020-10-08T15:09:44+02:00</time>
      </trkpt>
      <trkpt lat="44.19575" lon="6.45992">
        <ele>1456</ele>
        <time>2020-10-08T15:09:45+02:00</time>
      </trkpt>
      <trkpt lat="44.19575" lon="6.45979">
        <ele>1453</ele>
        <time>2020-10-08T15:09:56+02:00</time>
      </trkpt>
      <trkpt lat="44.19577" lon="6.45969">
        <ele>1449</ele>
        <time>2020-10-08T15:10:11+02:00</time>
      </trkpt>
      <trkpt lat="44.1958" lon="6.4596">
        <ele>1444</ele>
        <time>2020-10-08T15:10:22+02:00</time>
      </trkpt>
      <trkpt lat="44.19584" lon="6.45952">
        <ele>1440</ele>
        <time>2020-10-08T15:10:29+02:00</time>
      </trkpt>
      <trkpt lat="44.19584" lon="6.45943">
        <ele>1437</ele>
        <time>2020-10-08T15:10:34+02:00</time>
      </trkpt>
      <trkpt lat="44.19583" lon="6.45928">
        <ele>1435</ele>
        <time>2020-10-08T15:10:46+02:00</time>
      </trkpt>
      <trkpt lat="44.19584" lon="6.45914">
        <ele>1432</ele>
        <time>2020-10-08T15:10:59+02:00</time>
      </trkpt>
      <trkpt lat="44.19582" lon="6.45897">
        <ele>1430</ele>
        <time>2020-10-08T15:11:11+02:00</time>
      </trkpt>
      <trkpt lat="44.19582" lon="6.4588">
        <ele>1427</ele>
        <time>2020-10-08T15:11:23+02:00</time>
      </trkpt>
      <trkpt lat="44.19581" lon="6.45865">
        <ele>1425</ele>
        <time>2020-10-08T15:11:36+02:00</time>
      </trkpt>
      <trkpt lat="44.19583" lon="6.45852">
        <ele>1421</ele>
        <time>2020-10-08T15:11:52+02:00</time>
      </trkpt>
      <trkpt lat="44.19585" lon="6.45843">
        <ele>1419</ele>
        <time>2020-10-08T15:12:00+02:00</time>
      </trkpt>
      <trkpt lat="44.19585" lon="6.45829">
        <ele>1417</ele>
        <time>2020-10-08T15:12:11+02:00</time>
      </trkpt>
      <trkpt lat="44.1959" lon="6.45824">
        <ele>1415</ele>
        <time>2020-10-08T15:12:18+02:00</time>
      </trkpt>
      <trkpt lat="44.19597" lon="6.45815">
        <ele>1413</ele>
        <time>2020-10-08T15:12:31+02:00</time>
      </trkpt>
      <trkpt lat="44.19603" lon="6.45811">
        <ele>1411</ele>
        <time>2020-10-08T15:12:44+02:00</time>
      </trkpt>
      <trkpt lat="44.19608" lon="6.45811">
        <ele>1409</ele>
        <time>2020-10-08T15:12:56+02:00</time>
      </trkpt>
      <trkpt lat="44.19613" lon="6.4581">
        <ele>1407</ele>
        <time>2020-10-08T15:13:05+02:00</time>
      </trkpt>
      <trkpt lat="44.19616" lon="6.45809">
        <ele>1406</ele>
        <time>2020-10-08T15:13:10+02:00</time>
      </trkpt>
      <trkpt lat="44.19619" lon="6.45805">
        <ele>1405</ele>
        <time>2020-10-08T15:13:16+02:00</time>
      </trkpt>
      <trkpt lat="44.19625" lon="6.45805">
        <ele>1403</ele>
        <time>2020-10-08T15:13:29+02:00</time>
      </trkpt>
      <trkpt lat="44.19627" lon="6.45813">
        <ele>1401</ele>
        <time>2020-10-08T15:13:39+02:00</time>
      </trkpt>
      <trkpt lat="44.19633" lon="6.45822">
        <ele>1397</ele>
        <time>2020-10-08T15:13:53+02:00</time>
      </trkpt>
      <trkpt lat="44.19642" lon="6.45821">
        <ele>1394</ele>
        <time>2020-10-08T15:14:08+02:00</time>
      </trkpt>
      <trkpt lat="44.19655" lon="6.45819">
        <ele>1387</ele>
        <time>2020-10-08T15:14:21+02:00</time>
      </trkpt>
      <trkpt lat="44.19661" lon="6.45818">
        <ele>1385</ele>
        <time>2020-10-08T15:14:28+02:00</time>
      </trkpt>
      <trkpt lat="44.19673" lon="6.45814">
        <ele>1379</ele>
        <time>2020-10-08T15:14:45+02:00</time>
      </trkpt>
      <trkpt lat="44.19679" lon="6.45814">
        <ele>1377</ele>
        <time>2020-10-08T15:15:00+02:00</time>
      </trkpt>
      <trkpt lat="44.19683" lon="6.45804">
        <ele>1376</ele>
        <time>2020-10-08T15:15:15+02:00</time>
      </trkpt>
      <trkpt lat="44.19691" lon="6.45792">
        <ele>1374</ele>
        <time>2020-10-08T15:15:30+02:00</time>
      </trkpt>
      <trkpt lat="44.19695" lon="6.45785">
        <ele>1374</ele>
        <time>2020-10-08T15:15:38+02:00</time>
      </trkpt>
      <trkpt lat="44.19697" lon="6.45783">
        <ele>1373</ele>
        <time>2020-10-08T15:15:41+02:00</time>
      </trkpt>
      <trkpt lat="44.19703" lon="6.45771">
        <ele>1372</ele>
        <time>2020-10-08T15:15:54+02:00</time>
      </trkpt>
      <trkpt lat="44.1971" lon="6.45763">
        <ele>1370</ele>
        <time>2020-10-08T15:16:05+02:00</time>
      </trkpt>
      <trkpt lat="44.19714" lon="6.45752">
        <ele>1370</ele>
        <time>2020-10-08T15:16:18+02:00</time>
      </trkpt>
      <trkpt lat="44.19723" lon="6.4575">
        <ele>1366</ele>
        <time>2020-10-08T15:16:31+02:00</time>
      </trkpt>
      <trkpt lat="44.19726" lon="6.45753">
        <ele>1364</ele>
        <time>2020-10-08T15:16:35+02:00</time>
      </trkpt>
      <trkpt lat="44.19732" lon="6.45754">
        <ele>1362</ele>
        <time>2020-10-08T15:16:42+02:00</time>
      </trkpt>
      <trkpt lat="44.19743" lon="6.45752">
        <ele>1359</ele>
        <time>2020-10-08T15:16:58+02:00</time>
      </trkpt>
      <trkpt lat="44.19745" lon="6.45746">
        <ele>1359</ele>
        <time>2020-10-08T15:17:06+02:00</time>
      </trkpt>
      <trkpt lat="44.19755" lon="6.45731">
        <ele>1359</ele>
        <time>2020-10-08T15:17:19+02:00</time>
      </trkpt>
      <trkpt lat="44.19756" lon="6.4573">
        <ele>1359</ele>
        <time>2020-10-08T15:17:20+02:00</time>
      </trkpt>
      <trkpt lat="44.19772" lon="6.45723">
        <ele>1356</ele>
        <time>2020-10-08T15:17:36+02:00</time>
      </trkpt>
      <trkpt lat="44.19782" lon="6.45717">
        <ele>1353</ele>
        <time>2020-10-08T15:17:45+02:00</time>
      </trkpt>
      <trkpt lat="44.19791" lon="6.45709">
        <ele>1351</ele>
        <time>2020-10-08T15:17:59+02:00</time>
      </trkpt>
      <trkpt lat="44.19802" lon="6.45701">
        <ele>1348</ele>
        <time>2020-10-08T15:18:12+02:00</time>
      </trkpt>
      <trkpt lat="44.19812" lon="6.45685">
        <ele>1346</ele>
        <time>2020-10-08T15:18:26+02:00</time>
      </trkpt>
      <trkpt lat="44.19824" lon="6.45671">
        <ele>1344</ele>
        <time>2020-10-08T15:18:41+02:00</time>
      </trkpt>
      <trkpt lat="44.19834" lon="6.45664">
        <ele>1341</ele>
        <time>2020-10-08T15:18:52+02:00</time>
      </trkpt>
      <trkpt lat="44.19846" lon="6.45654">
        <ele>1338</ele>
        <time>2020-10-08T15:19:06+02:00</time>
      </trkpt>
      <trkpt lat="44.19858" lon="6.45646">
        <ele>1334</ele>
        <time>2020-10-08T15:19:19+02:00</time>
      </trkpt>
      <trkpt lat="44.19868" lon="6.45638">
        <ele>1332</ele>
        <time>2020-10-08T15:19:33+02:00</time>
      </trkpt>
      <trkpt lat="44.19879" lon="6.45631">
        <ele>1329</ele>
        <time>2020-10-08T15:19:47+02:00</time>
      </trkpt>
      <trkpt lat="44.19888" lon="6.45627">
        <ele>1326</ele>
        <time>2020-10-08T15:19:59+02:00</time>
      </trkpt>
      <trkpt lat="44.19902" lon="6.45622">
        <ele>1323</ele>
        <time>2020-10-08T15:20:17+02:00</time>
      </trkpt>
      <trkpt lat="44.19906" lon="6.45619">
        <ele>1322</ele>
        <time>2020-10-08T15:20:22+02:00</time>
      </trkpt>
      <trkpt lat="44.19921" lon="6.4561">
        <ele>1321</ele>
        <time>2020-10-08T15:20:37+02:00</time>
      </trkpt>
      <trkpt lat="44.19929" lon="6.45604">
        <ele>1321</ele>
        <time>2020-10-08T15:20:47+02:00</time>
      </trkpt>
      <trkpt lat="44.19942" lon="6.45591">
        <ele>1322</ele>
        <time>2020-10-08T15:21:03+02:00</time>
      </trkpt>
      <trkpt lat="44.1995" lon="6.45575">
        <ele>1327</ele>
        <time>2020-10-08T15:21:19+02:00</time>
      </trkpt>
      <trkpt lat="44.19966" lon="6.4556">
        <ele>1327</ele>
        <time>2020-10-08T15:21:33+02:00</time>
      </trkpt>
      <trkpt lat="44.19985" lon="6.45543">
        <ele>1327</ele>
        <time>2020-10-08T15:21:52+02:00</time>
      </trkpt>
      <trkpt lat="44.20008" lon="6.45539">
        <ele>1321</ele>
        <time>2020-10-08T15:22:09+02:00</time>
      </trkpt>
      <trkpt lat="44.20024" lon="6.45537">
        <ele>1318</ele>
        <time>2020-10-08T15:22:21+02:00</time>
      </trkpt>
      <trkpt lat="44.20032" lon="6.45537">
        <ele>1317</ele>
        <time>2020-10-08T15:22:35+02:00</time>
      </trkpt>
      <trkpt lat="44.20044" lon="6.45525">
        <ele>1318</ele>
        <time>2020-10-08T15:22:49+02:00</time>
      </trkpt>
      <trkpt lat="44.20058" lon="6.45514">
        <ele>1318</ele>
        <time>2020-10-08T15:23:04+02:00</time>
      </trkpt>
      <trkpt lat="44.20075" lon="6.45502">
        <ele>1317</ele>
        <time>2020-10-08T15:23:21+02:00</time>
      </trkpt>
      <trkpt lat="44.20083" lon="6.45495">
        <ele>1316</ele>
        <time>2020-10-08T15:23:36+02:00</time>
      </trkpt>
      <trkpt lat="44.20083" lon="6.45493">
        <ele>1317</ele>
        <time>2020-10-08T15:23:37+02:00</time>
      </trkpt>
      <trkpt lat="44.20087" lon="6.45464">
        <ele>1318</ele>
        <time>2020-10-08T15:23:54+02:00</time>
      </trkpt>
      <trkpt lat="44.20089" lon="6.45459">
        <ele>1318</ele>
        <time>2020-10-08T15:23:57+02:00</time>
      </trkpt>
      <trkpt lat="44.20091" lon="6.45451">
        <ele>1318</ele>
        <time>2020-10-08T15:24:06+02:00</time>
      </trkpt>
      <trkpt lat="44.20093" lon="6.45447">
        <ele>1317</ele>
        <time>2020-10-08T15:24:09+02:00</time>
      </trkpt>
      <trkpt lat="44.20104" lon="6.45424">
        <ele>1316</ele>
        <time>2020-10-08T15:24:26+02:00</time>
      </trkpt>
      <trkpt lat="44.20107" lon="6.45419">
        <ele>1316</ele>
        <time>2020-10-08T15:24:30+02:00</time>
      </trkpt>
      <trkpt lat="44.20109" lon="6.45417">
        <ele>1315</ele>
        <time>2020-10-08T15:24:33+02:00</time>
      </trkpt>
      <trkpt lat="44.20121" lon="6.45407">
        <ele>1315</ele>
        <time>2020-10-08T15:24:49+02:00</time>
      </trkpt>
      <trkpt lat="44.20131" lon="6.45414">
        <ele>1314</ele>
        <time>2020-10-08T15:25:04+02:00</time>
      </trkpt>
      <trkpt lat="44.20131" lon="6.45415">
        <ele>1314</ele>
        <time>2020-10-08T15:25:24+02:00</time>
      </trkpt>
      <trkpt lat="44.20131" lon="6.45416">
        <ele>1314</ele>
        <time>2020-10-08T15:25:40+02:00</time>
      </trkpt>
      <trkpt lat="44.2013" lon="6.45414">
        <ele>1314</ele>
        <time>2020-10-08T15:25:59+02:00</time>
      </trkpt>
      <trkpt lat="44.20126" lon="6.45418">
        <ele>1314</ele>
        <time>2020-10-08T15:26:16+02:00</time>
      </trkpt>
      <trkpt lat="44.20126" lon="6.45414">
        <ele>1315</ele>
        <time>2020-10-08T15:26:28+02:00</time>
      </trkpt>
      <trkpt lat="44.20125" lon="6.45409">
        <ele>1315</ele>
        <time>2020-10-08T15:26:33+02:00</time>
      </trkpt>
      <trkpt lat="44.2013" lon="6.45408">
        <ele>1315</ele>
        <time>2020-10-08T15:26:47+02:00</time>
      </trkpt>
      <trkpt lat="44.20134" lon="6.45408">
        <ele>1314</ele>
        <time>2020-10-08T15:27:10+02:00</time>
      </trkpt>
      <trkpt lat="44.20131" lon="6.45409">
        <ele>1315</ele>
        <time>2020-10-08T15:27:31+02:00</time>
      </trkpt>
      <trkpt lat="44.20129" lon="6.45409">
        <ele>1315</ele>
        <time>2020-10-08T15:27:55+02:00</time>
      </trkpt>
      <trkpt lat="44.20126" lon="6.45409">
        <ele>1315</ele>
        <time>2020-10-08T15:28:19+02:00</time>
      </trkpt>
      <trkpt lat="44.20126" lon="6.45403">
        <ele>1315</ele>
        <time>2020-10-08T15:28:35+02:00</time>
      </trkpt>
      <trkpt lat="44.20132" lon="6.45407">
        <ele>1315</ele>
        <time>2020-10-08T15:28:54+02:00</time>
      </trkpt>
      <trkpt lat="44.20133" lon="6.45404">
        <ele>1315</ele>
        <time>2020-10-08T15:29:17+02:00</time>
      </trkpt>
      <trkpt lat="44.20135" lon="6.454">
        <ele>1315</ele>
        <time>2020-10-08T15:29:36+02:00</time>
      </trkpt>
      <trkpt lat="44.20133" lon="6.45401">
        <ele>1315</ele>
        <time>2020-10-08T15:29:51+02:00</time>
      </trkpt>
      <trkpt lat="44.20133" lon="6.45402">
        <ele>1315</ele>
        <time>2020-10-08T15:30:07+02:00</time>
      </trkpt>
      <trkpt lat="44.20137" lon="6.45394">
        <ele>1315</ele>
        <time>2020-10-08T15:30:20+02:00</time>
      </trkpt>
      <trkpt lat="44.20151" lon="6.45398">
        <ele>1315</ele>
        <time>2020-10-08T15:30:35+02:00</time>
      </trkpt>
      <trkpt lat="44.20161" lon="6.45398">
        <ele>1316</ele>
        <time>2020-10-08T15:30:53+02:00</time>
      </trkpt>
      <trkpt lat="44.2017" lon="6.4539">
        <ele>1317</ele>
        <time>2020-10-08T15:31:06+02:00</time>
      </trkpt>
      <trkpt lat="44.20189" lon="6.45387">
        <ele>1317</ele>
        <time>2020-10-08T15:31:24+02:00</time>
      </trkpt>
      <trkpt lat="44.2019" lon="6.45386">
        <ele>1317</ele>
        <time>2020-10-08T15:31:25+02:00</time>
      </trkpt>
      <trkpt lat="44.20195" lon="6.45383">
        <ele>1318</ele>
        <time>2020-10-08T15:31:30+02:00</time>
      </trkpt>
      <trkpt lat="44.20215" lon="6.4537">
        <ele>1321</ele>
        <time>2020-10-08T15:31:51+02:00</time>
      </trkpt>
      <trkpt lat="44.20225" lon="6.45362">
        <ele>1323</ele>
        <time>2020-10-08T15:32:02+02:00</time>
      </trkpt>
      <trkpt lat="44.20232" lon="6.45359">
        <ele>1324</ele>
        <time>2020-10-08T15:32:08+02:00</time>
      </trkpt>
      <trkpt lat="44.2025" lon="6.45344">
        <ele>1327</ele>
        <time>2020-10-08T15:32:27+02:00</time>
      </trkpt>
      <trkpt lat="44.20264" lon="6.45335">
        <ele>1328</ele>
        <time>2020-10-08T15:32:43+02:00</time>
      </trkpt>
      <trkpt lat="44.20267" lon="6.45333">
        <ele>1328</ele>
        <time>2020-10-08T15:32:46+02:00</time>
      </trkpt>
      <trkpt lat="44.20283" lon="6.45315">
        <ele>1330</ele>
        <time>2020-10-08T15:33:05+02:00</time>
      </trkpt>
      <trkpt lat="44.203" lon="6.45293">
        <ele>1331</ele>
        <time>2020-10-08T15:33:26+02:00</time>
      </trkpt>
      <trkpt lat="44.20312" lon="6.45282">
        <ele>1331</ele>
        <time>2020-10-08T15:33:38+02:00</time>
      </trkpt>
      <trkpt lat="44.20328" lon="6.45263">
        <ele>1330</ele>
        <time>2020-10-08T15:33:57+02:00</time>
      </trkpt>
      <trkpt lat="44.20349" lon="6.45248">
        <ele>1329</ele>
        <time>2020-10-08T15:34:17+02:00</time>
      </trkpt>
      <trkpt lat="44.20364" lon="6.45244">
        <ele>1325</ele>
        <time>2020-10-08T15:34:34+02:00</time>
      </trkpt>
      <trkpt lat="44.20368" lon="6.45245">
        <ele>1323</ele>
        <time>2020-10-08T15:34:50+02:00</time>
      </trkpt>
      <trkpt lat="44.20367" lon="6.45241">
        <ele>1325</ele>
        <time>2020-10-08T15:35:08+02:00</time>
      </trkpt>
      <trkpt lat="44.20368" lon="6.45239">
        <ele>1325</ele>
        <time>2020-10-08T15:35:21+02:00</time>
      </trkpt>
      <trkpt lat="44.20368" lon="6.45246">
        <ele>1323</ele>
        <time>2020-10-08T15:35:33+02:00</time>
      </trkpt>
      <trkpt lat="44.20379" lon="6.45243">
        <ele>1321</ele>
        <time>2020-10-08T15:35:48+02:00</time>
      </trkpt>
      <trkpt lat="44.20388" lon="6.45246">
        <ele>1317</ele>
        <time>2020-10-08T15:36:03+02:00</time>
      </trkpt>
      <trkpt lat="44.20398" lon="6.45249">
        <ele>1315</ele>
        <time>2020-10-08T15:36:17+02:00</time>
      </trkpt>
      <trkpt lat="44.20399" lon="6.45248">
        <ele>1316</ele>
        <time>2020-10-08T15:36:37+02:00</time>
      </trkpt>
      <trkpt lat="44.20407" lon="6.45246">
        <ele>1316</ele>
        <time>2020-10-08T15:36:45+02:00</time>
      </trkpt>
      <trkpt lat="44.20425" lon="6.45236">
        <ele>1317</ele>
        <time>2020-10-08T15:37:01+02:00</time>
      </trkpt>
      <trkpt lat="44.20443" lon="6.45227">
        <ele>1316</ele>
        <time>2020-10-08T15:37:18+02:00</time>
      </trkpt>
      <trkpt lat="44.20453" lon="6.45221">
        <ele>1314</ele>
        <time>2020-10-08T15:37:30+02:00</time>
      </trkpt>
      <trkpt lat="44.20467" lon="6.45215">
        <ele>1311</ele>
        <time>2020-10-08T15:37:43+02:00</time>
      </trkpt>
      <trkpt lat="44.2048" lon="6.45208">
        <ele>1309</ele>
        <time>2020-10-08T15:37:59+02:00</time>
      </trkpt>
      <trkpt lat="44.20491" lon="6.45201">
        <ele>1307</ele>
        <time>2020-10-08T15:38:21+02:00</time>
      </trkpt>
      <trkpt lat="44.20503" lon="6.45193">
        <ele>1304</ele>
        <time>2020-10-08T15:38:36+02:00</time>
      </trkpt>
      <trkpt lat="44.20513" lon="6.45191">
        <ele>1300</ele>
        <time>2020-10-08T15:38:51+02:00</time>
      </trkpt>
      <trkpt lat="44.20529" lon="6.45192">
        <ele>1294</ele>
        <time>2020-10-08T15:39:07+02:00</time>
      </trkpt>
      <trkpt lat="44.2054" lon="6.4519">
        <ele>1291</ele>
        <time>2020-10-08T15:39:21+02:00</time>
      </trkpt>
      <trkpt lat="44.20549" lon="6.45181">
        <ele>1290</ele>
        <time>2020-10-08T15:39:36+02:00</time>
      </trkpt>
      <trkpt lat="44.20567" lon="6.45168">
        <ele>1286</ele>
        <time>2020-10-08T15:39:52+02:00</time>
      </trkpt>
      <trkpt lat="44.20587" lon="6.45151">
        <ele>1282</ele>
        <time>2020-10-08T15:40:14+02:00</time>
      </trkpt>
      <trkpt lat="44.20606" lon="6.45139">
        <ele>1277</ele>
        <time>2020-10-08T15:40:31+02:00</time>
      </trkpt>
      <trkpt lat="44.20615" lon="6.4513">
        <ele>1275</ele>
        <time>2020-10-08T15:40:44+02:00</time>
      </trkpt>
      <trkpt lat="44.20627" lon="6.45115">
        <ele>1274</ele>
        <time>2020-10-08T15:41:01+02:00</time>
      </trkpt>
      <trkpt lat="44.20636" lon="6.45094">
        <ele>1274</ele>
        <time>2020-10-08T15:41:15+02:00</time>
      </trkpt>
      <trkpt lat="44.20659" lon="6.45089">
        <ele>1268</ele>
        <time>2020-10-08T15:41:35+02:00</time>
      </trkpt>
      <trkpt lat="44.20677" lon="6.45095">
        <ele>1263</ele>
        <time>2020-10-08T15:41:51+02:00</time>
      </trkpt>
      <trkpt lat="44.20688" lon="6.45099">
        <ele>1260</ele>
        <time>2020-10-08T15:42:04+02:00</time>
      </trkpt>
      <trkpt lat="44.20706" lon="6.45109">
        <ele>1256</ele>
        <time>2020-10-08T15:42:21+02:00</time>
      </trkpt>
      <trkpt lat="44.20723" lon="6.45121">
        <ele>1252</ele>
        <time>2020-10-08T15:42:38+02:00</time>
      </trkpt>
      <trkpt lat="44.20737" lon="6.45133">
        <ele>1248</ele>
        <time>2020-10-08T15:42:54+02:00</time>
      </trkpt>
      <trkpt lat="44.20741" lon="6.45136">
        <ele>1247</ele>
        <time>2020-10-08T15:43:10+02:00</time>
      </trkpt>
      <trkpt lat="44.20755" lon="6.45145">
        <ele>1244</ele>
        <time>2020-10-08T15:43:26+02:00</time>
      </trkpt>
      <trkpt lat="44.20763" lon="6.45151">
        <ele>1242</ele>
        <time>2020-10-08T15:43:35+02:00</time>
      </trkpt>
      <trkpt lat="44.20778" lon="6.45154">
        <ele>1242</ele>
        <time>2020-10-08T15:43:47+02:00</time>
      </trkpt>
      <trkpt lat="44.20799" lon="6.45154">
        <ele>1239</ele>
        <time>2020-10-08T15:44:04+02:00</time>
      </trkpt>
      <trkpt lat="44.20812" lon="6.45148">
        <ele>1238</ele>
        <time>2020-10-08T15:44:20+02:00</time>
      </trkpt>
      <trkpt lat="44.20823" lon="6.45134">
        <ele>1239</ele>
        <time>2020-10-08T15:44:36+02:00</time>
      </trkpt>
      <trkpt lat="44.2084" lon="6.45128">
        <ele>1236</ele>
        <time>2020-10-08T15:44:53+02:00</time>
      </trkpt>
      <trkpt lat="44.20845" lon="6.45127">
        <ele>1236</ele>
        <time>2020-10-08T15:44:56+02:00</time>
      </trkpt>
      <trkpt lat="44.20858" lon="6.45124">
        <ele>1233</ele>
        <time>2020-10-08T15:45:04+02:00</time>
      </trkpt>
      <trkpt lat="44.20881" lon="6.45122">
        <ele>1227</ele>
        <time>2020-10-08T15:45:23+02:00</time>
      </trkpt>
      <trkpt lat="44.209" lon="6.45115">
        <ele>1225</ele>
        <time>2020-10-08T15:45:39+02:00</time>
      </trkpt>
      <trkpt lat="44.20923" lon="6.45111">
        <ele>1223</ele>
        <time>2020-10-08T15:45:57+02:00</time>
      </trkpt>
      <trkpt lat="44.20943" lon="6.45111">
        <ele>1219</ele>
        <time>2020-10-08T15:46:15+02:00</time>
      </trkpt>
      <trkpt lat="44.20956" lon="6.45114">
        <ele>1215</ele>
        <time>2020-10-08T15:46:29+02:00</time>
      </trkpt>
      <trkpt lat="44.20969" lon="6.45112">
        <ele>1212</ele>
        <time>2020-10-08T15:46:46+02:00</time>
      </trkpt>
      <trkpt lat="44.20982" lon="6.45105">
        <ele>1214</ele>
        <time>2020-10-08T15:47:02+02:00</time>
      </trkpt>
      <trkpt lat="44.20995" lon="6.451">
        <ele>1214</ele>
        <time>2020-10-08T15:47:16+02:00</time>
      </trkpt>
      <trkpt lat="44.21011" lon="6.45096">
        <ele>1211</ele>
        <time>2020-10-08T15:47:34+02:00</time>
      </trkpt>
      <trkpt lat="44.21024" lon="6.45091">
        <ele>1208</ele>
        <time>2020-10-08T15:47:49+02:00</time>
      </trkpt>
      <trkpt lat="44.21032" lon="6.45093">
        <ele>1205</ele>
        <time>2020-10-08T15:48:04+02:00</time>
      </trkpt>
      <trkpt lat="44.21028" lon="6.45105">
        <ele>1203</ele>
        <time>2020-10-08T15:48:24+02:00</time>
      </trkpt>
      <trkpt lat="44.21019" lon="6.45131">
        <ele>1196</ele>
        <time>2020-10-08T15:48:48+02:00</time>
      </trkpt>
      <trkpt lat="44.21016" lon="6.45144">
        <ele>1189</ele>
        <time>2020-10-08T15:49:02+02:00</time>
      </trkpt>
      <trkpt lat="44.21026" lon="6.45142">
        <ele>1189</ele>
        <time>2020-10-08T15:49:24+02:00</time>
      </trkpt>
      <trkpt lat="44.21036" lon="6.45136">
        <ele>1188</ele>
        <time>2020-10-08T15:49:43+02:00</time>
      </trkpt>
      <trkpt lat="44.21038" lon="6.45135">
        <ele>1187</ele>
        <time>2020-10-08T15:49:47+02:00</time>
      </trkpt>
      <trkpt lat="44.21048" lon="6.45138">
        <ele>1181</ele>
        <time>2020-10-08T15:50:01+02:00</time>
      </trkpt>
      <trkpt lat="44.2106" lon="6.45144">
        <ele>1175</ele>
        <time>2020-10-08T15:50:17+02:00</time>
      </trkpt>
      <trkpt lat="44.21071" lon="6.45144">
        <ele>1170</ele>
        <time>2020-10-08T15:50:35+02:00</time>
      </trkpt>
      <trkpt lat="44.21086" lon="6.4514">
        <ele>1167</ele>
        <time>2020-10-08T15:50:53+02:00</time>
      </trkpt>
      <trkpt lat="44.21099" lon="6.45141">
        <ele>1163</ele>
        <time>2020-10-08T15:51:10+02:00</time>
      </trkpt>
      <trkpt lat="44.21117" lon="6.45139">
        <ele>1159</ele>
        <time>2020-10-08T15:51:26+02:00</time>
      </trkpt>
      <trkpt lat="44.21131" lon="6.45131">
        <ele>1159</ele>
        <time>2020-10-08T15:51:41+02:00</time>
      </trkpt>
      <trkpt lat="44.21142" lon="6.45126">
        <ele>1157</ele>
        <time>2020-10-08T15:51:57+02:00</time>
      </trkpt>
      <trkpt lat="44.21144" lon="6.45125">
        <ele>1156</ele>
        <time>2020-10-08T15:52:23+02:00</time>
      </trkpt>
      <trkpt lat="44.21148" lon="6.45117">
        <ele>1157</ele>
        <time>2020-10-08T15:52:39+02:00</time>
      </trkpt>
      <trkpt lat="44.21154" lon="6.45103">
        <ele>1158</ele>
        <time>2020-10-08T15:52:55+02:00</time>
      </trkpt>
      <trkpt lat="44.21157" lon="6.45095">
        <ele>1158</ele>
        <time>2020-10-08T15:53:09+02:00</time>
      </trkpt>
      <trkpt lat="44.21159" lon="6.45086">
        <ele>1160</ele>
        <time>2020-10-08T15:53:16+02:00</time>
      </trkpt>
      <trkpt lat="44.21165" lon="6.4506">
        <ele>1159</ele>
        <time>2020-10-08T15:53:34+02:00</time>
      </trkpt>
      <trkpt lat="44.21172" lon="6.45044">
        <ele>1156</ele>
        <time>2020-10-08T15:53:48+02:00</time>
      </trkpt>
      <trkpt lat="44.21173" lon="6.45044">
        <ele>1156</ele>
        <time>2020-10-08T15:53:49+02:00</time>
      </trkpt>
      <trkpt lat="44.21184" lon="6.45033">
        <ele>1149</ele>
        <time>2020-10-08T15:54:04+02:00</time>
      </trkpt>
      <trkpt lat="44.21185" lon="6.45032">
        <ele>1149</ele>
        <time>2020-10-08T15:54:05+02:00</time>
      </trkpt>
      <trkpt lat="44.21193" lon="6.45022">
        <ele>1146</ele>
        <time>2020-10-08T15:54:19+02:00</time>
      </trkpt>
      <trkpt lat="44.21196" lon="6.45016">
        <ele>1146</ele>
        <time>2020-10-08T15:54:24+02:00</time>
      </trkpt>
      <trkpt lat="44.21207" lon="6.45">
        <ele>1146</ele>
        <time>2020-10-08T15:54:43+02:00</time>
      </trkpt>
      <trkpt lat="44.21225" lon="6.44979">
        <ele>1141</ele>
        <time>2020-10-08T15:55:03+02:00</time>
      </trkpt>
      <trkpt lat="44.21226" lon="6.44978">
        <ele>1141</ele>
        <time>2020-10-08T15:55:04+02:00</time>
      </trkpt>
      <trkpt lat="44.21241" lon="6.44959">
        <ele>1139</ele>
        <time>2020-10-08T15:55:21+02:00</time>
      </trkpt>
      <trkpt lat="44.2125" lon="6.4495">
        <ele>1138</ele>
        <time>2020-10-08T15:55:39+02:00</time>
      </trkpt>
      <trkpt lat="44.21266" lon="6.44942">
        <ele>1132</ele>
        <time>2020-10-08T15:55:56+02:00</time>
      </trkpt>
      <trkpt lat="44.21277" lon="6.44935">
        <ele>1129</ele>
        <time>2020-10-08T15:56:11+02:00</time>
      </trkpt>
      <trkpt lat="44.21289" lon="6.44931">
        <ele>1124</ele>
        <time>2020-10-08T15:56:27+02:00</time>
      </trkpt>
      <trkpt lat="44.21287" lon="6.44942">
        <ele>1122</ele>
        <time>2020-10-08T15:56:44+02:00</time>
      </trkpt>
      <trkpt lat="44.21279" lon="6.44958">
        <ele>1121</ele>
        <time>2020-10-08T15:57:02+02:00</time>
      </trkpt>
      <trkpt lat="44.21271" lon="6.44972">
        <ele>1121</ele>
        <time>2020-10-08T15:57:20+02:00</time>
      </trkpt>
      <trkpt lat="44.21277" lon="6.44975">
        <ele>1117</ele>
        <time>2020-10-08T15:57:37+02:00</time>
      </trkpt>
      <trkpt lat="44.21285" lon="6.44975">
        <ele>1113</ele>
        <time>2020-10-08T15:57:44+02:00</time>
      </trkpt>
      <trkpt lat="44.21297" lon="6.44961">
        <ele>1110</ele>
        <time>2020-10-08T15:58:00+02:00</time>
      </trkpt>
      <trkpt lat="44.2131" lon="6.44953">
        <ele>1105</ele>
        <time>2020-10-08T15:58:16+02:00</time>
      </trkpt>
      <trkpt lat="44.21318" lon="6.44969">
        <ele>1093</ele>
        <time>2020-10-08T15:58:39+02:00</time>
      </trkpt>
      <trkpt lat="44.21328" lon="6.4496">
        <ele>1088</ele>
        <time>2020-10-08T15:58:59+02:00</time>
      </trkpt>
      <trkpt lat="44.21337" lon="6.44937">
        <ele>1087</ele>
        <time>2020-10-08T15:59:18+02:00</time>
      </trkpt>
      <trkpt lat="44.21329" lon="6.44943">
        <ele>1092</ele>
        <time>2020-10-08T15:59:39+02:00</time>
      </trkpt>
      <trkpt lat="44.21328" lon="6.44937">
        <ele>1093</ele>
        <time>2020-10-08T15:59:54+02:00</time>
      </trkpt>
      <trkpt lat="44.2132" lon="6.44934">
        <ele>1101</ele>
        <time>2020-10-08T16:00:14+02:00</time>
      </trkpt>
      <trkpt lat="44.2133" lon="6.44937">
        <ele>1092</ele>
        <time>2020-10-08T16:00:37+02:00</time>
      </trkpt>
      <trkpt lat="44.21333" lon="6.44929">
        <ele>1089</ele>
        <time>2020-10-08T16:00:59+02:00</time>
      </trkpt>
      <trkpt lat="44.21339" lon="6.44926">
        <ele>1086</ele>
        <time>2020-10-08T16:01:18+02:00</time>
      </trkpt>
      <trkpt lat="44.21351" lon="6.44919">
        <ele>1081</ele>
        <time>2020-10-08T16:01:34+02:00</time>
      </trkpt>
      <trkpt lat="44.21351" lon="6.44914">
        <ele>1081</ele>
        <time>2020-10-08T16:01:42+02:00</time>
      </trkpt>
      <trkpt lat="44.21357" lon="6.44909">
        <ele>1078</ele>
        <time>2020-10-08T16:01:59+02:00</time>
      </trkpt>
      <trkpt lat="44.21359" lon="6.44903">
        <ele>1075</ele>
        <time>2020-10-08T16:02:10+02:00</time>
      </trkpt>
      <trkpt lat="44.21356" lon="6.44892">
        <ele>1075</ele>
        <time>2020-10-08T16:02:22+02:00</time>
      </trkpt>
      <trkpt lat="44.21355" lon="6.4489">
        <ele>1075</ele>
        <time>2020-10-08T16:02:23+02:00</time>
      </trkpt>
      <trkpt lat="44.21357" lon="6.44883">
        <ele>1074</ele>
        <time>2020-10-08T16:02:40+02:00</time>
      </trkpt>
      <trkpt lat="44.21355" lon="6.44882">
        <ele>1075</ele>
        <time>2020-10-08T16:03:03+02:00</time>
      </trkpt>
      <trkpt lat="44.21353" lon="6.44874">
        <ele>1077</ele>
        <time>2020-10-08T16:03:08+02:00</time>
      </trkpt>
      <trkpt lat="44.21357" lon="6.44859">
        <ele>1074</ele>
        <time>2020-10-08T16:03:18+02:00</time>
      </trkpt>
      <trkpt lat="44.21362" lon="6.44847">
        <ele>1072</ele>
        <time>2020-10-08T16:03:26+02:00</time>
      </trkpt>
      <trkpt lat="44.21375" lon="6.4483">
        <ele>1072</ele>
        <time>2020-10-08T16:03:42+02:00</time>
      </trkpt>
      <trkpt lat="44.21386" lon="6.44817">
        <ele>1071</ele>
        <time>2020-10-08T16:03:56+02:00</time>
      </trkpt>
      <trkpt lat="44.21396" lon="6.44802">
        <ele>1071</ele>
        <time>2020-10-08T16:04:12+02:00</time>
      </trkpt>
      <trkpt lat="44.21404" lon="6.44785">
        <ele>1070</ele>
        <time>2020-10-08T16:04:31+02:00</time>
      </trkpt>
      <trkpt lat="44.21408" lon="6.44769">
        <ele>1070</ele>
        <time>2020-10-08T16:04:44+02:00</time>
      </trkpt>
      <trkpt lat="44.21411" lon="6.44753">
        <ele>1069</ele>
        <time>2020-10-08T16:04:59+02:00</time>
      </trkpt>
      <trkpt lat="44.21414" lon="6.44732">
        <ele>1066</ele>
        <time>2020-10-08T16:05:15+02:00</time>
      </trkpt>
      <trkpt lat="44.21419" lon="6.44708">
        <ele>1063</ele>
        <time>2020-10-08T16:05:31+02:00</time>
      </trkpt>
      <trkpt lat="44.21421" lon="6.44683">
        <ele>1062</ele>
        <time>2020-10-08T16:05:48+02:00</time>
      </trkpt>
      <trkpt lat="44.21428" lon="6.44669">
        <ele>1061</ele>
        <time>2020-10-08T16:06:04+02:00</time>
      </trkpt>
      <trkpt lat="44.21433" lon="6.44651">
        <ele>1061</ele>
        <time>2020-10-08T16:06:18+02:00</time>
      </trkpt>
      <trkpt lat="44.21435" lon="6.44635">
        <ele>1061</ele>
        <time>2020-10-08T16:06:34+02:00</time>
      </trkpt>
      <trkpt lat="44.21444" lon="6.44614">
        <ele>1058</ele>
        <time>2020-10-08T16:06:50+02:00</time>
      </trkpt>
      <trkpt lat="44.21449" lon="6.44585">
        <ele>1056</ele>
        <time>2020-10-08T16:07:07+02:00</time>
      </trkpt>
      <trkpt lat="44.21457" lon="6.44565">
        <ele>1055</ele>
        <time>2020-10-08T16:07:21+02:00</time>
      </trkpt>
      <trkpt lat="44.21467" lon="6.44542">
        <ele>1053</ele>
        <time>2020-10-08T16:07:40+02:00</time>
      </trkpt>
      <trkpt lat="44.21476" lon="6.44521">
        <ele>1053</ele>
        <time>2020-10-08T16:07:59+02:00</time>
      </trkpt>
      <trkpt lat="44.21492" lon="6.44501">
        <ele>1052</ele>
        <time>2020-10-08T16:08:20+02:00</time>
      </trkpt>
      <trkpt lat="44.21509" lon="6.44479">
        <ele>1049</ele>
        <time>2020-10-08T16:08:37+02:00</time>
      </trkpt>
      <trkpt lat="44.21522" lon="6.44464">
        <ele>1047</ele>
        <time>2020-10-08T16:08:52+02:00</time>
      </trkpt>
      <trkpt lat="44.21532" lon="6.44456">
        <ele>1046</ele>
        <time>2020-10-08T16:09:02+02:00</time>
      </trkpt>
      <trkpt lat="44.21546" lon="6.4444">
        <ele>1043</ele>
        <time>2020-10-08T16:09:15+02:00</time>
      </trkpt>
      <trkpt lat="44.21546" lon="6.44437">
        <ele>1043</ele>
        <time>2020-10-08T16:09:17+02:00</time>
      </trkpt>
      <trkpt lat="44.21551" lon="6.44424">
        <ele>1043</ele>
        <time>2020-10-08T16:09:32+02:00</time>
      </trkpt>
      <trkpt lat="44.21552" lon="6.44424">
        <ele>1042</ele>
        <time>2020-10-08T16:09:40+02:00</time>
      </trkpt>
      <trkpt lat="44.21561" lon="6.44412">
        <ele>1042</ele>
        <time>2020-10-08T16:09:52+02:00</time>
      </trkpt>
      <trkpt lat="44.21577" lon="6.444">
        <ele>1040</ele>
        <time>2020-10-08T16:10:09+02:00</time>
      </trkpt>
      <trkpt lat="44.21596" lon="6.44388">
        <ele>1039</ele>
        <time>2020-10-08T16:10:24+02:00</time>
      </trkpt>
      <trkpt lat="44.21612" lon="6.44373">
        <ele>1037</ele>
        <time>2020-10-08T16:10:40+02:00</time>
      </trkpt>
      <trkpt lat="44.21633" lon="6.44359">
        <ele>1037</ele>
        <time>2020-10-08T16:10:57+02:00</time>
      </trkpt>
      <trkpt lat="44.21644" lon="6.4436">
        <ele>1037</ele>
        <time>2020-10-08T16:11:12+02:00</time>
      </trkpt>
      <trkpt lat="44.21654" lon="6.44385">
        <ele>1038</ele>
        <time>2020-10-08T16:11:30+02:00</time>
      </trkpt>
      <trkpt lat="44.21657" lon="6.44384">
        <ele>1038</ele>
        <time>2020-10-08T16:11:46+02:00</time>
      </trkpt>
      <trkpt lat="44.21674" lon="6.44377">
        <ele>1038</ele>
        <time>2020-10-08T16:12:03+02:00</time>
      </trkpt>
      <trkpt lat="44.21685" lon="6.44369">
        <ele>1038</ele>
        <time>2020-10-08T16:12:19+02:00</time>
      </trkpt>
      <trkpt lat="44.2169" lon="6.44366">
        <ele>1038</ele>
        <time>2020-10-08T16:12:23+02:00</time>
      </trkpt>
      <trkpt lat="44.21713" lon="6.44359">
        <ele>1036</ele>
        <time>2020-10-08T16:12:40+02:00</time>
      </trkpt>
      <trkpt lat="44.21714" lon="6.44357">
        <ele>1035</ele>
        <time>2020-10-08T16:12:48+02:00</time>
      </trkpt>
      <trkpt lat="44.21716" lon="6.44353">
        <ele>1035</ele>
        <time>2020-10-08T16:13:10+02:00</time>
      </trkpt>
      <trkpt lat="44.21714" lon="6.44352">
        <ele>1035</ele>
        <time>2020-10-08T16:13:27+02:00</time>
      </trkpt>
      <trkpt lat="44.21713" lon="6.44354">
        <ele>1035</ele>
        <time>2020-10-08T16:13:45+02:00</time>
      </trkpt>
    </trkseg>
  </trk>
</gpx>